[[{"header":{"parameterUnit":"m.s-1","parameterCategory":1,"la1":30.6,"la2":28.766,"lo1":-90.7593,"lo2":-88.6598,"dy":0.0162,"dx":0.0183,"nx":116,"ny":114,"refTime":"2024-06-26T06:00:00:Z","depth":0,"parameterNumber":2,"parameterNumberName":"U-component_of_WINDS"},"data":[0.0,0.0,0.0,0.0,0.0,0.0,0.0,0.0,0.0,0.0,0.0,0.0,0.0,0.0,0.0,0.0,0.0,0.0,0.0,0.0,0.0,0.0,0.0,0.0,0.0,0.0,0.0,0.0,0.0,0.0,0.0,0.0,0.0,0.0,0.0,0.0,0.0,0.0,0.0,0.0,0.0,0.0,0.0,0.0,0.0,0.0,0.0,0.0,0.0,0.0,0.0,0.0,0.0,0.0,0.0,0.0,0.0,0.0,0.0,0.0,0.0,0.0,0.0,0.0,0.0,0.0,0.0,0.0,0.0,0.0,0.0,0.0,0.0,0.0,0.0,0.0,0.0,0.0,0.0,0.0,0.0,0.0,0.0,0.0,0.0,0.0,0.0,0.0,0.0,0.0,0.0,0.0,0.0,0.0,0.0,0.0,0.0,0.0,0.0,0.0,0.0,0.0,0.0,0.0,0.0,0.0,0.0,0.0,0.0,0.0,0.0,0.0,0.0,0.0,0.0,0.0,0.0,0.0,0.0,0.0,0.0,0.0,0.0,0.0,0.0,0.0,0.0,0.0,0.0,0.0,0.0,0.0,0.0,0.0,0.0,0.0,0.0,0.0,0.0,0.0,0.0,0.0,0.0,0.0,0.0,0.0,0.0,0.0,0.0,0.0,0.0,0.0,0.0,0.0,0.0,0.0,0.0,0.0,0.0,0.0,0.0,0.0,0.0,0.0,0.0,0.0,0.0,0.0,0.0,0.0,0.0,0.0,0.0,0.0,0.0,0.0,0.0,0.0,0.0,0.0,0.0,0.0,0.0,0.0,0.0,0.0,0.0,0.0,0.0,0.0,0.0,0.0,0.0,0.0,0.0,0.0,0.0,0.0,0.0,0.0,0.0,0.0,0.0,0.0,0.0,0.0,0.0,0.0,0.0,0.0,0.0,0.0,0.0,0.0,0.0,0.0,0.0,0.0,0.0,0.0,0.0,0.0,0.0,0.0,0.0,0.0,0.0,0.0,0.0,0.0,0.0,0.0,0.0,0.0,0.0,0.0,0.0,0.0,0.0,0.0,0.0,0.0,0.0,0.0,0.0,0.0,0.0,0.0,0.0,0.0,0.0,0.0,0.0,0.0,0.0,0.0,0.0,0.0,0.0,0.0,0.0,0.0,0.0,0.0,0.0,0.0,0.0,0.0,0.0,0.0,0.0,0.0,0.0,0.0,0.0,0.0,0.0,0.0,0.0,0.0,0.0,0.0,0.0,0.0,0.0,0.0,0.0,0.0,0.0,0.0,0.0,0.0,0.0,0.0,0.0,0.0,0.0,0.0,0.0,0.0,0.0,0.0,0.0,0.0,0.0,0.0,0.0,0.0,0.0,0.0,0.0,0.0,0.0,0.0,0.0,0.0,0.0,0.0,0.0,0.0,0.0,0.0,0.0,0.0,0.0,0.0,0.0,0.0,0.0,0.0,0.0,0.0,0.0,0.0,0.0,0.0,0.0,0.0,0.0,0.0,0.0,0.0,0.0,0.0,0.0,0.0,0.0,0.0,0.0,0.0,0.0,0.0,0.0,0.0,0.0,0.0,0.0,0.0,0.0,0.0,0.0,0.0,0.0,0.0,0.0,0.0,0.0,0.0,0.0,0.0,0.0,0.0,0.0,0.0,0.0,0.0,0.0,0.0,0.0,0.0,0.0,0.0,0.0,0.0,0.0,0.0,0.0,0.0,0.0,0.0,0.0,0.0,0.0,0.0,0.0,0.0,0.0,0.0,0.0,0.0,0.0,0.0,0.0,0.0,0.0,0.0,0.0,0.0,0.0,0.0,0.0,0.0,0.0,0.0,0.0,0.0,0.0,0.0,0.0,0.0,0.0,0.0,0.0,0.0,0.0,0.0,0.0,0.0,0.0,0.0,0.0,0.0,0.0,0.0,0.0,0.0,0.0,0.0,0.0,0.0,0.0,0.0,0.0,0.0,0.0,0.0,0.0,0.0,0.0,0.0,0.0,0.0,0.0,0.0,0.0,0.0,0.0,0.0,0.0,0.0,0.0,0.0,0.0,0.0,0.0,0.0,0.0,0.0,0.0,0.0,0.0,0.0,0.0,0.0,0.0,0.0,0.0,0.0,0.0,0.0,0.0,0.0,0.0,0.0,0.0,0.0,0.0,0.0,0.0,0.0,0.0,0.0,0.0,0.0,0.0,0.0,0.0,0.0,0.0,0.0,0.0,0.0,0.0,0.0,0.0,0.0,0.0,0.0,0.0,0.0,0.0,0.0,0.0,0.0,0.0,0.0,0.0,0.0,0.0,0.0,0.0,0.0,0.0,0.0,0.0,0.0,0.0,0.0,0.0,0.0,0.0,0.0,0.0,0.0,0.0,0.0,0.0,0.0,0.0,0.0,0.0,0.0,0.0,0.0,0.0,0.0,0.0,0.0,0.0,0.0,0.0,0.0,0.0,0.0,0.0,0.0,0.0,0.0,0.0,0.0,0.0,0.0,0.0,0.0,0.0,0.0,0.0,0.0,0.0,0.0,0.0,0.0,0.0,0.0,0.0,0.0,0.0,0.0,0.0,0.0,0.0,0.0,0.0,0.0,0.0,0.0,0.0,0.0,0.0,0.0,0.0,0.0,0.0,0.0,0.0,0.0,0.0,0.0,0.0,0.0,0.0,0.0,0.0,0.0,0.0,0.0,0.0,0.0,0.0,0.0,0.0,0.0,0.0,0.0,0.0,0.0,0.0,0.0,0.0,0.0,0.0,0.0,0.0,0.0,0.0,0.0,0.0,0.0,0.0,0.0,0.0,0.0,0.0,0.0,0.0,0.0,0.0,0.0,0.0,0.0,0.0,0.0,0.0,0.0,0.0,0.0,0.0,0.0,0.0,0.0,0.0,0.0,0.0,0.0,0.0,0.0,0.0,0.0,0.0,0.0,0.0,0.0,0.0,0.0,0.0,0.0,0.0,0.0,0.0,0.0,0.0,0.0,0.0,0.0,0.0,0.0,0.0,0.0,0.0,0.0,0.0,0.0,0.0,0.0,0.0,0.0,0.0,0.0,0.0,0.0,0.0,0.0,0.0,0.0,0.0,0.0,0.0,0.0,0.0,0.0,0.0,0.0,0.0,0.0,0.0,0.0,0.0,0.0,0.0,0.0,0.0,0.0,0.0,0.0,0.0,0.0,0.0,0.0,0.0,0.0,0.0,0.0,0.0,0.0,0.0,0.0,0.0,0.0,0.0,0.0,0.0,0.0,0.0,0.0,0.0,0.0,0.0,0.0,0.0,0.0,0.0,0.0,0.0,0.0,0.0,0.0,0.0,0.0,0.0,0.0,0.0,0.0,0.0,0.0,0.0,0.0,0.0,0.0,0.0,0.0,0.0,0.0,0.0,0.0,0.0,0.0,0.0,0.0,0.0,0.0,0.0,0.0,0.0,0.0,0.0,0.0,0.0,0.0,0.0,0.0,0.0,0.0,0.0,0.0,0.0,0.0,0.0,0.0,0.0,0.0,0.0,0.0,0.0,0.0,0.0,0.0,0.0,0.0,0.0,0.0,0.0,0.0,0.0,0.0,0.0,0.0,0.0,0.0,0.0,0.0,0.0,0.0,0.0,0.0,0.0,0.0,0.0,0.0,0.0,0.0,0.0,0.0,0.0,0.0,0.0,0.0,0.0,0.0,0.0,0.0,0.0,0.0,0.0,0.0,0.0,0.0,0.0,0.0,0.0,0.0,0.0,0.0,0.0,0.0,0.0,0.0,0.0,0.0,0.0,0.0,0.0,0.0,0.0,0.0,0.0,0.0,0.0,0.0,0.0,0.0,0.0,0.0,0.0,0.0,0.0,0.0,0.0,0.0,0.0,0.0,0.0,0.0,0.0,0.0,0.0,0.0,0.0,0.0,0.0,0.0,0.0,0.0,0.0,0.0,0.0,0.0,0.0,0.0,0.0,0.0,0.0,0.0,0.0,0.0,0.0,0.0,0.0,0.0,0.0,0.0,0.0,0.0,0.0,0.0,0.0,0.0,0.0,0.0,0.0,0.0,0.0,0.0,0.0,0.0,0.0,0.0,0.0,0.0,0.0,0.0,0.0,0.0,0.0,0.0,0.0,0.0,0.0,0.0,0.0,0.0,0.0,0.0,0.0,0.0,0.0,0.0,0.0,0.0,0.0,0.0,0.0,0.0,0.0,0.0,0.0,0.0,0.0,0.0,0.0,0.0,0.0,0.0,0.0,0.0,0.0,0.0,0.0,0.0,0.0,0.0,0.0,0.0,0.0,0.0,0.0,0.0,0.0,0.0,0.0,0.0,0.0,0.0,0.0,0.0,0.0,0.0,0.0,0.0,0.0,0.0,0.0,0.0,0.0,0.0,0.0,0.0,0.0,0.0,0.0,0.0,0.0,0.0,0.0,0.0,0.0,0.0,0.0,0.0,0.0,0.0,0.0,0.0,0.0,0.0,0.0,0.0,0.0,0.0,0.0,0.0,0.0,0.0,0.0,0.0,0.0,0.0,0.0,0.0,0.0,0.0,0.0,0.0,0.0,0.0,0.0,0.0,0.0,0.0,0.0,0.0,0.0,0.0,0.0,0.0,0.0,0.0,0.0,0.0,0.0,0.0,0.0,0.0,0.0,0.0,0.0,0.0,0.0,0.0,0.0,0.0,0.0,0.0,0.0,0.0,0.0,0.0,0.0,0.0,0.0,0.0,0.0,0.0,0.0,0.0,0.0,0.0,0.0,0.0,0.0,0.0,0.0,0.0,0.0,0.0,0.0,0.0,0.0,0.0,0.0,0.0,0.0,0.0,0.0,0.0,0.0,0.0,0.0,0.0,0.0,0.0,0.0,0.0,0.0,0.0,0.0,0.0,0.0,0.0,0.0,0.0,0.0,0.0,0.0,0.0,0.0,0.0,0.0,0.0,0.0,0.0,0.0,0.0,0.0,0.0,0.0,0.0,0.0,0.0,0.0,0.0,0.0,0.0,0.0,0.0,0.0,0.0,0.0,0.0,0.0,0.0,0.0,0.0,0.0,0.0,0.0,0.0,0.0,0.0,0.0,0.0,0.0,0.0,0.0,0.0,0.0,0.0,0.0,0.0,0.0,0.0,0.0,0.0,0.0,0.0,0.0,0.0,0.0,0.0,0.0,0.0,0.0,0.0,0.0,0.0,0.0,0.0,0.0,0.0,0.0,0.0,0.0,0.0,0.0,0.0,0.0,0.0,0.0,0.0,0.0,0.0,0.0,0.0,0.0,0.0,0.0,0.0,0.0,0.0,0.0,0.0,0.0,0.0,0.0,0.0,0.0,0.0,0.0,0.0,0.0,0.0,0.0,0.0,0.0,0.0,0.0,0.0,0.0,0.0,0.0,0.0,0.0,0.0,0.0,0.0,0.0,0.0,0.0,0.0,0.0,0.0,0.0,0.0,0.0,0.0,0.0,0.0,0.0,0.0,0.0,0.0,0.0,0.0,0.0,0.0,0.0,0.0,0.0,0.0,0.0,0.0,0.0,0.0,0.0,0.0,0.0,0.0,0.0,0.0,0.0,0.0,0.0,0.0,0.0,0.0,0.0,0.0,0.0,0.0,0.0,0.0,0.0,0.0,0.0,0.0,0.0,0.0,0.0,0.0,0.0,0.0,0.0,0.0,0.0,0.0,0.0,0.0,0.0,0.0,0.0,0.0,0.0,0.0,0.0,0.0,0.0,0.0,0.0,0.0,0.0,0.0,0.0,0.0,0.0,0.0,0.0,0.0,0.0,0.0,0.0,0.0,0.0,0.0,0.0,0.0,0.0,0.0,0.0,0.0,0.0,0.0,0.0,0.0,0.0,0.0,0.0,0.0,0.0,0.0,0.0,0.0,0.0,0.0,0.0,0.0,0.0,0.0,0.0,0.0,0.0,0.0,0.0,0.0,0.0,0.0,0.0,0.0,0.0,0.0,0.0,0.0,0.0,0.0,0.0,0.0,0.0,0.0,0.0,0.0,0.0,0.0,0.0,0.0,0.0,0.0,0.0,0.0,0.0,0.0,0.0,0.0,0.0,0.0,0.0,0.0,0.0,0.0,0.0,0.0,0.0,0.0,0.0,0.0,0.0,0.0,0.0,0.0,0.0,0.0,0.0,0.0,-1.2949,-1.3127,0.0,0.0,0.0,0.0,0.0,0.0,0.0,0.0,0.0,0.0,0.0,0.0,0.0,0.0,0.0,0.0,0.0,0.0,0.0,0.0,0.0,0.0,0.0,-0.1971,-0.2084,-0.221,-0.2221,-0.2221,-0.2221,0.0,0.0,0.0,0.0,0.0,-0.1973,-0.1913,-0.2116,-0.2585,-0.3406,-0.4346,-0.5449,-0.5732,-0.59,-0.6014,0.0,0.0,0.0,0.0,0.0,0.0,0.0,0.0,0.0,0.0,0.0,0.0,0.0,0.0,0.0,0.0,0.0,0.0,0.0,0.0,0.0,0.0,0.0,0.0,0.0,0.0,0.0,0.0,0.0,0.0,0.0,0.0,0.0,0.0,0.0,0.0,0.0,0.0,0.0,0.0,0.0,0.0,0.0,0.0,0.0,0.0,0.0,0.0,0.0,0.0,0.0,0.0,0.0,0.0,0.0,0.0,0.0,0.0,0.0,0.0,0.0,0.0,0.0,0.0,0.0,0.0,0.0,0.0,0.0,0.0,-1.3899,-1.3955,0.0,0.0,0.0,0.0,0.0,0.0,0.0,0.0,0.0,0.0,0.0,0.0,0.0,0.0,0.0,0.0,0.0,0.0,0.0,0.0,0.0,-0.1706,-0.1946,-0.1971,-0.2084,-0.221,-0.2221,-0.2221,-0.2221,-0.2221,0.0,0.0,0.0,-0.212,-0.2005,-0.1944,-0.2092,-0.2511,-0.3558,-0.4761,-0.6059,-0.6173,-0.6178,0.0,-0.6211,0.0,0.0,0.0,0.0,0.0,0.0,0.0,0.0,0.0,0.0,0.0,0.0,0.0,0.0,0.0,0.0,0.0,0.0,0.0,0.0,0.0,0.0,0.0,0.0,0.0,0.0,0.0,0.0,0.0,0.0,0.0,0.0,0.0,0.0,0.0,0.0,0.0,0.0,0.0,0.0,0.0,0.0,0.0,0.0,0.0,0.0,0.0,0.0,0.0,0.0,0.0,0.0,0.0,0.0,0.0,0.0,0.0,0.0,0.0,0.0,0.0,0.0,0.0,-1.0646,-1.1179,-1.1353,-1.1967,-1.2952,-1.4187,-1.4365,-1.4524,-1.4794,-1.4743,0.0,0.0,0.0,0.0,0.0,0.0,0.0,0.0,0.0,0.0,0.0,0.0,0.0,0.0,0.0,0.0,0.0,0.0,0.0,-0.1706,-0.1946,-0.1971,-0.2084,-0.221,-0.2221,-0.2221,-0.2221,-0.2221,0.0,0.0,-0.2209,-0.2204,-0.2197,-0.2134,-0.2481,-0.3238,-0.4545,-0.5546,-0.6173,0.0,0.0,0.0,-0.6178,-0.6216,0.0,0.0,0.0,0.0,0.0,0.0,0.0,0.0,0.0,0.0,0.0,0.0,0.0,0.0,0.0,0.0,0.0,0.0,0.0,0.0,0.0,0.0,0.0,0.0,0.0,0.0,0.0,0.0,0.0,0.0,0.0,0.0,0.0,0.0,0.0,0.0,0.0,0.0,0.0,0.0,0.0,0.0,-0.6992,-0.7244,0.0,0.0,0.0,0.0,0.0,0.0,0.0,0.0,0.0,0.0,0.0,0.0,0.0,-0.9578,-0.9866,-1.0083,-1.0192,-1.0192,-1.0577,-1.1034,-1.185,-1.1935,-1.2496,-1.3429,-1.3731,0.0,-1.6096,-1.5833,0.0,0.0,0.0,0.0,0.0,0.0,0.0,0.0,0.0,0.0,0.0,0.0,0.0,0.0,0.0,0.0,0.0,0.0,0.0,0.0,0.0,-0.1921,-0.197,-0.2158,-0.2135,-0.2145,-0.2217,0.0,0.0,-0.222,-0.2221,-0.2221,-0.2221,-0.2159,-0.2659,-0.3782,-0.4976,-0.5745,0.0,0.0,0.0,0.0,-0.6254,-0.6169,0.0,0.0,0.0,0.0,0.0,0.0,0.0,0.0,0.0,0.0,0.0,0.0,0.0,0.0,0.0,0.0,0.0,0.0,0.0,0.0,0.0,0.0,0.0,0.0,0.0,0.0,0.0,0.0,0.0,0.0,0.0,0.0,0.0,0.0,0.0,0.0,0.0,0.0,0.0,0.0,0.0,-0.6969,-0.7377,-0.7381,-0.7781,-0.7995,0.0,0.0,0.0,0.0,0.0,0.0,0.0,0.0,0.0,-0.9989,-0.9998,-1.0097,-1.0301,-1.0518,-1.0627,-1.0627,-1.0825,-1.1111,-1.1487,-1.1487,-1.2047,-1.2986,-1.3093,-1.3926,-1.5206,-1.5465,-1.5348,-1.5144,0.0,0.0,0.0,0.0,-1.5745,-1.5789,0.0,0.0,0.0,0.0,0.0,0.0,0.0,0.0,0.0,0.0,0.0,0.0,-0.1868,-0.1882,-0.1924,-0.2093,-0.2012,0.0,0.0,0.0,-0.2165,-0.2196,-0.2213,-0.2221,-0.2221,-0.2568,-0.3155,-0.4086,-0.5261,0.0,0.0,0.0,0.0,0.0,0.0,0.0,0.0,0.0,0.0,0.0,0.0,0.0,0.0,0.0,0.0,0.0,0.0,0.0,0.0,0.0,0.0,0.0,0.0,0.0,0.0,0.0,0.0,0.0,0.0,0.0,0.0,0.0,0.0,0.0,0.0,0.0,0.0,0.0,0.0,0.0,0.0,0.0,0.0,0.0,0.0,0.0,0.0,-0.7385,-0.7737,-0.7588,-0.8174,-0.8535,0.0,0.0,0.0,0.0,0.0,0.0,-0.9871,-0.9885,-1.005,-1.0419,-1.0485,-1.0608,-1.0811,-1.1023,-1.1104,-1.1057,-1.1208,-1.125,-1.1198,-1.125,-1.1663,-1.2438,-1.2501,-1.2915,-1.3768,-1.4754,-1.4942,-1.4689,-1.5595,-1.5854,-1.5784,-1.6062,-1.6159,-1.6285,0.0,0.0,0.0,0.0,0.0,0.0,0.0,0.0,0.0,0.0,0.0,-0.1751,-0.1868,0.0,-0.1907,-0.1971,-0.2091,-0.21,0.0,0.0,-0.219,-0.2134,-0.2189,-0.2221,-0.2221,-0.3611,0.0,0.0,0.0,0.0,0.0,0.0,0.0,0.0,0.0,0.0,0.0,0.0,0.0,0.0,0.0,0.0,0.0,0.0,0.0,0.0,0.0,0.0,0.0,0.0,0.0,0.0,0.0,0.0,0.0,0.0,0.0,0.0,0.0,0.0,0.0,0.0,0.0,0.0,0.0,0.0,0.0,0.0,0.0,0.0,0.0,0.0,0.0,0.0,0.0,0.0,0.0,0.0,0.0,-0.7863,-0.8657,0.0,0.0,0.0,0.0,-0.9889,-1.0102,-1.0315,-1.0518,-1.0527,-1.0631,-1.0858,-1.1052,-1.125,-1.1468,-1.1671,-1.1676,-1.1487,-1.1496,-1.1392,-1.1203,-1.1411,-1.1501,-1.1611,-1.1806,-1.1887,-1.2074,-1.3851,-1.4479,-1.4166,-1.4406,-1.4346,-1.4124,-1.5279,-1.567,-1.5765,0.0,0.0,0.0,-0.1393,-0.1389,-0.1408,-0.1468,-0.1557,-0.1613,-0.1696,-0.174,-0.1781,0.0,-0.1792,-0.1808,-0.1905,0.0,0.0,0.0,0.0,-0.2109,-0.2127,-0.2187,-0.2221,-0.2221,-0.362,-0.4229,0.0,0.0,0.0,0.0,0.0,0.0,0.0,0.0,0.0,0.0,0.0,0.0,0.0,0.0,0.0,0.0,0.0,0.0,0.0,0.0,0.0,0.0,0.0,0.0,0.0,0.0,0.0,0.0,0.0,0.0,0.0,0.0,0.0,0.0,0.0,0.0,0.0,0.0,0.0,0.0,0.0,0.0,0.0,0.0,0.0,0.0,0.0,0.0,0.0,0.0,0.0,0.0,-0.8156,-0.8972,0.0,-0.8874,-0.9538,-0.9995,-0.9976,-1.0262,-1.0617,-1.0957,-1.0976,-1.1132,-1.1477,-1.1557,-1.1633,-1.1709,-1.1784,-1.1784,-1.1709,-1.1709,-1.1671,-1.16,-1.1676,-1.1709,-1.1713,-1.1789,-1.1817,-1.1822,-1.2708,-1.3211,-1.3696,-1.4483,-1.466,-1.4576,-1.4979,-1.5177,-1.5177,-0.1377,-0.1389,0.0,-0.1389,-0.1389,-0.1415,-0.1542,-0.159,-0.1644,-0.1726,-0.1773,-0.1789,0.0,0.0,0.0,0.0,0.0,0.0,0.0,0.0,-0.2012,-0.2095,-0.2176,-0.2221,-0.2221,-0.3326,0.0,0.0,0.0,0.0,0.0,0.0,0.0,0.0,0.0,0.0,0.0,0.0,0.0,0.0,0.0,0.0,-0.644,0.0,0.0,0.0,0.0,0.0,0.0,0.0,0.0,0.0,0.0,0.0,0.0,0.0,0.0,0.0,0.0,0.0,0.0,0.0,0.0,0.0,0.0,0.0,0.0,0.0,0.0,0.0,0.0,0.0,0.0,0.0,0.0,0.0,0.0,0.0,-0.8897,-0.8369,-0.9253,-0.9691,-0.9097,-0.9958,-1.0421,-1.0209,-1.0679,-1.1042,-1.1387,-1.1406,-1.1529,-1.1808,-1.1888,-1.1926,-1.1926,-1.1992,-1.1992,-1.1926,-1.1926,-1.1888,-1.1817,-1.1893,-1.1926,-1.1931,-1.1997,-1.2025,-1.2039,-1.2181,-1.2573,-1.3164,-1.3784,-1.409,-1.4079,-1.4413,-1.4487,-1.4487,-0.1377,-0.1389,-0.1389,-0.1389,-0.139,-0.1431,-0.1597,-0.1617,-0.1661,-0.1782,-0.1797,-0.1774,0.0,0.0,0.0,0.0,0.0,0.0,0.0,-0.1962,-0.2099,-0.1981,-0.2157,-0.2221,-0.2221,0.0,0.0,0.0,0.0,0.0,0.0,0.0,0.0,0.0,0.0,0.0,0.0,0.0,0.0,0.0,0.0,0.0,-0.64,0.0,0.0,0.0,0.0,0.0,0.0,0.0,0.0,0.0,0.0,0.0,0.0,0.0,0.0,0.0,0.0,0.0,0.0,0.0,0.0,0.0,0.0,0.0,0.0,0.0,0.0,0.0,0.0,0.0,0.0,0.0,0.0,0.0,-0.7994,-0.9195,-0.9552,-0.8512,-0.9678,-1.0228,-0.9315,-1.0295,-1.0899,-1.0801,-1.1206,-1.1614,-1.1817,-1.1827,-1.1831,-1.1836,-1.2039,-1.2148,-1.2148,-1.2342,-1.2342,-1.2148,-1.2148,-1.2039,-1.1846,-1.2054,-1.2148,-1.2157,-1.2356,-1.2441,-1.2441,-1.2441,-1.2441,-1.2441,-1.2441,-1.2441,-1.2521,-1.3376,-1.3609,-1.3609,-0.1369,-0.1389,-0.1389,-0.1389,-0.1424,-0.1478,-0.1604,-0.1653,-0.1708,-0.1786,-0.1797,0.0,0.0,0.0,0.0,0.0,0.0,-0.1703,-0.1792,-0.1922,-0.2092,-0.2166,-0.2203,0.0,0.0,0.0,0.0,0.0,0.0,0.0,0.0,0.0,0.0,0.0,0.0,0.0,0.0,0.0,0.0,0.0,0.0,0.0,-0.6416,0.0,0.0,0.0,0.0,0.0,0.0,0.0,0.0,0.0,0.0,0.0,0.0,0.0,0.0,0.0,0.0,0.0,0.0,0.0,0.0,0.0,0.0,0.0,0.0,0.0,0.0,0.0,0.0,0.0,0.0,0.0,-0.5855,-0.7365,-0.8595,-0.9518,-0.998,-0.9423,-1.0041,-1.0369,-0.9782,-1.0694,-1.1269,-1.1025,-1.1415,-1.1827,-1.2039,-1.2049,-1.212,-1.2261,-1.2328,-1.2356,-1.2356,-1.2413,-1.2413,-1.2356,-1.2356,-1.2323,-1.2271,-1.2328,-1.2356,-1.2361,-1.2413,-1.2441,-1.2441,-1.2441,-1.2441,-1.2441,-1.2441,-1.2441,-1.2432,-1.2699,-1.2783,-1.2783,-0.1366,-0.1389,-0.1389,-0.1389,-0.1437,-0.1545,-0.1606,-0.1668,-0.1728,-0.1789,-0.1797,0.0,0.0,0.0,0.0,0.0,0.0,-0.1641,-0.1679,-0.181,-0.1989,0.0,0.0,0.0,0.0,0.0,0.0,0.0,0.0,0.0,0.0,0.0,0.0,0.0,0.0,0.0,0.0,0.0,0.0,0.0,0.0,0.0,-0.6428,-0.6382,-0.5697,-0.461,-0.4622,-0.4628,-0.4625,-0.4622,0.0,0.0,0.0,0.0,0.0,0.0,0.0,0.0,0.0,0.0,0.0,0.0,0.0,0.0,0.0,0.0,0.0,0.0,0.0,0.0,0.0,0.0,0.0,0.0,-0.566,-0.7224,-0.8524,-0.9722,-1.0373,-1.0005,-1.0462,-1.0712,-1.0328,-1.1116,-1.1578,-1.1358,-1.168,-1.2044,-1.2252,-1.2266,-1.2318,-1.2436,-1.2441,-1.2441,-1.2441,-1.2441,-1.2441,-1.2441,-1.2441,-1.2441,-1.2441,-1.2441,-1.2441,-1.2441,-1.2441,-1.2441,-1.2441,-1.2441,-1.2441,-1.2441,0.0,0.0,0.0,0.0,-1.2441,-1.2332,-0.1378,-0.1404,-0.1408,-0.1408,-0.1457,-0.1563,-0.1617,-0.1677,-0.1736,-0.179,0.0,0.0,0.0,0.0,0.0,0.0,0.0,-0.1639,0.0,0.0,0.0,-0.2151,0.0,0.0,0.0,0.0,0.0,0.0,0.0,0.0,0.0,0.0,0.0,0.0,0.0,0.0,0.0,0.0,0.0,0.0,0.0,0.0,-0.5899,-0.5922,-0.4356,-0.22,-0.2202,-0.2202,-0.2202,-0.2202,0.0,0.0,0.0,0.0,0.0,0.0,0.0,0.0,0.0,0.0,0.0,0.0,0.0,0.0,0.0,0.0,0.0,0.0,0.0,0.0,0.0,0.0,0.0,0.0,-0.5844,-0.7318,-0.8115,-0.9765,-1.0637,-1.0145,-1.0874,-1.1318,-1.0712,-1.1415,-1.1826,-1.17,-1.1949,-1.2252,-1.2427,-1.2441,0.0,0.0,0.0,-1.2441,-1.2441,-1.2441,-1.2441,-1.2441,-1.2441,-1.2441,-1.2441,-1.2441,-1.2441,-1.2441,-1.2441,-1.2441,-1.2441,-1.2441,-1.2441,-1.2441,-1.2441,-1.2441,-1.2441,-1.2441,-1.2441,-1.2441,-0.1447,-0.1546,-0.158,-0.158,-0.1631,-0.1674,-0.1687,-0.174,-0.1783,-0.1796,-0.1797,0.0,0.0,0.0,0.0,0.0,0.0,0.0,0.0,0.0,0.0,0.0,0.0,0.0,0.0,0.0,0.0,0.0,0.0,0.0,0.0,0.0,0.0,0.0,0.0,0.0,0.0,0.0,0.0,0.0,0.0,0.0,-0.3002,-0.3009,-0.2676,-0.2206,-0.2214,-0.2217,-0.2217,-0.2217,-0.2217,-0.2214,-0.2203,0.0,0.0,0.0,0.0,0.0,0.0,0.0,0.0,0.0,0.0,0.0,0.0,0.0,0.0,0.0,0.0,0.0,0.0,0.0,0.0,-0.4404,-0.5759,-0.7158,-0.8255,-0.9559,-1.0356,-1.0062,-1.0861,-1.1318,-1.0712,-1.1544,-1.199,-1.2032,-1.2182,-1.2398,-1.2436,-1.2441,-1.2441,-1.2441,-1.2441,-1.2441,-1.2441,-1.2441,-1.2441,-1.2441,-1.2441,0.0,-1.2441,-1.2441,-1.2441,-1.2441,-1.2441,-1.2441,-1.2441,-1.2441,-1.2441,-1.2441,-1.2441,-1.2441,-1.2441,-1.2441,-1.2441,-1.2441,-0.1609,-0.1616,-0.1616,-0.1616,-0.1666,-0.1717,-0.1747,-0.1801,-0.185,-0.188,-0.1858,0.0,0.0,0.0,0.0,0.0,0.0,0.0,0.0,0.0,0.0,0.0,0.0,0.0,0.0,0.0,0.0,0.0,0.0,0.0,0.0,0.0,0.0,0.0,0.0,0.0,0.0,0.0,0.0,0.0,0.0,0.0,-0.1992,-0.2154,-0.2186,-0.2214,-0.222,-0.2221,-0.2221,-0.2221,-0.2221,-0.2221,-0.2221,-0.2196,-0.2244,0.0,0.0,0.0,0.0,0.0,0.0,0.0,0.0,0.0,0.0,0.0,0.0,0.0,0.0,-0.2826,-0.2826,0.0,-0.3249,-0.3761,-0.4997,-0.6062,-0.6517,-0.7819,-0.9114,-1.0117,-1.0773,-1.1155,-1.1057,-1.1622,-1.2075,-1.229,-1.238,-1.2441,-1.2441,-1.2441,-1.2441,-1.2441,-1.2441,-1.2441,-1.2441,-1.2441,-1.2441,-1.2441,-1.2441,-1.2441,-1.2441,-1.2441,-1.2441,-1.2441,-1.2441,-1.2441,-1.2441,-1.2441,-1.2441,-1.2441,-1.2441,-1.2441,-1.2441,-1.2441,-1.2441,-1.2441,-0.1722,-0.1684,-0.1651,-0.1651,-0.1692,-0.1744,-0.1804,-0.1852,-0.1903,-0.1965,-0.1929,-0.1882,-0.1837,-0.1788,-0.1688,0.0,0.0,0.0,0.0,0.0,0.0,0.0,0.0,0.0,0.0,0.0,0.0,0.0,0.0,0.0,0.0,0.0,0.0,0.0,0.0,0.0,0.0,0.0,0.0,0.0,0.0,0.0,-0.1838,-0.1884,-0.2067,-0.2186,-0.2199,-0.2203,-0.2204,-0.2217,-0.2221,-0.2221,-0.2221,-0.2196,-0.2177,-0.2117,-0.2081,0.0,0.0,0.0,0.0,0.0,0.0,0.0,0.0,0.0,-0.2728,-0.2728,-0.2869,-0.2993,-0.2993,-0.3083,-0.3157,-0.3354,-0.4388,-0.5131,-0.5133,-0.6229,-0.772,-0.941,-1.003,-1.0356,-1.056,-1.1005,-1.1332,-1.1551,-1.1551,-1.1664,-1.1996,-1.1996,-1.2105,-1.2436,-1.2441,-1.2441,-1.2441,-1.2441,-1.2441,-1.2441,-1.2441,-1.2441,-1.2441,-1.2441,-1.2441,-1.2441,-1.2441,-1.2441,-1.2441,-1.2441,-1.2441,-1.2441,-1.2441,-1.2441,-1.2441,-1.2441,-1.2441,-1.2441,-0.1777,-0.1782,-0.1777,-0.1777,-0.1782,-0.1807,-0.1862,-0.1877,-0.1903,-0.1965,-0.1966,-0.1959,-0.1954,-0.1946,-0.1838,-0.1506,0.0,0.0,0.0,0.0,0.0,0.0,0.0,0.0,0.0,0.0,0.0,0.0,0.0,0.0,0.0,0.0,0.0,0.0,0.0,0.0,0.0,0.0,0.0,0.0,0.0,0.0,-0.1719,-0.1249,-0.1516,-0.2187,-0.2183,-0.2203,-0.2212,-0.2203,-0.2221,-0.2221,-0.2221,-0.2196,-0.2042,-0.1081,0.0,-0.081,-0.077,-0.1245,-0.1799,-0.2398,-0.2582,-0.2604,0.0,0.0,-0.2854,-0.2854,-0.2996,-0.312,-0.312,-0.3174,-0.3521,-0.442,-0.4728,-0.5131,-0.6126,-0.6423,-0.662,-0.6822,-0.7558,-0.7935,-0.7728,-0.8183,-0.8455,-0.8455,-0.8455,-0.901,-1.0343,-1.0453,-1.1004,-1.2332,-1.2441,-1.2441,-1.2441,-1.2441,-1.2441,-1.2441,-1.2441,-1.2441,-1.2441,-1.2441,-1.2441,-1.2441,-1.2441,-1.2441,-1.2441,-1.2441,-1.2441,-1.2441,-1.2441,-1.2441,-1.2441,-1.2441,-1.2441,-1.2441,-0.1792,-0.1797,-0.1797,-0.1797,-0.1824,-0.1865,-0.1925,-0.1965,-0.201,-0.2134,-0.211,-0.2088,-0.2088,-0.187,-0.1623,-0.1542,-0.1276,0.0,0.0,0.0,0.0,0.0,0.0,0.0,0.0,0.0,0.0,0.0,0.0,0.0,0.0,0.0,0.0,0.0,0.0,0.0,0.0,0.0,0.0,0.0,0.0,0.0,-0.1512,-0.1425,-0.1624,-0.1984,-0.1977,-0.2086,0.0,0.0,-0.2221,-0.2221,-0.2221,-0.1302,-0.0211,0.0284,0.0437,0.0,-0.0855,-0.144,-0.1795,0.0,-0.2654,-0.2704,-0.2695,-0.2759,-0.2831,-0.2867,-0.2959,-0.3056,-0.3127,-0.3161,-0.3288,0.0,-0.3833,-0.4033,-0.4429,-0.4529,-0.4529,-0.4529,-0.4886,-0.5732,-0.7098,-0.7536,-0.7796,-0.8014,-0.8348,-0.8793,-0.9457,-0.9794,-1.0457,-1.1564,-1.1673,-1.1891,-1.2441,-1.2441,-1.2441,-1.2441,-1.2441,-1.2441,-1.2441,-1.2441,-1.2441,-1.2441,-1.2441,-1.2441,-1.2441,-1.2441,-1.2441,-1.2441,-1.2441,-1.2441,-1.2441,-1.2441,-1.2441,-1.2441,-0.1793,-0.1797,-0.1797,-0.1797,-0.1843,-0.1895,-0.194,-0.1999,-0.2124,-0.2187,-0.2171,-0.2154,-0.2154,-0.1794,-0.1595,-0.1562,-0.124,-0.112,0.0,0.0,0.0,0.0,0.0,0.0,0.0,0.0,0.0,0.0,0.0,0.0,0.0,0.0,0.0,0.0,0.0,0.0,0.0,0.0,0.0,0.0,0.0,0.0,-0.1263,-0.1545,-0.1614,-0.1584,-0.1845,-0.2013,0.0,0.0,-0.2221,-0.2087,-0.148,-0.0204,0.1112,0.1129,0.1176,0.092,-0.0619,0.0,0.0,-0.2186,-0.2584,-0.2743,-0.2681,-0.2728,-0.279,-0.2818,-0.2895,-0.2991,-0.3095,-0.3128,-0.3165,-0.3243,-0.3241,-0.3236,-0.3253,-0.3241,-0.3237,-0.3253,-0.3349,-0.4159,-0.5979,-0.6362,-0.6581,-0.68,-0.7243,-0.7689,-0.8244,-0.8689,-0.9464,-1.0684,-1.0684,-1.1122,-1.2001,-1.2001,-1.211,-1.2441,-1.2441,-1.2441,-1.2441,-1.2441,-1.2441,-1.2441,-1.2441,-1.2441,-1.2441,-1.2441,-1.2441,-1.2441,-1.2441,-1.2441,-1.2441,-1.2441,-1.2441,-1.2441,-0.1785,-0.1797,-0.1797,-0.1797,-0.1843,-0.1882,-0.1884,-0.1936,-0.1996,-0.2123,-0.2182,-0.2218,-0.2218,-0.2014,-0.1812,-0.1612,-0.1411,-0.1209,-0.1076,-0.1076,0.0,0.0,0.0,0.0,0.0,0.0,0.0,0.0,0.0,0.0,0.0,0.0,0.0,0.0,0.0,0.0,0.0,0.0,0.0,0.0,0.0,0.0,-0.114,-0.1138,-0.1072,-0.1065,-0.1894,0.0,0.0,0.0,-0.2221,-0.1817,0.0336,0.1076,0.0,0.1148,0.1209,0.1171,0.0,0.0,-0.0889,-0.1579,-0.2197,-0.2679,-0.2619,-0.2698,-0.2767,-0.271,-0.2837,-0.2977,-0.3134,-0.31,-0.3179,-0.3298,-0.3268,-0.3252,-0.3311,-0.3267,-0.3252,-0.3312,-0.3373,-0.3433,-0.3597,-0.3661,-0.3698,-0.3698,-0.3699,-0.4589,-0.67,-0.6813,-0.7695,-0.9798,-0.9798,-1.0241,-1.1126,-1.1126,-1.1564,-1.2441,-1.2441,-1.2441,-1.2441,-1.2441,-1.2441,-1.2441,-1.2441,-1.2441,-1.2441,-1.2441,-1.2441,-1.2441,-1.2441,-1.2441,-1.2441,-1.2441,-1.2441,-1.2441,-0.2289,-0.2406,-0.2517,-0.2907,-0.2988,-0.2895,-0.2499,-0.2203,-0.1993,-0.212,-0.2574,0.0,0.0,0.0,0.0,0.0,-0.1412,-0.121,-0.1076,-0.1076,0.0,0.0,0.0,0.0,0.0,0.0,0.0,0.0,0.0,0.0,0.0,0.0,0.0,0.0,0.0,0.0,0.0,0.0,0.0,0.0,0.0,0.0,-0.1161,-0.1191,-0.0691,-0.0206,0.0,0.0,0.0,0.0,-0.121,0.0134,0.0874,0.0,0.0,0.122,0.1255,0.1049,0.0453,0.0,-0.0396,-0.1414,-0.1848,-0.2133,-0.2525,-0.2602,-0.2608,-0.2628,-0.268,-0.2777,-0.2956,-0.3006,-0.3072,-0.3234,-0.3244,-0.3252,-0.3313,-0.3304,-0.3313,-0.3375,-0.3433,-0.3476,-0.3495,-0.3552,0.0,-0.3587,-0.3921,-0.4702,-0.5815,-0.626,-0.726,-0.8923,-0.8923,-0.9361,-1.0241,-1.0241,-1.068,-1.1564,-1.211,-1.2441,-1.2441,-1.2441,-1.2441,-1.2441,-1.2441,-1.2441,-1.2441,-1.2441,-1.2441,-1.2441,-1.2441,-1.2441,-1.2441,-1.2441,-1.2441,-1.2441,-0.2999,-0.3069,-0.3251,-0.3689,-0.3754,0.0,0.0,0.0,0.0,0.0,0.0,0.0,0.0,0.0,0.0,0.0,0.0,-0.1344,-0.1143,0.0,0.0,0.0,0.0,0.0,0.0,0.0,0.0,0.0,0.0,0.0,0.0,0.0,0.0,0.0,0.0,0.0,0.0,0.0,0.0,0.0,0.0,0.0,-0.1224,-0.1259,-0.0581,0.0,0.0,0.0,0.0,0.0,0.0,0.0,0.0,0.0,0.1129,0.123,0.1247,0.1034,0.0663,0.038,-0.0078,-0.1075,-0.1497,-0.1864,-0.2413,-0.2538,-0.2527,-0.2589,-0.2619,-0.2695,-0.2891,-0.2962,-0.305,-0.3233,-0.3263,-0.3292,-0.3372,-0.3367,-0.3376,-0.3436,-0.3474,-0.3504,-0.3526,0.0,0.0,-0.3587,-0.4145,-0.4814,-0.5371,-0.5929,-0.6818,-0.8042,-0.8042,-0.8481,-0.9361,-0.9361,-0.9911,-1.1126,-1.1673,-1.211,-1.2441,-1.2441,-1.2441,-1.2441,-1.2441,-1.2441,-1.2441,-1.2441,-1.2441,-1.2441,-1.2441,-1.2441,-1.2441,-1.2441,-1.2441,-1.2441,-0.3823,-0.387,-0.3907,0.0,0.0,0.0,0.0,0.0,0.0,0.0,0.0,0.0,0.0,0.0,0.0,0.0,0.0,0.0,0.0,0.0,0.0,0.0,0.0,0.0,-0.0969,-0.0969,0.0,0.0,0.0,0.0,0.0,0.0,0.0,0.0,0.0,0.0,0.0,0.0,0.0,0.0,0.0,0.0,-0.1338,-0.1336,0.0,0.0,0.0,0.0,0.0,0.0,0.0,0.0,0.0,0.0,0.0,0.1249,0.1259,0.1195,0.1138,0.0667,0.0077,-0.0517,-0.1156,-0.1774,-0.2366,-0.2512,-0.2531,-0.259,-0.265,-0.2729,-0.2852,0.0,-0.3108,-0.3288,-0.3322,-0.3367,-0.348,-0.345,-0.3437,0.0,0.0,0.0,0.0,0.0,0.0,-0.3699,0.0,-0.4702,-0.5371,-0.5929,-0.6596,-0.7154,-0.7154,-0.7598,-0.8374,-0.8484,-0.9368,-1.1017,-1.1126,-1.1564,-1.2441,-1.2441,-1.2441,-1.2441,-1.2441,-1.2441,-1.2441,-1.2441,-1.2441,-1.2441,-1.2441,-1.2441,-1.2441,-1.2441,-1.2441,-1.2441,0.0,0.0,0.0,0.0,0.0,0.0,0.0,0.0,0.0,0.0,0.0,0.0,0.0,0.0,0.0,0.0,0.0,0.0,0.0,0.0,0.0,0.0,0.0,0.0,0.0,0.0,0.0,0.0,0.0,0.0,0.0,0.0,0.0,0.0,0.0,0.0,0.0,0.0,0.0,0.0,0.0,0.0,-0.1288,0.0,0.0,0.0,0.0,0.0,0.0,0.0,0.0,0.0,0.0,0.0,0.125,0.0,0.0,0.1146,0.1153,0.1025,0.0595,-0.0449,-0.0771,-0.1186,-0.2278,-0.2545,-0.2582,-0.2598,-0.265,-0.2729,-0.2852,-0.297,0.0,-0.3232,-0.333,0.0,-0.3486,-0.3484,0.0,-0.3557,0.0,-0.3571,-0.3586,-0.3587,0.0,0.0,-0.4033,-0.4257,-0.5371,-0.5594,-0.6151,-0.7154,-0.7154,-0.7265,-0.7487,-0.8152,-0.9034,-1.0131,-1.0794,-1.1564,-1.2441,-1.2441,-1.2441,-1.2441,-1.2441,-1.2441,-1.2441,-1.2441,-1.2441,-1.2441,-1.2441,-1.2441,-1.2441,-1.2441,-1.2441,-1.2441,0.0,0.0,0.0,0.0,0.0,0.0,0.0,0.0,0.0,0.0,0.0,0.0,0.0,0.0,0.0,0.0,0.0,0.0,0.0,0.0,0.0,0.0,0.0,0.0,0.0,0.0,0.0,0.0,0.0,0.0,0.0,0.0,0.0,0.0,0.0,0.0,0.0,0.0,0.0,0.0,0.0,0.0,0.0,0.0,0.0,0.0,0.0,0.0,0.0,0.0,0.0,0.1184,0.1243,0.1323,0.1258,0.1243,0.0,0.0984,0.0571,0.0506,0.0292,-0.0742,-0.1071,-0.1334,-0.2275,-0.2557,-0.2609,-0.2635,-0.2689,0.0,-0.2857,-0.2992,0.0,0.0,0.0,0.0,-0.3527,-0.3537,-0.3549,0.0,-0.3587,0.0,-0.3587,-0.3587,-0.381,0.0,-0.448,-0.4814,-0.5706,-0.604,-0.6485,-0.7154,-0.7154,-0.7154,-0.7154,-0.7709,-0.8371,-0.9251,-1.0131,-1.1013,-1.1891,-1.2219,-1.2441,-1.2441,-1.2441,-1.2441,-1.2441,-1.2441,-1.2441,-1.2441,-1.2441,-1.2441,-1.2441,-1.2441,-1.2441,-1.2441,0.0,0.0,0.0,0.0,0.0,0.0,0.0,0.0,0.0,-0.5071,0.0,0.0,0.0,0.0,0.0,0.0,0.0,0.0,0.0,0.0,0.0,0.0,0.0,0.0,0.0,0.0,0.0,0.0,0.0,0.0,0.0,0.0,0.0,0.0,0.0,0.0,0.0,0.0,0.0,0.0,0.0,0.0,0.0,0.0,0.0,0.0,0.0,0.0,0.0,0.0,0.1139,0.1283,0.1328,0.1259,0.127,0.1168,0.1139,0.0907,-0.0,-0.0357,-0.0584,-0.1318,-0.1517,-0.1724,-0.2353,-0.2557,-0.2619,-0.268,0.0,-0.2804,-0.2873,-0.3025,-0.3162,-0.3232,0.0,-0.3518,-0.3579,-0.3587,-0.3587,-0.3587,-0.3587,-0.3587,-0.3587,-0.3587,-0.3923,-0.459,-0.5148,-0.5706,-0.6262,-0.6818,-0.7154,-0.7154,-0.7154,-0.7154,-0.7154,-0.7154,-0.7598,-0.8484,-0.9251,-1.0131,-1.1126,-1.1891,-1.2332,-1.2441,-1.2441,-1.2441,-1.2441,-1.2441,-1.2441,-1.2441,-1.2441,-1.2441,-1.2441,-1.2441,-1.2441,-1.2441,0.0,0.0,0.0,0.0,0.0,0.0,0.0,-0.4623,-0.4488,-0.5014,-0.5765,-0.6079,-0.5613,0.0,0.0,0.0,0.0,0.0,0.0,0.0,0.0,0.0,0.0,0.0,0.0,0.0,0.0,0.0,0.0,0.0,0.0,0.0,0.0,0.0,0.0,0.0,0.0,0.0,0.0,0.0,0.0,0.0,0.0,0.0,0.0,0.0,0.0,0.0,0.0,0.0,0.0693,0.1286,0.1281,0.1246,0.1136,0.113,0.1177,0.1225,0.0905,-0.05,-0.1832,-0.1422,-0.1459,-0.1724,-0.2353,-0.2557,0.0,0.0,-0.274,-0.2816,-0.2924,-0.305,0.0,-0.3288,0.0,0.0,0.0,0.0,-0.3587,0.0,0.0,0.0,0.0,-0.3587,0.0,0.0,-0.5371,-0.5706,-0.6262,-0.6374,-0.671,-0.7154,-0.7154,-0.7154,-0.7154,-0.7154,-0.7598,-0.8484,-0.8702,-0.9585,-1.1126,-1.1236,-1.1673,-1.2441,-1.2441,-1.2441,-1.2441,-1.2441,-1.2441,-1.2441,-1.2441,-1.2441,-1.2441,-1.2441,-1.2441,-1.2441,0.0,0.0,0.0,0.0,0.0,0.0,0.0,-0.4125,-0.417,-0.4611,-0.4997,-0.5484,-0.5881,-0.4951,-0.4087,0.0,0.0,0.0,0.0,0.0,0.0,0.0,0.0,0.0,0.0,0.0,0.0,0.0,0.0,0.0,0.0,0.0,0.0,0.0,0.0,0.0,0.0,0.0,0.0,0.0,0.0,0.0,0.0,0.0,0.0,0.0,0.0,0.0,0.0,0.0,-0.0,0.0076,0.0909,0.1181,0.1076,0.1091,0.1124,0.1154,0.1132,-0.0577,-0.2196,-0.1927,-0.1985,-0.2117,-0.2431,0.0,0.0,0.0,-0.2766,-0.2857,-0.2941,0.0,0.0,0.0,0.0,0.0,0.0,0.0,0.0,0.0,0.0,0.0,0.0,-0.3923,-0.448,-0.5371,-0.5706,-0.6151,-0.6707,-0.6821,-0.693,-0.7154,-0.7154,-0.7154,-0.7154,-0.7154,-0.7376,-0.782,-0.8263,-0.9144,-1.046,-1.0907,-1.1564,-1.2441,-1.2441,-1.2441,-1.2441,-1.2441,-1.2441,-1.2441,-1.2441,-1.2441,-1.2441,-1.2441,-1.2441,-1.2441,0.0,0.0,0.0,0.0,0.0,0.0,0.0,-0.3666,-0.3796,-0.3974,-0.3996,-0.4524,-0.5815,-0.4818,-0.4018,0.0,0.0,0.0,0.0,0.0,0.0,0.0,0.0,0.0,0.0,0.0,0.0,0.0,0.0,0.0,0.0,0.0,0.0,0.0,0.0,0.0,0.0,0.0,0.0,0.0,0.0,0.0,0.0,0.0,0.0,0.0,0.0,0.0,0.0,0.0,-0.0775,-0.0993,-0.0,0.0672,0.1025,0.0523,0.036,0.0345,0.036,-0.0952,-0.2356,-0.2428,-0.2433,-0.2511,-0.2511,-0.2594,0.0,0.0,-0.2779,-0.288,-0.2962,0.0,0.0,0.0,0.0,0.0,0.0,0.0,0.0,0.0,0.0,0.0,0.0,0.0,0.0,-0.5371,-0.604,-0.671,-0.7154,-0.7154,-0.7154,-0.7154,-0.7154,-0.7154,-0.7154,-0.7154,-0.7154,-0.7154,-0.7931,-0.8809,-0.9798,-1.046,-1.1455,-1.2441,-1.2441,-1.2441,-1.2441,-1.2441,-1.2441,-1.2441,-1.2441,-1.2441,-1.2441,-1.2441,-1.2441,-1.2441,0.0,0.0,0.0,0.0,0.0,0.0,0.0,-0.242,-0.2359,-0.313,-0.3226,-0.3522,-0.4408,-0.3751,-0.3282,0.0,0.0,0.0,0.0,0.0,0.0,0.0,0.0,0.0,0.0,0.0,0.0,0.0,0.0,0.0,0.0,0.0,0.0,0.0,0.0,0.0,0.0,0.0,0.0,0.0,0.0,0.0,0.0,0.0,0.0,0.0,0.0,0.0,0.0,0.0,0.0,-0.0861,-0.1877,-0.0605,0.0875,-0.1243,0.0,0.0,-0.1967,-0.2078,-0.2342,-0.2488,-0.2462,-0.2511,-0.2511,0.0,0.0,-0.2681,-0.2745,-0.2842,-0.301,-0.3049,-0.3113,0.0,0.0,0.0,0.0,0.0,0.0,0.0,0.0,0.0,0.0,0.0,0.0,-0.5371,-0.6485,-0.7154,-0.7154,-0.7154,-0.7154,-0.7154,-0.7154,-0.7154,-0.7154,-0.7154,-0.7154,-0.7154,-0.7265,-0.8146,-0.9798,-0.9908,-1.0789,-1.2441,-1.2441,-1.2441,-1.2441,-1.2441,-1.2441,-1.2441,-1.2441,-1.2441,-1.2441,-1.2441,-1.2441,-1.2441,0.0,0.0,0.0,0.0,0.0,0.0,-0.2224,-0.2067,-0.2074,-0.2376,-0.2523,-0.2656,-0.3019,-0.2753,-0.2753,-0.3151,0.0,0.0,0.0,0.0,0.0,0.0,0.0,0.0,0.0,0.0,0.0,0.0,0.0,0.0,0.0,0.0,0.0,0.0,0.0,0.0,0.0,0.0,0.0,0.0,0.0,0.0,0.0,0.0,0.0,0.0,0.0,0.0,0.0,0.0,0.0,0.0,-0.2353,-0.178,0.0,0.0,-0.2466,-0.249,-0.2377,-0.2405,-0.2421,-0.2497,-0.2466,-0.2511,-0.2511,0.0,-0.2662,-0.2687,-0.277,-0.2882,-0.3023,-0.3144,-0.3097,-0.3243,-0.3318,-0.3377,0.0,0.0,0.0,0.0,0.0,0.0,0.0,0.0,-0.5483,-0.6374,-0.6932,-0.7154,-0.7154,-0.7154,-0.7154,-0.7154,-0.7154,-0.7154,-0.7154,-0.7154,-0.7154,-0.7154,-0.7154,-0.8146,-0.9798,-0.9798,-1.0789,-1.2441,-1.2441,-1.2441,-1.2441,-1.2441,-1.2441,-1.2441,-1.2441,-1.2441,-1.2441,-1.2441,-1.2441,-1.2441,0.0,0.0,0.0,0.0,0.0,-0.2327,-0.1878,-0.1907,-0.1978,-0.1996,-0.2138,-0.22,-0.2218,-0.2221,-0.2421,-0.2885,-0.2487,0.0,0.0,0.0,0.0,0.0,0.0,0.0,0.0,0.0,0.0,0.0,0.0,0.0,0.0,0.0,0.0,0.0,0.0,0.0,0.0,0.0,0.0,0.0,0.0,0.0,0.0,0.0,0.0,0.0,0.0,0.0,0.0,0.0,0.0,0.0,0.0,0.0,0.0,0.0,-0.2529,-0.2471,-0.2512,-0.2523,-0.2523,-0.2523,-0.248,-0.2515,0.0,-0.2617,-0.2698,-0.2715,-0.2803,-0.2905,-0.3004,-0.3132,-0.3083,0.0,-0.3285,-0.3364,-0.3406,0.0,0.0,0.0,0.0,0.0,0.0,0.0,-0.604,-0.7154,-0.7154,-0.7154,-0.7154,-0.7154,-0.7154,-0.7154,-0.7154,-0.7154,-0.7154,-0.7154,-0.7154,-0.7154,-0.7487,-0.8367,-0.9798,-1.0017,-1.1008,-1.2441,-1.2441,-1.2441,-1.2441,-1.2441,-1.2441,-1.2441,-1.2441,-1.2441,-1.2441,-1.2441,-1.2441,-1.2441,0.0,0.0,0.0,0.0,0.0,0.0,-0.188,-0.1932,-0.1993,-0.2119,-0.2127,-0.2152,-0.2214,-0.2221,-0.2221,-0.2221,-0.2221,0.0,0.0,0.0,0.0,0.0,0.0,0.0,0.0,0.0,0.0,-0.2174,0.0,0.0,0.0,0.0,0.0,0.0,0.0,0.0,0.0,0.0,0.0,0.0,0.0,0.0,-0.3062,0.0,0.0,0.0,0.0,0.0,0.0,0.0,0.0,0.0,0.0,0.0,0.0,0.0,-0.251,-0.251,-0.251,-0.251,-0.251,-0.251,-0.251,-0.2526,0.0,-0.2649,-0.2709,-0.277,-0.2831,-0.2891,-0.2948,-0.3008,-0.307,-0.3131,-0.3293,-0.3412,-0.3413,0.0,0.0,0.0,0.0,0.0,0.0,0.0,-0.6596,-0.7154,-0.7154,0.0,-0.7154,-0.7154,-0.7154,-0.7154,-0.7154,-0.7154,-0.7154,-0.7154,-0.7154,-0.7154,-0.8042,-0.8923,-0.9798,-1.0684,-1.1564,-1.2441,-1.2441,-1.2441,-1.2441,-1.2441,-1.2441,-1.2441,-1.2441,-1.2441,-1.2441,-1.2441,-1.2441,-1.2441,0.0,0.0,0.0,0.0,0.0,0.0,0.0,-0.1995,-0.2105,-0.2124,-0.2165,-0.2199,-0.2218,-0.2221,-0.2221,-0.2221,-0.2221,0.0,0.0,0.0,0.0,0.0,0.0,0.0,0.0,0.0,-0.2174,-0.2174,-0.2215,-0.2337,0.0,0.0,0.0,0.0,0.0,0.0,0.0,0.0,0.0,0.0,0.0,-0.2982,-0.3141,0.0,0.0,0.0,0.0,0.0,0.0,0.0,0.0,0.0,0.0,0.0,0.0,-0.2663,-0.2506,0.0,-0.3923,-0.3372,-0.2506,-0.251,-0.254,-0.2574,-0.2597,-0.2681,-0.276,-0.2779,-0.2831,-0.2905,-0.3003,-0.3414,-0.3673,-0.3844,-0.3868,0.0,0.0,0.0,0.0,0.0,0.0,0.0,0.0,0.0,-0.6596,-0.7154,-0.7154,-0.7154,-0.7154,-0.7154,-0.7154,-0.7154,-0.7154,-0.7154,-0.7154,-0.7154,-0.7487,-0.8042,-0.8374,-0.9254,-1.0684,-1.1017,-1.1564,-1.2441,-1.2441,-1.2441,-1.2441,-1.2441,-1.2441,-1.2441,-1.2441,-1.2441,-1.2441,-1.2441,-1.2441,-1.2441,0.0,0.0,0.0,0.0,0.0,0.0,0.0,-0.2123,-0.2162,-0.2162,-0.2197,-0.2221,-0.2221,-0.2221,-0.2221,-0.2221,-0.2221,0.0,0.0,0.0,0.0,0.0,0.0,0.0,0.0,-0.2191,-0.221,-0.221,-0.2248,-0.2296,-0.2352,-0.2294,-0.2311,0.0,0.0,0.0,0.0,0.0,0.0,0.0,-0.3853,-0.4148,-0.4304,0.0,0.0,0.0,0.0,0.0,0.0,0.0,0.0,0.0,0.0,0.0,0.0,0.0,-0.3443,-0.368,0.0,-0.4235,-0.3444,-0.3452,-0.3033,-0.2683,-0.2792,-0.2796,-0.2789,-0.2812,-0.2847,-0.2903,-0.2997,-0.3504,-0.3959,-0.4033,-0.438,0.0,0.0,0.0,0.0,0.0,0.0,0.0,0.0,0.0,-0.6741,-0.7024,-0.7021,-0.7021,-0.7021,-0.7065,-0.7092,-0.7092,-0.7133,-0.7376,-0.7709,-0.7709,-0.8149,-0.9034,-0.9364,-1.0025,-1.1126,-1.1455,-1.1891,-1.2441,-1.2441,-1.2441,0.0,-1.2441,-1.2441,-1.2441,-1.2441,-1.2441,-1.2441,-1.2441,-1.2441,-1.2441,0.0,0.0,0.0,0.0,0.0,0.0,0.0,-0.2183,-0.2221,-0.2221,-0.2221,-0.2221,-0.2221,-0.2221,-0.2221,-0.2288,0.0,0.0,0.0,0.0,0.0,0.0,0.0,0.0,0.0,-0.2221,-0.2221,-0.2221,-0.2221,-0.2185,-0.2173,-0.2255,-0.2294,-0.2408,0.0,0.0,0.0,0.0,0.0,0.0,-0.5555,-0.5844,0.0,0.0,0.0,0.0,0.0,0.0,0.0,0.0,0.0,0.0,0.0,0.0,0.0,0.0,0.0,0.0,0.0,-0.5023,-0.5021,-0.5037,-0.3922,-0.2944,-0.3266,-0.3086,0.0,-0.2952,-0.2963,-0.2983,-0.3046,-0.3573,-0.4026,-0.402,-0.4625,0.0,0.0,0.0,0.0,0.0,0.0,0.0,0.0,0.0,-0.7034,-0.6918,-0.6909,-0.6909,-0.6909,-0.7017,-0.7083,-0.72,-0.7306,-0.7697,-0.8484,-0.8595,-0.9034,-0.9908,-1.0684,-1.1126,-1.1236,-1.2005,-1.2441,-1.2441,-1.2441,-1.2441,-1.2441,-1.2441,-1.2441,-1.2441,-1.2441,-1.2441,-1.2441,-1.2441,-1.2441,-1.2441,0.0,0.0,0.0,0.0,0.0,0.0,0.0,0.0,0.0,0.0,-0.2221,-0.2221,-0.2221,-0.2221,-0.2421,0.0,0.0,0.0,0.0,0.0,0.0,0.0,0.0,0.0,0.0,-0.2221,-0.2221,-0.2221,-0.2221,-0.2185,-0.2244,-0.2781,-0.3136,-0.3366,-0.3759,0.0,0.0,0.0,0.0,0.0,-0.5867,-0.6083,0.0,0.0,0.0,0.0,-0.6179,-0.5755,0.0,0.0,0.0,0.0,0.0,0.0,0.0,0.0,-0.4985,-0.4977,-0.4996,0.0,-0.504,-0.522,-0.5004,-0.4613,0.0,-0.368,0.0,0.0,0.0,-0.3447,-0.3663,-0.4458,-0.5126,-0.5275,-0.5476,0.0,0.0,0.0,0.0,0.0,0.0,0.0,0.0,0.0,-0.7784,-0.775,-0.775,-0.775,-0.775,-0.7781,-0.8162,-0.8915,-0.8949,-0.8808,-0.8484,-0.914,-0.9911,-1.0798,-1.1017,-1.1455,-1.211,-1.2327,-1.2441,-1.2441,-1.2441,-1.2441,-1.2441,-1.2441,-1.2441,-1.2441,-1.2441,-1.2441,-1.2441,-1.2441,-1.2441,-1.2441,0.0,0.0,0.0,0.0,0.0,0.0,0.0,0.0,0.0,0.0,0.0,-0.2221,-0.2221,-0.2487,0.0,0.0,0.0,0.0,0.0,0.0,0.0,0.0,0.0,0.0,-0.2221,-0.2221,-0.2221,-0.2221,-0.2487,-0.2639,-0.2679,-0.343,-0.3855,-0.4007,-0.4441,0.0,0.0,0.0,0.0,-0.6723,-0.7202,0.0,0.0,0.0,0.0,0.0,-0.7099,-0.6708,0.0,-0.5811,-0.5138,-0.4593,0.0,0.0,0.0,0.0,-0.6714,-0.6721,-0.6723,-0.5839,-0.51,-0.5426,-0.6005,-0.6254,-0.5259,0.0,0.0,0.0,0.0,0.0,-0.5181,0.0,0.0,0.0,-0.668,0.0,0.0,0.0,0.0,0.0,0.0,0.0,0.0,0.0,-0.8453,-0.8385,-0.8378,-0.8378,-0.8378,-0.8443,-0.8762,-0.9334,-0.9838,-0.9962,-0.9695,-1.0131,-1.0794,-1.1673,-1.1673,-1.1891,-1.2441,-1.2441,-1.2441,-1.2441,-1.2441,-1.2441,-1.2441,-1.2441,-1.2441,-1.2441,-1.2441,-1.2441,-1.2441,-1.2441,-1.2441,-1.2441,0.0,0.0,0.0,0.0,0.0,0.0,0.0,0.0,0.0,0.0,0.0,0.0,0.0,0.0,0.0,0.0,0.0,0.0,0.0,0.0,0.0,0.0,0.0,-0.2354,-0.2354,-0.2354,-0.2354,-0.2354,-0.3019,-0.3349,-0.3416,-0.4151,-0.4552,-0.4749,-0.5182,0.0,0.0,0.0,-0.7639,-0.8178,-0.8551,0.0,0.0,0.0,0.0,0.0,0.0,0.0,0.0,-0.6439,-0.5411,-0.4555,-0.4806,0.0,0.0,0.0,0.0,0.0,-0.8704,-0.7267,-0.5814,-0.5987,-0.6956,-0.7606,0.0,0.0,0.0,0.0,0.0,0.0,0.0,0.0,0.0,0.0,0.0,0.0,0.0,0.0,0.0,0.0,0.0,0.0,0.0,-0.9139,-0.9078,-0.9034,-0.9023,-0.9023,-0.9023,-0.906,-0.9316,-0.958,-1.0489,-1.0997,-1.1302,-1.1332,-1.1673,-1.2441,-1.2441,-1.2441,-1.2441,-1.2441,-1.2441,-1.2441,-1.2441,0.0,-1.2441,-1.2441,-1.2441,-1.2441,-1.2441,-1.2441,-1.2441,-1.2441,-1.2441,-1.2441,0.0,0.0,0.0,0.0,0.0,0.0,0.0,0.0,0.0,0.0,0.0,0.0,0.0,0.0,0.0,0.0,0.0,0.0,0.0,0.0,0.0,0.0,-0.3402,-0.3017,-0.3017,-0.3017,-0.3017,-0.3017,-0.3751,-0.4154,-0.4151,-0.4882,-0.5628,-0.6344,-0.7017,-0.7335,0.0,-0.7979,-0.8295,-0.8403,-0.8627,0.0,0.0,0.0,0.0,0.0,0.0,0.0,0.0,-0.7329,-0.6535,-0.5493,-0.4704,0.0,0.0,0.0,0.0,0.0,-0.8681,-0.8971,-0.8987,-0.8044,-0.7978,-0.8025,0.0,0.0,0.0,0.0,0.0,0.0,0.0,0.0,0.0,0.0,0.0,0.0,0.0,0.0,0.0,0.0,0.0,0.0,0.0,-0.9863,-0.985,-0.9821,-0.9821,-0.9821,-0.9821,-0.9846,-1.0245,-1.1148,-1.1447,-1.1759,-1.1968,-1.214,-1.2219,-1.2441,-1.2441,-1.2441,-1.2441,-1.2441,-1.2441,-1.2441,0.0,-1.2441,-1.2441,-1.2441,-1.2441,-1.2441,-1.2441,-1.2441,-1.2441,-1.2441,-1.2441,-1.2441,0.0,0.0,0.0,0.0,0.0,0.0,0.0,0.0,0.0,0.0,0.0,0.0,0.0,0.0,0.0,0.0,0.0,0.0,0.0,0.0,0.0,-0.5652,-0.4891,-0.4282,-0.3818,-0.3818,-0.3818,-0.3818,-0.455,-0.4882,-0.4885,-0.5702,-0.6519,-0.7189,-0.7607,-0.7864,-0.8045,-0.8362,-0.8479,-0.8403,0.0,0.0,0.0,0.0,0.0,0.0,0.0,0.0,0.0,0.0,-0.7192,-0.6777,-0.6702,0.0,0.0,0.0,0.0,0.0,-0.8697,-0.9331,-0.9947,-0.9814,-0.962,-0.9368,0.0,0.0,0.0,0.0,0.0,0.0,0.0,0.0,0.0,0.0,0.0,0.0,0.0,0.0,0.0,0.0,0.0,0.0,-1.0605,-1.0609,-1.0609,-1.0609,-1.0609,-1.0609,-1.0609,-1.0609,-1.0897,-1.151,-1.1713,-1.1921,-1.2139,-1.2337,-1.2441,-1.2441,-1.2441,-1.2441,-1.2441,-1.2441,-1.2441,-1.2441,0.0,-1.2441,-1.2441,-1.2441,-1.2441,-1.2441,-1.2441,-1.2441,-1.2441,-1.2441,-1.2441,-1.2441,0.0,0.0,0.0,0.0,0.0,0.0,0.0,0.0,0.0,0.0,0.0,0.0,0.0,0.0,0.0,0.0,0.0,0.0,0.0,0.0,-0.6834,-0.67,-0.613,-0.5433,-0.4556,-0.455,-0.4538,-0.4509,-0.5266,-0.5613,-0.5683,-0.6463,-0.7064,-0.7535,-0.7797,-0.8067,0.0,-0.8551,-0.8551,-0.8399,0.0,0.0,0.0,0.0,0.0,0.0,0.0,0.0,0.0,0.0,0.0,0.0,0.0,0.0,0.0,-0.8703,-0.8703,-0.8712,-0.8698,-0.9308,-1.0113,-1.0741,0.0,0.0,0.0,0.0,0.0,0.0,0.0,0.0,0.0,0.0,0.0,0.0,0.0,0.0,0.0,0.0,0.0,0.0,0.0,0.0,-1.1194,-1.1194,-1.1194,-1.1194,-1.1194,-1.1194,-1.1194,-1.1194,-1.1274,-1.1435,-1.1638,-1.1827,-1.1992,-1.2243,-1.2394,-1.2441,-1.2441,-1.2441,-1.2441,-1.2441,-1.2441,-1.2441,-1.255,-1.255,-1.2436,-1.2654,-1.2654,-1.2441,-1.255,-1.255,-1.2441,-1.2441,-1.2441,-1.2441,0.0,0.0,0.0,0.0,0.0,0.0,0.0,0.0,0.0,0.0,0.0,0.0,0.0,0.0,0.0,0.0,0.0,0.0,0.0,0.0,-0.6708,-0.6696,-0.6615,-0.618,-0.5348,-0.5345,-0.5215,-0.5018,-0.5875,-0.635,-0.6354,-0.6937,-0.7264,-0.7313,0.0,0.0,0.0,-0.8246,-0.8322,-0.8322,-0.8627,0.0,0.0,0.0,0.0,0.0,0.0,0.0,0.0,0.0,0.0,0.0,0.0,0.0,-0.8703,-0.8703,-0.8703,-0.8712,-0.8698,-0.9308,-1.0018,-1.0075,0.0,0.0,0.0,0.0,0.0,0.0,0.0,0.0,0.0,0.0,0.0,0.0,0.0,0.0,0.0,0.0,0.0,0.0,0.0,-1.1194,-1.1194,-1.1194,-1.1194,-1.1194,-1.1194,-1.1194,-1.1194,-1.1194,-1.1203,-1.1217,-1.1425,-1.1548,-1.1562,-1.1959,-1.2257,-1.2441,-1.2441,-1.2441,-1.2441,-1.2441,-1.2441,-1.2436,-1.2989,-1.2881,-1.2441,-1.3624,-1.3413,-1.2441,-1.2985,-1.2876,-1.2441,-1.2441,-1.2441,-1.2441,0.0,0.0,0.0,0.0,0.0,0.0,0.0,0.0,0.0,0.0,0.0,0.0,0.0,0.0,0.0,0.0,0.0,0.0,0.0,0.0,-0.6696,-0.6696,-0.6692,-0.6467,-0.602,-0.6017,-0.6048,-0.6112,-0.6445,-0.6606,-0.6722,-0.6973,-0.7229,-0.7415,0.0,0.0,0.0,0.0,-0.839,-0.8572,-0.8674,-0.8698,0.0,0.0,0.0,0.0,0.0,0.0,0.0,0.0,-0.7836,-0.8269,-0.8568,-0.8697,-0.8703,-0.8703,-0.8712,-0.8714,-0.8734,-0.9308,0.0,0.0,0.0,0.0,0.0,0.0,0.0,0.0,0.0,0.0,0.0,0.0,0.0,0.0,0.0,0.0,0.0,0.0,0.0,0.0,-1.1194,-1.1194,-1.1194,-1.1194,-1.1194,-1.1194,-1.1194,-1.1194,-1.1194,-1.1194,-1.1194,-1.1194,-1.1406,-1.1616,-1.2003,-1.1897,-1.2145,-1.2666,-1.2483,-1.2441,-1.2441,-1.2767,-1.2989,-1.2989,-1.3635,-1.3738,-1.3521,-1.3635,-1.3418,-1.2985,-1.3207,-1.3418,-1.3521,-1.3521,-1.3305,-1.2989,0.0,0.0,0.0,0.0,0.0,0.0,0.0,0.0,0.0,0.0,0.0,0.0,0.0,0.0,0.0,0.0,0.0,0.0,0.0,-0.6829,-0.6829,-0.6829,-0.6829,-0.6742,-0.6556,-0.6552,-0.6584,-0.659,-0.659,-0.6688,-0.6874,-0.6979,-0.7204,0.0,0.0,0.0,0.0,0.0,0.0,-0.8746,-0.9005,-0.8957,0.0,0.0,0.0,0.0,0.0,0.0,0.0,0.0,-0.8185,-0.8507,-0.8641,-0.8675,-0.8713,-0.8702,-0.8705,-0.8671,-0.8665,-0.937,-1.0017,0.0,0.0,0.0,0.0,0.0,0.0,0.0,0.0,0.0,0.0,0.0,0.0,0.0,0.0,0.0,0.0,0.0,0.0,0.0,-1.1194,-1.1194,-1.1194,-1.1194,-1.1194,-1.1194,-1.1194,-1.1194,-1.1194,-1.1194,-1.1194,-1.1194,-1.134,-1.1611,-1.1999,-1.1817,-1.2137,-1.2865,-1.2666,-1.2591,-1.2659,-1.3098,-1.3423,-1.3635,-1.4062,-1.4169,-1.4169,-1.3959,-1.3856,-1.3856,-1.3635,-1.3851,-1.4169,-1.3954,-1.3635,-1.3315,0.0,0.0,0.0,0.0,0.0,0.0,0.0,0.0,0.0,0.0,0.0,0.0,0.0,0.0,0.0,0.0,0.0,0.0,0.0,-0.7091,-0.7223,-0.7223,-0.7223,-0.7135,-0.6885,-0.6885,-0.6724,-0.6409,-0.6409,-0.6502,-0.6683,-0.7125,-0.7206,0.0,0.0,0.0,0.0,0.0,0.0,0.0,-0.9672,-0.9433,-0.8685,0.0,0.0,0.0,0.0,0.0,0.0,0.0,-0.8457,-0.8155,-0.8571,-0.8703,-0.8669,-0.8714,-0.8742,-0.8721,-0.8742,-0.9392,0.0,0.0,0.0,0.0,0.0,0.0,0.0,0.0,0.0,0.0,0.0,0.0,0.0,0.0,0.0,0.0,0.0,0.0,0.0,0.0,-1.1194,-1.1194,-1.1194,-1.1194,-1.1194,-1.1194,-1.1194,-1.1194,-1.1194,-1.1194,-1.1194,-1.1194,-1.1194,-1.1194,-1.1198,-1.1406,-1.1924,-1.2751,-1.2865,-1.3093,-1.3315,-1.3315,-1.3635,-1.4169,-1.4169,-1.4169,-1.4277,-1.4821,-1.5041,-1.4928,-1.4385,-1.4169,-1.4169,-1.3527,-1.3315,-1.3207,0.0,0.0,0.0,0.0,0.0,0.0,0.0,0.0,0.0,0.0,0.0,0.0,0.0,0.0,0.0,0.0,0.0,0.0,0.0,-0.6963,-0.6963,-0.6963,-0.6963,-0.6937,-0.6885,-0.7149,-0.7123,-0.6729,-0.6729,-0.6762,-0.681,-0.6846,0.0,-0.7153,0.0,0.0,0.0,0.0,0.0,0.0,-0.8946,-0.8912,-0.8723,0.0,0.0,0.0,0.0,0.0,0.0,0.0,0.0,0.0,-0.8694,-0.8985,-0.9209,-0.8797,-0.8937,-0.9307,-1.0198,-1.0691,0.0,0.0,0.0,0.0,0.0,0.0,0.0,0.0,0.0,0.0,0.0,0.0,0.0,0.0,0.0,0.0,0.0,0.0,0.0,-1.1194,-1.1194,-1.1194,-1.1194,-1.1194,-1.1194,-1.1194,-1.1194,-1.1194,-1.1194,-1.1194,-1.1194,-1.1194,-1.159,-1.1975,-1.2273,-1.2046,-1.2386,-1.3518,-1.3049,-1.3152,-1.3959,-1.4283,-1.439,-1.4277,-1.503,-1.5137,-1.4821,-1.4928,-1.5041,-1.4928,-1.4821,-1.4713,-1.4821,-1.5035,-1.439,-1.3315,0.0,0.0,0.0,0.0,0.0,0.0,0.0,0.0,0.0,0.0,0.0,0.0,0.0,0.0,0.0,0.0,0.0,0.0,0.0,0.0,-0.7073,-0.7138,-0.7138,-0.7175,-0.726,-0.7513,-0.7487,-0.7242,-0.7167,-0.7082,-0.705,0.0,-0.6902,-0.7009,0.0,-0.7403,0.0,0.0,0.0,0.0,-0.8554,-0.8635,-0.8674,0.0,0.0,0.0,0.0,0.0,0.0,0.0,0.0,0.0,-0.8894,-0.9006,-0.9313,-0.9264,-0.9266,-0.9526,-1.042,0.0,0.0,0.0,0.0,0.0,0.0,0.0,0.0,0.0,0.0,0.0,0.0,0.0,0.0,0.0,0.0,0.0,0.0,0.0,0.0,-1.1085,-1.1146,-1.1132,-1.0962,-1.1099,-1.1161,-1.1085,-1.1151,-1.1194,-1.1194,-1.1194,-1.1194,-1.1194,-1.1683,-1.2078,-1.2175,-1.2078,-1.2382,-1.3209,-1.2749,-1.3158,-1.4142,-1.4454,-1.46,-1.46,-1.5458,-1.5571,-1.5035,-1.525,-1.5357,-1.5357,-1.5035,-1.5041,-1.5035,-1.4928,-1.4175,-1.3315,0.0,0.0,-0.6881,-0.6881,0.0,0.0,0.0,0.0,0.0,0.0,0.0,-0.6745,0.0,0.0,0.0,-0.6741,0.0,0.0,0.0,0.0,-0.733,-0.7521,-0.7521,-0.7617,-0.7744,-0.7773,-0.7794,-0.7747,-0.7592,-0.7351,0.0,0.0,-0.697,-0.6749,0.0,-0.7414,0.0,0.0,0.0,-0.8051,-0.8202,-0.8423,-0.8641,-0.8714,0.0,0.0,0.0,0.0,0.0,0.0,0.0,0.0,-0.9393,-0.9156,-0.9294,-0.9847,-0.9725,-0.9609,0.0,0.0,0.0,0.0,0.0,0.0,0.0,0.0,0.0,0.0,0.0,0.0,0.0,0.0,0.0,0.0,0.0,0.0,-1.1194,-1.1194,0.0,-1.0948,-1.1085,-1.1047,-1.0669,-1.0976,-1.1118,-1.0934,-1.1094,-1.1194,-1.1194,-1.1194,-1.1194,-1.1194,-1.1683,-1.1785,-1.1292,-1.178,-1.2175,-1.2473,-1.2394,-1.2929,-1.3771,-1.4125,-1.4578,-1.5143,-1.5571,-1.5571,-1.5143,-1.5678,-1.5891,-1.5891,-1.525,-1.4934,-1.4821,-1.3743,-1.3315,-1.3098,0.0,0.0,-0.6881,-0.6881,0.0,0.0,0.0,0.0,0.0,-0.7138,-0.6942,-0.6881,-0.6881,-0.6881,0.0,-0.7073,-0.7068,0.0,0.0,0.0,-0.7461,-0.7521,-0.7521,-0.7545,-0.7593,-0.7692,-0.7721,-0.7593,-0.7446,0.0,0.0,0.0,0.0,-0.6881,0.0,-0.7334,0.0,0.0,0.0,-0.7844,-0.7917,-0.807,-0.8401,-0.8636,-0.9506,0.0,0.0,0.0,0.0,0.0,0.0,0.0,-1.0534,-1.0553,-1.0673,-0.9885,-1.0181,-1.0784,0.0,0.0,0.0,0.0,0.0,0.0,0.0,0.0,0.0,0.0,0.0,0.0,0.0,0.0,0.0,0.0,0.0,0.0,-1.1175,-1.1194,-1.1179,-1.1137,-1.1165,-1.1161,-1.1071,-1.1142,-1.1179,-1.1132,-1.117,-1.1194,-1.1194,-1.1194,-1.1194,-1.1194,-1.1683,-1.1975,-1.178,-1.1975,-1.2196,-1.2742,-1.2521,-1.2455,-1.2663,-1.4003,-1.5053,-1.5678,-1.5357,-1.5357,-1.5678,-1.5891,-1.5891,-1.5891,-1.525,-1.4713,-1.4385,-1.4062,-1.3413,-1.2659,0.0,0.0,0.0,0.0,0.0,0.0,0.0,0.0,-0.7313,-0.7344,-0.7138,-0.7073,-0.7204,-0.7073,0.0,0.0,-0.7138,-0.7138,0.0,0.0,0.0,0.0,-0.7521,-0.7574,-0.7607,-0.7725,-0.7773,-0.7754,0.0,0.0,0.0,0.0,0.0,-0.7073,0.0,-0.733,0.0,0.0,-0.7588,-0.7626,-0.7626,-0.7872,-0.8168,-0.8298,-0.9028,-1.0127,-1.1759,0.0,0.0,0.0,0.0,0.0,0.0,0.0,-1.0414,-0.9908,-1.0173,-1.074,0.0,0.0,0.0,0.0,0.0,0.0,0.0,0.0,0.0,0.0,0.0,0.0,0.0,0.0,0.0,0.0,0.0,-1.0967,-1.1165,-1.1194,-1.1161,-1.1061,-1.1137,-1.1113,-1.0915,-1.108,-1.1156,-1.1057,-1.1142,-1.1194,-1.1194,-1.1194,-1.1194,-1.1194,-1.1683,-1.1883,-1.159,-1.1878,-1.198,-1.2078,-1.1895,-1.2004,-1.2419,-1.3386,-1.4411,-1.5288,-1.5091,-1.5143,-1.5464,-1.5464,-1.5351,-1.503,-1.439,-1.4067,-1.3743,-1.3413,-1.298,-1.2441,0.0,0.0,0.0,0.0,0.0,0.0,0.0,0.0,0.0,-0.748,-0.733,-0.733,-0.7461,-0.733,-0.7265,0.0,0.0,0.0,-0.7396,0.0,0.0,0.0,-0.7717,-0.7739,-0.7923,-0.7923,-0.7942,0.0,0.0,0.0,0.0,0.0,0.0,-0.7204,0.0,0.0,0.0,0.0,-0.7545,-0.7579,-0.7705,-0.7957,-0.8189,-0.8146,-0.8544,-0.9311,-1.0511,-1.1389,-1.169,-1.0258,0.0,0.0,0.0,0.0,-1.0349,-1.045,-1.0394,-1.0405,0.0,0.0,0.0,0.0,0.0,0.0,0.0,0.0,0.0,0.0,0.0,0.0,0.0,0.0,0.0,0.0,0.0,-1.0924,-1.1161,-1.1194,-1.1132,-1.0967,-1.1094,-1.1061,-1.0716,-1.0995,-1.1127,-1.0962,-1.1099,-1.1194,-1.1194,-1.1194,-1.1194,-1.1194,-1.1585,-1.1688,-1.1194,-1.1683,-1.1683,-1.1194,-1.1194,-1.1579,-1.2363,-1.257,-1.343,-1.4472,-1.4674,-1.4787,-1.4821,-1.4821,-1.4606,-1.4277,-1.3527,-1.3315,-1.3423,-1.2659,-1.2441,-1.2441,0.0,0.0,0.0,0.0,0.0,0.0,0.0,0.0,0.0,0.0,-0.7461,-0.7456,-0.7521,-0.7461,-0.7456,-0.7456,-0.7972,-0.8296,0.0,0.0,0.0,0.0,-0.8683,-0.8376,-0.8408,-0.8408,-0.8163,0.0,0.0,0.0,0.0,0.0,0.0,-0.7204,0.0,0.0,0.0,0.0,-0.7631,-0.7803,-0.8534,-0.9013,-0.928,-0.8573,-0.9322,-1.0738,-1.0477,-1.1392,-1.2645,-1.2726,-1.34,0.0,0.0,0.0,-1.3328,-1.254,-1.1984,0.0,0.0,0.0,0.0,0.0,0.0,0.0,0.0,0.0,0.0,0.0,0.0,0.0,0.0,0.0,0.0,0.0,0.0,-1.0754,-1.1142,-1.1194,-1.1184,-1.1156,-1.1179,-1.1175,-1.1118,-1.1161,-1.1184,-1.1156,-1.1179,-1.1194,-1.1194,-1.1194,-1.1194,-1.1194,-1.1292,-1.1292,-1.1194,-1.1292,-1.1292,-1.1194,-1.1194,-1.1507,-1.2031,-1.1788,-1.2515,-1.4041,-1.4073,-1.4199,-1.4277,-1.4277,-1.4498,-1.4821,-1.3748,-1.3635,-1.3954,-1.2871,-1.2441,-1.2441,0.0,0.0,0.0,0.0,0.0,0.0,0.0,0.0,0.0,0.0,0.0,-0.8037,-0.8037,-0.8425,-0.8619,-0.8619,-0.8877,0.0,0.0,0.0,0.0,0.0,0.0,-0.7912,-0.7912,-0.7912,0.0,0.0,0.0,0.0,0.0,-0.7616,-0.7567,0.0,0.0,0.0,0.0,0.0,0.0,-0.8017,-0.8354,-0.876,-0.914,-0.9807,-1.0364,-1.0701,-1.1085,-1.1753,-1.2518,-1.2536,-1.2891,-1.3339,-1.3361,0.0,0.0,0.0,0.0,0.0,0.0,0.0,0.0,0.0,0.0,0.0,0.0,0.0,0.0,0.0,0.0,0.0,0.0,0.0,0.0,0.0,0.0,-1.0721,-1.1137,-1.1194,-1.1194,-1.1194,-1.1194,-1.1194,-1.1194,-1.1194,-1.1194,-1.1194,-1.1194,-1.1194,-1.1194,-1.1194,-1.1194,-1.1194,-1.1194,-1.1194,-1.1194,-1.1194,-1.1194,-1.1194,-1.1194,-1.1292,-1.159,-1.1392,-1.2104,-1.3534,-1.3262,-1.3551,-1.3976,-1.3651,-1.373,-1.3959,-1.3093,-1.2985,-1.3088,-1.255,-1.2441,-1.2441,0.0,0.0,0.0,0.0,0.0,0.0,0.0,0.0,0.0,0.0,0.0,-0.8231,-0.8231,0.0,0.0,0.0,-0.9582,0.0,0.0,0.0,0.0,0.0,0.0,0.0,-0.8231,0.0,0.0,0.0,0.0,0.0,-0.8128,-0.7922,-0.799,0.0,-0.8127,0.0,0.0,0.0,0.0,-0.8165,-0.8432,-0.8896,-0.9606,-1.1013,-1.1362,-1.1114,-1.1739,-1.233,-1.2726,-1.2424,-1.2663,-1.3099,-1.3296,-1.3366,0.0,0.0,0.0,0.0,0.0,0.0,0.0,0.0,0.0,0.0,0.0,0.0,0.0,0.0,0.0,0.0,0.0,0.0,0.0,0.0,-1.0836,-1.0783,-1.1146,-1.1194,-1.1194,-1.1194,-1.1194,-1.1194,-1.1194,-1.1194,-1.1194,-1.1194,-1.1194,-1.1194,-1.1194,-1.1146,-1.1142,-1.1194,-1.1094,-1.109,-1.1194,-1.1194,-1.1194,-1.1194,-1.1194,-1.1194,-1.1194,-1.1194,-1.1771,-1.2636,-1.2466,-1.2797,-1.332,-1.2951,-1.2971,-1.3234,-1.2743,-1.2659,-1.2659,-1.2659,-1.255,-1.2441,0.0,0.0,0.0,0.0,0.0,0.0,0.0,0.0,0.0,0.0,0.0,-0.7521,-0.7521,-0.8166,-0.8554,-0.8554,-0.9716,0.0,0.0,0.0,0.0,0.0,0.0,0.0,0.0,0.0,0.0,0.0,0.0,0.0,-0.9039,-0.8413,-0.8283,-0.8652,-0.8255,-0.7976,-0.7806,0.0,0.0,-0.8475,-0.942,-1.0486,-1.1516,-1.1745,-1.2416,-1.3081,-1.233,0.0,0.0,0.0,-1.4447,-1.5462,-1.5333,-1.5257,-1.5257,0.0,0.0,0.0,0.0,0.0,0.0,0.0,0.0,0.0,0.0,0.0,0.0,0.0,0.0,0.0,0.0,0.0,0.0,0.0,-1.1532,-1.0953,-1.1165,-1.1194,-1.1194,-1.1194,-1.1194,-1.1194,-1.1194,-1.1194,-1.1194,-1.1194,-1.1194,-1.1194,-1.1194,-1.1014,-1.1,-1.1189,-1.0811,-1.0797,-1.1189,-1.1194,-1.1194,-1.1194,-1.1194,-1.1194,-1.1194,-1.1194,-1.1203,-1.132,-1.1539,-1.1647,-1.1954,-1.2054,-1.2457,-1.3012,-1.3229,-1.3207,-1.3207,-1.3207,-1.2876,-1.2441,0.0,0.0,0.0,0.0,0.0,0.0,0.0,0.0,0.0,0.0,0.0,0.0,0.0,-1.0085,-1.0471,-1.0471,-1.0926,0.0,0.0,0.0,0.0,0.0,0.0,0.0,0.0,0.0,0.0,0.0,0.0,-0.9307,-0.9502,-0.8838,-0.8728,-0.8954,-0.8646,-0.8439,-0.8387,-0.8595,0.0,0.0,-0.9335,-1.0183,-1.1271,-1.176,-1.2561,-1.3514,-1.3787,0.0,0.0,0.0,-1.4925,-1.519,-1.5116,-1.5116,-1.5116,-1.5116,0.0,0.0,0.0,0.0,0.0,0.0,0.0,0.0,0.0,0.0,0.0,0.0,0.0,0.0,0.0,0.0,0.0,0.0,-1.314,-1.2753,-1.2221,-1.2155,-1.1965,-1.1292,-1.1194,-1.1194,-1.1194,-1.1194,-1.1194,-1.1194,-1.1075,-1.1005,-1.1005,-1.0806,-1.0721,-1.0797,-1.065,-1.0712,-1.1,-1.1132,-1.1194,-1.1194,-1.1194,-1.1194,-1.1194,-1.1194,-1.1194,-1.1198,-1.1953,-1.2412,-1.2749,-1.2874,-1.3773,-1.4769,-1.4185,-1.3948,-1.4051,-1.3088,-1.255,-1.2441,0.0,0.0,0.0,-1.2022,0.0,-1.0823,-1.0729,-1.0134,-0.9621,-0.953,0.0,0.0,0.0,0.0,-1.131,-1.156,-1.1622,-1.1622,-1.1622,0.0,0.0,0.0,0.0,0.0,0.0,0.0,0.0,0.0,0.0,0.0,0.0,0.0,-0.9438,-0.9619,-0.9506,-0.9231,0.0,0.0,0.0,-0.9429,0.0,-1.03,-1.1829,0.0,-1.3009,-1.4316,0.0,0.0,0.0,0.0,0.0,-1.5264,-1.5183,-1.5028,-1.486,-1.486,-1.5174,0.0,0.0,0.0,0.0,0.0,0.0,0.0,0.0,0.0,0.0,0.0,0.0,0.0,0.0,0.0,0.0,0.0,-1.4296,-1.3886,-1.3284,-1.292,-1.2441,-1.177,-1.1385,-1.1194,-1.1194,-1.1194,-1.1194,-1.1194,-1.1071,0.0,-1.0995,-1.0797,-1.0617,-1.0475,-1.0537,-1.0612,-1.0688,-1.0957,-1.1094,-1.1094,-1.1161,-1.1194,-1.1194,-1.1194,-1.1194,-1.1292,-1.2252,-1.2927,-1.3199,-1.3635,-1.454,-1.5546,-1.5182,-1.4993,-1.4781,-1.3798,-1.3186,-1.298,-1.404,-1.3975,-1.3872,-1.3565,-1.2713,-1.1891,-1.16,-1.0699,-0.997,-0.9637,0.0,0.0,0.0,0.0,0.0,-1.1589,-1.1652,-1.1645,-1.1637,-1.1637,0.0,0.0,0.0,0.0,0.0,0.0,0.0,0.0,0.0,0.0,0.0,0.0,-1.0447,0.0,-1.0985,-1.0201,-0.8784,0.0,-0.9366,-1.0215,0.0,-1.095,-1.3273,0.0,0.0,0.0,-1.5658,-1.5914,0.0,-1.6484,0.0,-1.6087,-1.5824,-1.5353,-1.486,-1.486,-1.5174,-1.5431,0.0,0.0,0.0,0.0,0.0,0.0,0.0,0.0,0.0,0.0,0.0,0.0,0.0,0.0,0.0,0.0,-1.5032,-1.4364,-1.4364,-1.3403,-1.2727,-1.2732,-1.1868,-1.1194,-1.1194,-1.1194,-1.1194,-1.1194,-1.1189,-1.1184,-1.1179,-1.0981,-1.0683,-1.0286,-1.0471,-1.0475,-1.0277,-1.0693,-1.0901,-1.0896,-1.1099,-1.1194,-1.1194,-1.1194,-1.1194,-1.1292,-1.2349,-1.292,-1.3238,-1.427,-1.4869,-1.5201,-1.6272,-1.6182,-1.5487,-1.5423,-1.4888,-1.4056,-1.3953,-1.3792,-1.3675,-1.3821,-1.323,-1.2692,-1.2598,-1.2107,-1.1808,0.0,0.0,0.0,-1.1643,-1.185,-1.2056,-1.2255,-1.2255,-1.2153,-1.1919,-1.1904,-1.1802,-1.1637,-1.178,-1.205,0.0,0.0,0.0,0.0,0.0,0.0,0.0,0.0,0.0,0.0,-1.1075,-1.0804,-1.0616,-1.0616,0.0,0.0,-1.1432,-1.2383,0.0,0.0,0.0,0.0,0.0,-1.6004,-1.6141,0.0,-1.6278,-1.5703,-1.5309,-1.5013,-1.486,-1.486,-1.5174,-1.5431,-1.5431,0.0,0.0,0.0,0.0,0.0,0.0,0.0,0.0,0.0,0.0,0.0,0.0,0.0,0.0,0.0,-1.6662,-1.6177,-1.5507,-1.5127,-1.4358,-1.292,-1.2441,-1.196,-1.1292,-1.1194,-1.1194,0.0,-1.1061,-1.091,-1.0754,-1.0405,-1.023,-1.0272,-1.0471,-1.0475,-1.0277,-1.083,-1.1042,-1.0896,-1.1099,-1.1194,-1.1194,-1.1194,-1.1194,-1.1292,-1.3113,-1.407,-1.4561,-1.5628,-1.6635,-1.7244,-1.7052,-1.713,-1.7326,-1.6147,-1.5674,-1.5636,-1.3967,-1.4048,-1.4114,-1.4172,-1.3762,-1.3367,-1.3228,-1.2936,-1.2672,0.0,0.0,0.0,-1.2519,-1.2519,-1.2519,-1.2519,-1.2519,-1.2438,-1.2248,-1.2241,-1.2153,-1.197,-1.2138,-1.2394,-1.2716,0.0,0.0,0.0,0.0,0.0,0.0,0.0,0.0,0.0,-1.2056,-1.2078,-1.2244,-1.2244,0.0,0.0,-1.2355,0.0,0.0,-1.4176,-1.481,0.0,0.0,0.0,-1.6299,-1.6646,-1.627,-1.5598,-1.5043,-1.5035,-1.5116,-1.4903,-1.527,-1.5606,-1.5467,-1.5431,0.0,0.0,0.0,0.0,-1.6704,-1.6711,0.0,0.0,0.0,0.0,0.0,0.0,0.0,0.0,-1.7326,-1.7138,-1.6466,-1.6082,-1.5317,-1.4166,-1.3596,-1.292,-1.1965,-1.1868,-1.1678,-1.1194,-1.109,-1.0929,-1.0721,-1.039,-1.023,-1.0272,-1.0301,-1.0301,-1.0272,-1.0716,-1.092,-1.0896,-1.1099,-1.1194,-1.1194,-1.1194,-1.1482,-1.2063,-1.3692,-1.493,-1.5893,-1.6954,-1.7808,-1.8312,-1.7955,-1.8178,-1.8476,-1.7156,-1.6866,-1.6909,0.0,-1.4494,-1.4765,-1.456,-1.4253,-1.3923,-1.3601,-1.3331,-1.3053,0.0,-1.2687,-1.2672,-1.2636,-1.2628,-1.2643,-1.268,-1.265,-1.2628,-1.2628,-1.2592,-1.2555,-1.2519,-1.2555,-1.2716,-1.3001,-1.276,0.0,0.0,0.0,0.0,0.0,0.0,0.0,-1.3075,-1.3367,-1.3492,-1.3499,-1.3536,-1.3436,-1.3193,-1.2806,-1.3587,0.0,0.0,-1.4894,-1.5816,-1.6004,-1.6245,-1.6441,-1.6668,-1.6369,-1.5801,-1.5234,-1.527,-1.5474,-1.5189,-1.5511,-1.5906,-1.5613,-1.5533,-1.55,-1.5462,-1.5447,0.0,-1.6414,-1.6853,-1.7251,0.0,0.0,0.0,0.0,0.0,0.0,-1.7274,-1.7333,-1.7369,-1.7333,-1.6588,-1.594,-1.5845,-1.5108,-1.4051,-1.2867,-1.277,-1.2278,-1.1292,-1.1175,-1.1094,-1.0938,-1.0702,-1.0504,-1.0348,-1.013,-1.0112,-1.0305,-1.0508,-1.0707,-1.0896,-1.1099,-1.1194,-1.1194,-1.1194,-1.1868,-1.3119,-1.4172,-1.5507,-1.6936,-1.8094,-1.8481,-1.8597,-1.88,-1.9047,-1.9132,-1.829,-1.81,-1.8087,-1.4611,-1.4435,-1.4311,-1.4772,-1.4589,-1.426,-1.3938,-1.4055,-1.407,-1.374,-1.3697,-1.3594,-1.3331,-1.3301,-1.3411,-1.3675,-1.3455,-1.3301,-1.3301,-1.306,-1.2797,-1.2533,-1.2775,-1.2943,-1.3009,-1.3349,-1.3561,0.0,0.0,0.0,0.0,0.0,0.0,0.0,-1.347,-1.3492,-1.3514,-1.3777,-1.403,-1.423,-1.413,0.0,-1.5204,-1.5359,-1.5733,-1.6229,-1.617,-1.6245,-1.6319,-1.6058,-1.6229,-1.6394,-1.5911,-1.5935,-1.617,-1.6111,-1.6177,-1.6265,-1.6199,-1.6184,-1.6148,-1.5965,-1.5698,0.0,-1.5625,-1.6104,-1.66,0.0,0.0,0.0,0.0,0.0,0.0,-1.6945,-1.7384,-1.7625,-1.7362,-1.7355,-1.7131,-1.6346,-1.6268,-1.5518,-1.3331,-1.3116,-1.2548,-1.1306,-1.1047,-1.1009,-1.1132,-1.0778,-1.0636,-1.0773,-1.0565,-1.0471,-1.0513,-1.0726,-1.0853,-1.0896,-1.1099,-1.1194,-1.1194,-1.1194,-1.177,-1.2829,-1.4076,-1.5412,-1.6741,-1.7994,-1.8566,-1.8743,-1.8644,-1.9043,-1.9681,-1.9064,-1.9257,-1.9657,-1.4611,-1.4706,-1.475,-1.4918,-1.4677,-1.4362,-1.4033,-1.3982,-1.3982,-1.3982,-1.3982,-1.3923,-1.3755,-1.374,-1.3865,-1.4194,-1.4077,-1.3916,-1.3748,-1.3587,-1.3353,-1.3023,-1.3241,-1.3401,-1.3401,-1.3772,-1.4011,-1.4177,0.0,0.0,0.0,0.0,0.0,0.0,-1.4022,-1.4119,-1.4283,-1.4455,-1.462,-1.4784,-1.487,0.0,-1.5509,-1.5674,-1.5906,-1.6237,-1.5989,-1.6079,-1.6154,-1.5816,-1.5958,0.0,-1.5999,-1.6126,-1.6367,-1.6367,-1.6484,-1.6572,-1.6411,-1.636,-1.6228,-1.617,-1.5746,0.0,0.0,-1.6176,-1.6469,-1.6679,-1.6497,0.0,0.0,0.0,0.0,-1.6828,-1.726,-1.7516,-1.7355,-1.775,-1.7855,-1.7358,-1.7499,-1.6925,-1.5177,-1.4965,-1.4255,-1.234,-1.1448,-1.1047,-1.1047,-1.0849,-1.0735,-1.0735,-1.0631,-1.0627,-1.0731,-1.0839,-1.0948,-1.1047,-1.1146,-1.1194,-1.1194,-1.1194,-1.2063,-1.3692,-1.4364,-1.5602,-1.7412,-1.8187,-1.8574,-1.8658,-1.8658,-1.9067,-1.9638,-1.9236,-1.9414,-1.9872,-1.4545,-1.4977,-1.527,-1.4991,-1.4823,-1.4545,-1.4216,-1.3996,-1.3938,-1.4143,-1.4165,-1.4143,-1.4084,-1.4153,-1.4307,-1.4618,-1.4675,-1.455,-1.4275,-1.4278,-1.4094,-1.3763,-1.3917,-1.3953,-1.3953,-1.4164,-1.4367,-1.4643,0.0,0.0,0.0,-1.4459,-1.4475,-1.4668,0.0,0.0,0.0,0.0,0.0,-1.5116,0.0,-1.5486,-1.5651,-1.5711,-1.5914,-1.6087,-1.5824,-1.5914,-1.6087,-1.5748,-1.5786,-1.5883,-1.5911,-1.6162,-1.6462,-1.6462,-1.6689,-1.6887,-1.6623,-1.6446,-1.6313,-1.63,-1.6042,-1.5942,0.0,0.0,0.0,-1.6607,-1.6737,0.0,0.0,0.0,0.0,0.0,0.0,0.0,0.0,-1.7889,0.0,-1.8299,-1.8408,-1.8053,-1.6975,-1.646,-1.5295,-1.3397,-1.1993,-1.1127,-1.0962,-1.0953,-1.0872,-1.0697,-1.0655,-1.0735,-1.0953,-1.0915,-1.0976,-1.1137,-1.1179,-1.1175,-1.1137,-1.137,-1.2635,-1.4555,-1.4841,-1.6082,-1.8087,-1.8381,-1.8481,-1.8481,-1.8743,-1.905,-1.9415,-1.9272,-1.9315,-1.9558,-1.4831,-1.4948,-1.5079,-1.5328,-1.5343,-1.5211,-1.4882,-1.505,-1.5116,-1.4867,-1.4838,-1.4728,0.0,0.0,0.0,0.0,-1.5212,-1.5227,-1.5248,-1.5227,-1.4993,-1.4657,-1.4592,-1.4515,-1.4515,-1.4739,-1.4836,-1.4875,-1.4836,0.0,0.0,-1.5057,-1.4981,-1.5026,-1.5166,0.0,0.0,0.0,-1.4712,0.0,-1.516,-1.5438,0.0,-1.5973,-1.6087,-1.6087,-1.5824,-1.5914,-1.6004,0.0,-1.5866,-1.646,-1.5992,-1.6323,-1.6799,-1.6799,-1.7026,-1.7267,-1.723,-1.7216,-1.7184,-1.7138,-1.7115,-1.7117,-1.7136,0.0,-1.7026,-1.6498,0.0,0.0,0.0,0.0,0.0,0.0,0.0,0.0,-1.7326,-1.7889,-1.8299,-1.8299,-1.8811,-1.8633,-1.7415,-1.5087,-1.3513,-1.3187,-1.1993,-1.1184,-1.1161,-1.1161,-1.1151,-1.1127,-1.0953,-1.0957,-1.1161,-1.0986,-1.091,-1.0929,-1.1109,-1.1104,-1.0934,-1.2068,-1.321,-1.4364,-1.5514,-1.6669,-1.7815,-1.8295,-1.8481,-1.8481,-1.8743,-1.905,-1.9415,-1.9458,-1.9514,-1.9659,-1.4918,-1.5094,-1.5211,-1.516,-1.5145,-1.5035,-1.4721,-1.5101,-1.5313,-1.4903,-1.5109,0.0,0.0,0.0,0.0,0.0,0.0,-1.6171,0.0,-1.6261,-1.6413,-1.6132,-1.638,-1.643,-1.6215,-1.617,-1.5943,-1.5614,-1.5494,0.0,0.0,0.0,-1.5584,-1.5885,-1.5679,0.0,-1.5579,0.0,-1.5508,0.0,0.0,0.0,0.0,-1.5771,-1.5839,-1.568,-1.559,-1.5665,-1.5831,0.0,-1.5678,0.0,-1.6146,-1.636,-1.6645,-1.7018,-1.7223,-1.7326,-1.7326,-1.7326,-1.7331,-1.7289,-1.6776,-1.6422,-1.7116,-1.7071,-1.6679,-1.6417,0.0,0.0,0.0,0.0,0.0,0.0,-1.6755,0.0,0.0,0.0,-1.816,0.0,0.0,0.0,-1.8157,-1.6439,-1.5295,-1.5295,-1.3335,-1.2058,-1.2058,-1.1482,-1.1482,-1.2058,-1.1971,-1.2188,-1.2718,-1.262,-1.2499,-1.227,-1.2603,-1.2663,-1.2576,-1.329,-1.4172,-1.5222,-1.5704,-1.6669,-1.7721,-1.7916,-1.8102,-1.828,-1.8365,-1.8769,-1.9415,-1.9272,-1.9414,-1.9558,-1.5057,-1.527,-1.5357,-1.5116,-1.5079,-1.5028,-1.4889,-1.5262,-1.5504,-1.535,-1.554,0.0,-1.6016,-1.6329,0.0,0.0,-1.7905,-1.8048,0.0,-1.7971,-1.8206,-1.7992,-1.8199,-1.8217,-1.7987,-1.757,-1.7046,-1.6594,-1.61,-1.6134,0.0,0.0,-1.607,-1.6386,-1.6172,-1.6024,-1.6004,0.0,-1.5922,-1.5922,-1.5922,-1.5748,-1.5658,-1.5658,-1.5499,-1.5431,-1.5431,-1.5499,-1.565,-1.5506,-1.5499,0.0,-1.6043,-1.617,-1.6338,-1.6806,-1.6996,-1.7084,-1.7172,-1.7194,-1.7128,-1.7228,-1.66,-1.6137,-1.7124,-1.7002,-1.6613,-1.6433,-1.6226,0.0,0.0,0.0,-1.6235,-1.6544,0.0,-1.7059,0.0,-1.7538,0.0,0.0,0.0,0.0,0.0,-1.7448,-1.6659,-1.6659,-1.443,-1.3017,-1.2732,-1.2252,-1.2252,-1.2727,-1.3017,-1.3374,-1.3776,-1.3776,-1.3644,-1.3387,-1.365,-1.3776,-1.3882,-1.4432,-1.5127,-1.5798,-1.6082,-1.6756,-1.7628,-1.7628,-1.7815,-1.7994,-1.8087,-1.8582,-1.9122,-1.9077,-1.9262,-1.9336,-1.535,-1.5423,-1.5423,-1.5416,-1.5416,-1.5518,-1.5826,-1.5884,-1.6001,-1.6287,-1.633,0.0,0.0,0.0,0.0,0.0,0.0,-2.1112,-2.0419,-2.0584,-2.0499,-2.0186,-1.9659,-1.9325,-1.9344,-1.8523,-1.7951,-1.7432,-1.6578,-1.6373,0.0,0.0,0.0,0.0,-1.6323,-1.6032,-1.5741,-1.5506,-1.5431,-1.5431,-1.5431,-1.5431,-1.5431,0.0,-1.5431,-1.5431,-1.5431,0.0,0.0,-1.5506,-1.5499,0.0,0.0,-1.5679,-1.5935,-1.5957,-1.617,-1.6469,-1.6784,-1.6857,-1.6791,-1.7189,-1.7281,-1.7206,-1.7288,-1.7289,-1.7135,-1.6513,-1.6511,-1.6613,-1.6411,-1.6632,-1.6832,-1.7153,-1.7221,0.0,0.0,0.0,0.0,0.0,0.0,0.0,0.0,-1.7121,-1.6357,0.0,-1.5005,-1.3788,-1.2727,-1.3692,-1.3788,-1.2727,-1.3692,-1.4135,-1.3776,-1.3776,-1.3743,-1.3489,-1.3743,-1.3876,-1.3987,-1.5194,-1.5798,-1.5893,-1.685,-1.7232,-1.7326,-1.7628,-1.7729,-1.7721,-1.7994,-1.8293,-1.8636,-1.8972,-1.8913,-1.8828,-1.5731,-1.5913,-1.5987,-1.5789,0.0,-1.5855,-1.617,-1.6396,-1.6572,0.0,-1.6689,0.0,0.0,-1.7971,-1.8774,0.0,0.0,-2.1735,-2.1405,-2.2001,-2.2408,-2.2629,-2.2168,-2.1915,-2.1964,-2.1104,-1.9879,-1.8258,-1.8023,-1.7615,0.0,0.0,0.0,0.0,0.0,-1.5762,0.0,0.0,0.0,0.0,0.0,-1.5431,-1.5431,0.0,-1.5431,-1.5431,-1.5431,-1.5423,0.0,-1.5423,-1.5423,-1.5543,-1.5679,-1.5826,-1.5957,-1.6155,-1.6287,-1.6389,-1.6506,-1.684,-1.7122,-1.7232,-1.6639,-1.6289,-1.711,-1.6981,-1.6735,-1.6928,-1.6758,-1.6491,-1.6662,-1.6914,-1.7086,-1.7168,-1.7206,-1.7241,0.0,0.0,0.0,0.0,0.0,0.0,0.0,0.0,0.0,-1.7618,-1.6175,0.0,-1.5105,-1.4557,-1.4459,-1.474,-1.5127,-1.5371,-1.5528,-1.5521,-1.528,-1.4799,-1.5294,-1.5521,-1.5639,-1.6422,-1.6756,-1.685,-1.7138,-1.7426,-1.7535,-1.7434,-1.7527,-1.7721,-1.7613,-1.768,-1.7844,-1.8604,-1.8949,-1.9089,-1.6074,-1.6235,-1.6309,0.0,0.0,-1.6184,-1.6491,-1.6718,-1.6894,0.0,-1.7026,0.0,-1.7304,0.0,-1.9183,0.0,-2.1633,-2.2637,-2.2618,-2.3398,-2.389,-2.4098,-2.3841,-2.3659,-2.3857,-2.2742,-2.124,-1.9335,-1.8714,-1.7929,0.0,0.0,0.0,0.0,0.0,-1.5499,-1.5438,-1.5555,-1.5533,0.0,0.0,-1.5431,0.0,0.0,-1.5431,-1.5431,0.0,-1.5431,-1.5431,-1.5431,-1.5431,-1.5467,-1.5679,-1.5738,-1.5782,-1.5979,-1.603,-1.606,-1.6177,-1.6411,-1.671,-1.6923,-1.6492,-1.6132,-1.6535,-1.6279,-1.632,-1.716,-1.7049,-1.6906,-1.7094,-1.7447,-1.7675,-1.7644,-1.7659,-1.7567,0.0,-1.7318,0.0,0.0,0.0,0.0,0.0,0.0,-1.783,-1.8269,-1.7216,0.0,0.0,-1.5866,-1.5619,-1.5798,-1.6177,-1.6415,-1.6543,-1.6426,-1.6221,-1.5935,-1.6118,-1.6323,-1.6557,-1.6967,-1.7157,-1.7165,-1.7375,-1.7527,-1.7527,-1.7434,-1.7527,-1.7527,-1.7333,-1.7399,-1.7567,-1.8311,-1.8892,-1.9294,-1.6411,-1.644,0.0,0.0,-1.644,0.0,0.0,0.0,-1.6982,0.0,-1.7326,-1.7326,-1.7326,-1.8411,-1.9588,-2.0755,-2.2584,-2.3861,-2.4232,-2.4805,0.0,-2.4625,-2.4456,-2.4535,-2.4743,-2.33,-2.1861,-2.0521,-1.8869,-1.7513,-1.6417,0.0,0.0,0.0,-1.5506,0.0,-1.5474,-1.5767,-1.5716,-1.5431,-1.5431,-1.5431,-1.5431,-1.5431,-1.5431,-1.5431,-1.5431,-1.5431,-1.5431,-1.5431,-1.5431,-1.5431,-1.5431,-1.5431,-1.5431,-1.5431,-1.5431,-1.5496,-1.5804,-1.5605,-1.5591,-1.6208,-1.6737,-1.6866,-1.5677,-1.5457,-1.5861,-1.7017,-1.7582,-1.7807,-1.7707,-1.8094,-1.8481,-1.8481,-1.8388,-1.8009,-1.7426,-1.7326,-1.7326,0.0,0.0,0.0,0.0,-1.7508,-1.7604,-1.8255,-1.7999,0.0,0.0,-1.7341,-1.7184,-1.5927,-1.6763,-1.7172,-1.6857,-1.6528,-1.6521,-1.6799,-1.6199,-1.6235,-1.6919,-1.6941,-1.6956,-1.6985,-1.7494,-1.7527,-1.7326,-1.7628,-1.7527,-1.7326,-1.7326,-1.7538,-1.7882,-1.8203,-1.8723,-1.9257,-1.704,-1.7472,-1.7808,0.0,-1.7406,-1.7194,0.0,0.0,0.0,0.0,-1.7326,-1.7326,-1.7326,-1.8241,-1.933,-2.0584,-2.2419,0.0,0.0,0.0,0.0,-2.5983,-2.5339,-2.4762,-2.4323,-2.341,-2.1878,-1.9779,-1.8866,0.0,-1.6538,0.0,0.0,0.0,0.0,0.0,-1.5782,-1.5621,-1.5504,-1.5431,-1.5431,-1.5431,-1.5431,0.0,-1.5431,-1.5431,-1.5431,-1.5431,-1.5431,-1.5431,-1.5431,-1.5431,-1.5431,-1.5431,-1.5431,-1.5431,-1.5431,-1.5452,-1.5533,-1.5464,-1.5423,-1.5655,-1.5789,-1.5815,-1.5483,-1.6139,-1.6877,-1.7185,-1.7325,-1.7583,-1.8063,-1.8049,-1.8001,-1.8272,-1.7885,-1.7505,-1.7326,-1.7326,-1.7326,-1.7326,0.0,0.0,-1.7443,-1.7377,-1.7604,-1.8255,-1.7999,-1.7923,-1.8103,-1.7884,-1.7676,-1.7301,-1.7261,-1.7172,-1.6857,-1.6528,-1.6301,-1.6155,-1.5994,-1.6118,-1.6506,-1.6928,-1.7172,-1.7208,-1.7762,-1.7714,-1.7326,-1.7628,-1.7527,-1.7326,-1.7326,-1.7677,-1.8218,-1.8547,-1.8767,-1.895,-1.7691,-1.805,0.0,-1.8489,0.0,0.0,-1.7999,-1.775,0.0,-1.7538,-1.7421,0.0,-1.7326,-1.792,-1.8769,-1.9877,-2.1268,0.0,-2.4059,0.0,0.0,-2.5909,-2.5337,-2.4883,-2.4331,-2.343,-2.1978,-1.9769,-1.8692,0.0,-1.6413,0.0,0.0,0.0,0.0,-1.5613,-1.5906,-1.5723,-1.5643,-1.5628,-1.5489,-1.5431,0.0,-1.5431,-1.5431,-1.5431,-1.5431,-1.5431,-1.5431,-1.5431,-1.5431,-1.5431,-1.5431,-1.5431,-1.5431,-1.5431,-1.5431,-1.5431,-1.5431,-1.5431,-1.5384,-1.5367,-1.5372,-1.542,-1.544,-1.5921,-1.6462,-1.6488,-1.6485,-1.6713,-1.7706,-1.7895,-1.7957,-1.8064,-1.7707,-1.7512,-1.7326,-1.7326,-1.7326,-1.7326,-1.7326,-1.7326,-1.7326,-1.7326,-1.7604,-1.8255,-1.813,-1.8189,0.0,-1.8225,-1.7962,-1.7816,-1.7501,-1.7172,-1.6857,-1.6528,-1.6279,-1.6111,-1.5833,-1.6029,-1.6558,-1.6743,-1.7002,-1.7313,-1.7747,-1.7714,-1.7326,-1.7628,-1.7527,-1.734,-1.7486,-1.7677,-1.7933,-1.8401,-1.876,-1.903,-1.8299,0.0,0.0,0.0,0.0,0.0,0.0,-1.8116,0.0,-1.7823,0.0,-1.7435,-1.7399,-1.7684,-1.8228,-1.9124,-1.9846,-2.0995,-2.241,-2.293,-2.3638,-2.4669,-2.4669,-2.4477,-2.4079,-2.3153,-2.1733,-1.996,-1.8457,-1.7249,-1.6208,0.0,0.0,0.0,0.0,0.0,0.0,-1.5957,-1.595,-1.5891,-1.5606,-1.5467,-1.5431,-1.5431,-1.5431,-1.5431,-1.5431,-1.5431,-1.5431,-1.5431,-1.5431,-1.5431,-1.5431,-1.5431,-1.5431,-1.5431,-1.5431,-1.5431,-1.5431,-1.5431,-1.5431,-1.5431,-1.5431,-1.5405,-1.5397,-1.5362,-1.5426,-1.5385,-1.5441,-1.5753,-1.6873,-1.7644,-1.8068,-1.7702,-1.7669,-1.7569,-1.7267,-1.7296,-1.7326,-1.7326,-1.7326,0.0,-1.7326,-1.7326,-1.7582,-1.8196,-1.824,-1.8255,-1.8299,0.0,-1.8108,-1.7823,-1.7501,-1.7172,-1.6857,-1.6528,-1.6345,-1.6301,-1.5709,-1.5852,-1.6735,-1.6551,-1.6751,-1.7212,-1.7594,-1.7621,-1.7326,-1.7628,-1.7527,-1.7355,-1.764,-1.7604,-1.7465,-1.8079,-1.8686,-1.9213,-1.8642,0.0,0.0,0.0,0.0,-1.9103,-1.9103,-1.8599,-1.8116,-1.7852,-1.7999,-1.8028,-1.7757,-1.8021,-1.8574,-1.9565,-1.9917,0.0,0.0,0.0,0.0,-2.2496,-2.2505,-2.2197,-2.1582,-2.1072,-2.0098,-1.8603,-1.7784,-1.7039,-1.6367,0.0,0.0,0.0,0.0,0.0,-1.5935,-1.6184,0.0,-1.5913,-1.5855,-1.5672,-1.5431,-1.5431,-1.5431,-1.5431,-1.5431,-1.5431,-1.5431,-1.5431,-1.5431,-1.5431,-1.5431,-1.5431,-1.5431,-1.5431,-1.5431,-1.5431,-1.5431,-1.5431,-1.5431,-1.5431,-1.5431,-1.5362,-1.5405,-1.542,-1.5435,-1.5394,-1.5412,-1.5476,-1.5727,-1.66,-1.7339,-1.7084,-1.7037,-1.7029,-1.6824,-1.7057,-1.7326,-1.7326,-1.7326,-1.7326,-1.7326,-1.7326,-1.7486,-1.7874,-1.7904,-1.8021,-1.8284,0.0,-1.7874,0.0,-1.7501,-1.7172,0.0,-1.6528,-1.6243,-1.5987,-1.5613,-1.576,-1.6463,-1.6647,-1.6966,-1.7345,-1.7777,-1.7707,-1.7326,-1.7628,-1.7527,-1.7333,-1.7391,-1.7545,-1.7772,-1.816,-1.8547,-1.8877,-1.9016,0.0,0.0,0.0,0.0,0.0,0.0,-1.9008,-1.8694,-1.8364,-1.8313,-1.824,-1.8086,-1.8357,-1.8681,-1.8996,-1.9231,-1.9818,-2.0785,-2.071,-2.1134,-2.2184,-2.203,-2.1611,-2.0877,-2.0535,-1.9698,-1.8299,-1.7647,-1.7084,-1.6616,-1.6301,-1.6067,-1.5921,0.0,-1.6162,0.0,0.0,0.0,-1.6148,-1.6148,-1.606,-1.5913,-1.5913,-1.5913,-1.5913,-1.5913,-1.5818,-1.5657,-1.5489,-1.5431,-1.5431,-1.5431,-1.5431,-1.5431,-1.5431,-1.5431,-1.5431,-1.5431,-1.5431,-1.5431,-1.5431,-1.5431,-1.5431,-1.5431,-1.5431,-1.5431,-1.5431,-1.5372,-1.551,-1.5747,-1.6431,-1.6913,-1.6676,-1.6748,-1.6948,-1.6963,-1.6982,-1.7043,-1.7311,-1.7326,-1.7326,-1.7326,-1.7326,-1.7391,0.0,0.0,-1.7882,-1.8043,0.0,-1.7816,0.0,0.0,0.0,-1.6608,0.0,-1.6213,-1.5913,-1.5584,-1.5933,-1.6802,-1.6632,-1.6913,-1.7527,-1.7613,-1.752,-1.7333,-1.7434,-1.7426,-1.7326,-1.7326,-1.7428,-1.7604,-1.7933,-1.8255,-1.8584,0.0,-1.9279,0.0,0.0,-1.9279,-1.9279,-1.9279,-1.9279,-1.9162,-1.8833,-1.8628,-1.8482,-1.8408,-1.8694,-1.8789,-1.8533,-1.8679,-1.9179,-1.9961,-1.9748,-2.0122,-2.1644,-2.1404,-2.1029,-2.0577,-2.0311,-1.9614,-1.8401,-1.7823,-1.7333,-1.6952,-1.6623,-1.6433,-1.6382,-1.6638,0.0,0.0,0.0,-1.6704,-1.6477,-1.6477,-1.6426,-1.6367,-1.6367,-1.6367,-1.6367,-1.6367,-1.6213,-1.5965,-1.5643,-1.5489,-1.5431,-1.5431,-1.5431,-1.5431,-1.5431,-1.5431,-1.5431,-1.5431,-1.5431,-1.5431,-1.5431,-1.5431,-1.5416,-1.5343,-1.5238,-1.5306,-1.5248,-1.5374,-1.5521,-1.586,-1.6211,-1.6418,-1.6441,-1.6528,-1.6801,-1.7032,-1.685,-1.6868,-1.7289,-1.7326,-1.7326,-1.7326,-1.7326,0.0,0.0,0.0,-1.7706,-1.7706,-1.7706,0.0,0.0,0.0,-1.6952,-1.6374,0.0,-1.6148,-1.5913,-1.5657,-1.6088,-1.7123,-1.6683,-1.6882,-1.7621,-1.7426,-1.7326,-1.7326,-1.7326,-1.7326,-1.7326,-1.7326,-1.7369,-1.7472,-1.7801,-1.8123,-1.8489,0.0,0.0,0.0,0.0,0.0,-1.9279,-1.9279,-1.9279,-1.9162,-1.8833,-1.9023,-1.9074,-1.8774,-1.9038,-1.922,-1.9184,-1.8942,-1.889,-1.8984,-1.8581,-1.8651,-1.9115,-1.91,-1.9241,-1.9472,-1.945,-1.917,-1.8745,-1.8386,-1.7889,-1.7274,-1.696,-1.6652,-1.6367,-1.6404,0.0,0.0,-1.6934,-1.6835,-1.6813,-1.6813,-1.663,-1.6367,-1.6367,-1.6367,-1.6367,-1.6367,-1.6352,-1.6279,-1.5972,-1.5672,-1.5431,-1.5431,-1.5431,-1.5431,-1.5431,-1.5431,-1.5431,-1.5431,-1.5431,-1.5431,-1.5431,-1.5431,-1.535,-1.5057,-1.4896,-1.4823,-1.4892,-1.5158,-1.5383,-1.5423,-1.5504,-1.5709,-1.6272,-1.6162,-1.6002,-1.6147,-1.6632,-1.6974,-1.7289,-1.7326,-1.7326,-1.7326,-1.7326,0.0,0.0,-1.7355,-1.7377,-1.7377,-1.7377,-1.7377,-1.7377,-1.7062,-1.6726,-1.6374,-1.6096,-1.5943,-1.5913,-1.5884,-1.6213,-1.6948,-1.6919,-1.6996,-1.7333,-1.7333,-1.7326,-1.7326,-1.7326,-1.7326,-1.7326,-1.7326,-1.7508,-1.7808,-1.8138,-1.8467,-1.8796,0.0,0.0,0.0,0.0,0.0,0.0,0.0,-1.9279,-1.9228,-1.9096,-1.9199,-1.9228,-1.9096,-1.9199,-1.9279,-1.9279,-1.8979,-1.8869,-1.9067,-1.8774,-1.8738,-1.9067,-1.9081,-1.914,-1.9272,-1.9279,-1.9118,-1.8789,-1.846,-1.8064,-1.7618,-1.7494,-1.7362,-1.723,-1.7033,-1.7018,-1.7135,-1.7135,-1.7135,-1.7135,-1.7135,-1.7062,-1.6945,-1.6945,-1.6945,-1.6945,-1.6945,-1.6821,-1.6645,-1.6521,-1.614,-1.5687,-1.5489,-1.5431,-1.5431,-1.5431,-1.5431,-1.5431,-1.5431,-1.5431,-1.5431,-1.5431,-1.5431,-1.5343,-1.5013,-1.486,-1.4853,-1.4631,-1.4902,-1.5087,-1.5116,-1.546,-1.5738,-1.5796,-1.6023,-1.6177,-1.6306,-1.6613,-1.6868,-1.7289,-1.7326,-1.7326,-1.7326,-1.7326,0.0,0.0,-1.7326,-1.7413,-1.7611,-1.7435,-1.7421,-1.7611,0.0,-1.6696,-1.6374,-1.6067,-1.5913,-1.5913,-1.5716,-1.606,-1.685,-1.6652,-1.6843,-1.7326,-1.7326,-1.7326,-1.7326,-1.7326,-1.7326,-1.7326,-1.7326,-1.7523,-1.7852,-1.8182,-1.8474,-1.8861,-1.9279,0.0,-1.9279,0.0,-1.9279,-1.9279,-1.9279,-1.9279,-1.9279,-1.9279,-1.9279,-1.9279,-1.9279,-1.9279,-1.9279,-1.9279,-1.9067,-1.903,-1.9257,-1.906,-1.9038,-1.9264,-1.9279,0.0,-1.9279,-1.9279,-1.9162,-1.8935,-1.8606,-1.8328,-1.8101,-1.7999,-1.7911,-1.7808,-1.7574,-1.7421,-1.7326,-1.7326,-1.7326,-1.7326,-1.7326,-1.7326,-1.7326,-1.7326,-1.7326,-1.7326,-1.7326,-1.7179,-1.6982,-1.6887,-1.6565,-1.6118,-1.5701,-1.557,-1.5555,-1.546,-1.5405,-1.5365,-1.5369,-1.5431,-1.5431,-1.5431,-1.5431,-1.5321,-1.4896,-1.4801,-1.4684,-1.4267,-1.4509,-1.4801,-1.4801,-1.5335,-1.5731,-1.5599,-1.5943,-1.6301,-1.6484,-1.6696,-1.6868,-1.7289,-1.7326,-1.7326,-1.7326,-1.7326,0.0,0.0,-1.7326,-1.7428,-1.7662,-1.7457,-1.7435,0.0,0.0,0.0,-1.6374,-1.5972,-1.5826,-1.5913,-1.5774,-1.6111,-1.685,-1.6718,-1.6901,-1.7326,-1.7326,-1.7326,-1.7326,-1.7326,-1.7326,-1.7333,-1.7435,-1.7669,-1.7999,-1.8328,-1.8714,-1.8979,-1.9279,-1.9279,-1.9279,-1.9279,-1.9279,-1.9279,-1.9279,-1.9279,-1.9279,-1.9279,-1.9279,-1.9279,-1.9279,-1.9279,-1.9279,-1.9279,-1.9272,-1.9272,-1.9279,-1.9272,-1.9272,0.0,0.0,-1.9279,-1.9279,-1.9279,-1.9279,-1.9272,-1.8942,-1.8782,-1.8767,-1.8445,-1.8123,-1.7816,-1.7808,-1.7625,-1.7326,-1.7326,-1.7326,-1.7326,-1.7326,-1.7326,-1.7326,-1.7326,-1.7326,-1.7326,-1.7326,-1.7326,-1.7274,-1.696,-1.685,-1.6733,-1.6104,-1.5913,-1.5848,-1.5526,-1.5367,-1.544,-1.542,-1.5431,-1.5431,-1.5431,-1.5431,-1.5262,-1.4618,-1.4472,-1.4289,-1.3638,-1.4026,-1.4472,-1.4472,-1.4999,-1.554,-1.5862,-1.5913,-1.614,-1.6762,-1.6941,-1.6974,-1.7289,-1.7326,-1.7326,-1.7326,-1.7326,0.0,0.0,0.0,-1.7326,-1.7333,-1.7333,-1.7326,-1.7333,-1.6711,-1.6374,-1.6367,-1.5745,-1.5599,-1.5921,-1.6213,-1.6528,-1.6865,-1.7172,-1.7318,-1.7326,-1.7326,-1.7326,-1.7326,-1.7326,-1.7326,-1.7362,-1.7684,-1.8013,-1.8335,-1.8664,-1.8986,-1.9264,-1.9279,-1.9279,-1.9279,-1.9279,-1.9279,-1.9279,-1.9279,-1.9279,-1.9279,-1.9279,-1.9279,-1.9279,-1.9279,-1.9279,-1.9279,0.0,-1.9279,-1.9279,0.0,-1.9279,-1.9279,-1.9279,-1.9279,-1.9279,-1.9279,-1.9279,-1.9279,-1.9279,0.0,0.0,-1.8782,-1.846,-1.8364,-1.846,-1.8125,-1.7875,-1.7757,-1.7428,-1.7326,-1.7326,-1.7326,-1.7326,-1.7326,-1.7326,-1.7326,-1.7326,-1.7326,-1.7326,-1.7311,-1.7208,-1.7033,-1.6821,-1.6616,-1.6404,-1.6206,-1.6096,-1.5792,-1.5397,-1.5397,-1.5408,-1.5431,-1.5431,-1.5431,-1.5262,-1.4618,-1.4128,-1.3748,-1.3536,-1.4011,-1.4472,-1.4472,-1.4999,-1.546,-1.557,-1.5943,-1.6294,-1.6491,-1.6901,-1.7216,-1.7318,-1.7326,-1.7326,-1.7326,-1.7326,0.0,0.0,0.0,-1.7428,-1.7647,-1.7245,-1.7106,-1.7318,-1.6499,-1.606,-1.606,-1.5862,-1.5811,-1.5921,-1.6221,-1.6543,-1.6865,-1.7179,-1.7326,-1.7326,-1.7326,-1.7326,-1.7326,-1.7326,-1.7326,-1.7362,-1.7691,-1.8013,-1.8335,-1.8699,-1.9045,-1.9279,-1.9279,-1.9279,-1.9279,-1.9279,-1.9279,-1.9279,-1.9279,-1.9279,-1.9279,-1.9279,-1.9279,-1.9279,-1.9279,-1.9279,0.0,-1.9279,-1.9279,-1.9279,-1.9279,-1.9279,-1.9279,-1.9279,-1.9279,-1.9279,-1.9279,-1.9279,0.0,-1.9279,-1.9074,-1.8972,-1.8964,-1.8767,-1.8708,-1.8767,-1.8353,-1.8044,-1.769,-1.7465,-1.7326,-1.7326,-1.7326,-1.7326,-1.7326,-1.7326,-1.7326,-1.7326,-1.7326,-1.7326,-1.7326,-1.7326,-1.7201,-1.7033,-1.7033,-1.6894,-1.6682,-1.644,-1.6235,-1.6052,-1.5548,-1.5389,-1.5431,-1.5431,-1.5431,-1.5292,-1.4765,-1.4238,-1.3857,-1.3857,-1.4282,-1.4648,-1.4648,-1.5072,-1.5467,-1.5592,-1.6038,-1.6411,-1.6535,-1.6713,-1.685,-1.7232,-1.6943,-1.685,-1.7232,-1.6943,-1.685,0.0,0.0,0.0,0.0,0.0,-1.7069,-1.715,-1.6455,-1.6082,-1.6082,-1.5972,-1.5972,-1.6089,-1.6404,-1.6718,-1.704,-1.7238,-1.7326,-1.7326,-1.7326,-1.7326,-1.7333,-1.7465,-1.7508,-1.7552,-1.8006,-1.8306,-1.8518,-1.889,-1.9155,-1.9279,-1.9279,-1.9279,-1.9279,-1.9279,-1.9279,-1.9279,-1.9279,-1.9279,-1.9279,-1.9279,-1.9279,-1.9279,-1.9279,-1.9279,-1.9279,-1.9279,0.0,0.0,-1.9279,-1.9279,-1.9279,-1.9279,-1.9279,-1.9279,-1.9279,-1.9279,-1.9279,-1.9279,-1.9279,-1.9279,-1.9279,-1.9279,-1.9111,-1.8811,-1.8688,-1.8138,-1.738,-1.7363,-1.7326,-1.7326,-1.7326,-1.7326,-1.7326,-1.7326,-1.7326,-1.7326,-1.7326,-1.7326,-1.7326,-1.7326,-1.7326,-1.7326,-1.7326,-1.7326,-1.7208,-1.6616,-1.6832,-1.7052,-1.585,-1.5439,-1.5467,-1.546,-1.5431,-1.5313,-1.4932,-1.4699,-1.4472,-1.4472,-1.4721,-1.486,-1.486,-1.5226,-1.5562,-1.587,-1.6104,-1.6417,-1.6723,-1.6185,-1.6082,-1.6951,-1.6278,-1.6089,-1.7052,-1.6271,-1.5981,-1.6936,0.0,0.0,0.0,0.0,-1.7179,-1.6865,-1.6535,-1.6367,-1.6367,-1.6111,-1.6133,-1.644,-1.6748,-1.7047,-1.7326,-1.7326,-1.7326,-1.7326,-1.7326,-1.7326,-1.7355,-1.7684,-1.7816,-1.7882,-1.8533,-1.8789,-1.8833,-1.9155,-1.9279,-1.9279,0.0,0.0,-1.9279,-1.9279,-1.9279,-1.9279,-1.9279,-1.9279,-1.9279,-1.9279,-1.9279,-1.9279,-1.9279,-1.9279,-1.9279,-1.9279,-1.9279,-1.9279,-1.9279,-1.9279,-1.9279,-1.9279,-1.9279,-1.9279,-1.9279,-1.9279,-1.9279,-1.9279,-1.9279,-1.9279,-1.9279,-1.9279,-1.9235,-1.914,-1.9145,-1.8723,-1.8032,-1.7567,-1.7326,-1.7326,-1.7326,-1.7326,-1.7326,-1.7326,-1.7326,-1.7326,-1.7326,-1.7326,-1.7326,-1.7326,-1.7326,-1.7326,-1.7326,-1.7326,-1.7296,-1.7143,-1.715,-1.7146,-1.6541,-1.6133,-1.5904,-1.5804,-1.5423,-1.5035,-1.4962,-1.4699,-1.4472,-1.4472,-1.4721,-1.486,-1.486,-1.5416,-1.5826,-1.5906,-1.5739,-1.5552,-1.5718,-1.5136,-1.4746,-1.4937,-1.5267,-1.5497,-1.5783,-1.4632,-1.3897,-1.4183,-1.519,-1.5893,-1.6177,-1.685,-1.7179,-1.6865,-1.6535,-1.6367,-1.6367,-1.6543,-1.6791,-1.7099,-1.7179,-1.726,-1.7326,-1.7326,-1.7326,-1.7326,-1.7326,-1.7326,-1.7355,-1.7684,-1.7816,-1.7882,-1.8533,-1.8789,-1.8833,-1.9155,-1.9279,-1.9279,-1.9279,-1.9279,-1.9279,-1.9279,-1.9279,-1.9279,-1.9279,-1.9279,-1.9279,-1.9279,-1.9279,-1.9279,-1.9279,-1.9279,-1.9279,-1.9279,-1.9279,-1.9279,-1.9279,-1.9279,-1.9279,-1.9279,-1.9279,-1.9279,-1.9279,-1.9279,-1.9279,-1.9279,-1.9279,-1.9279,-1.9279,-1.9279,-1.9279,-1.9257,-1.9333,-1.891,-1.8277,-1.7592,-1.7251,-1.7326,-1.7326,-1.7326,-1.7319,-1.7283,-1.7326,-1.7326,-1.7326,-1.7326,-1.7326,-1.7326,-1.7326,-1.7326,-1.7326,-1.7326,-1.7326,-1.7326,-1.7313,-1.7175,-1.6843,-1.6499,-1.6292,-1.5957,-1.554,-1.5167,-1.5167,-1.5035,-1.4911,-1.4911,-1.5043,-1.5211,-1.5357,-1.5319,-1.5287,-1.5574,-1.506,-1.4657,-1.4784,-1.4076,-1.3788,-1.4268,-1.4202,-1.4316,-1.4796,-1.368,-1.316,-1.364,-1.4148,-1.4835,-1.5798,-1.6278,-1.6707,-1.6865,-1.6682,-1.6594,-1.6594,-1.6908,-1.7157,-1.7326,-1.7326,-1.7326,-1.7326,-1.7326,-1.7037,-1.6655,-1.7138,-1.7124,-1.6894,-1.7703,-1.813,-1.8313,-1.8811,-1.8921,-1.8833,-1.9155,-1.916,-1.9042,-1.9199,-1.9242,-1.9279,-1.9279,-1.9279,-1.9279,-1.9279,-1.9279,-1.9279,-1.9279,-1.9279,-1.9279,-1.9279,-1.9279,-1.9279,-1.9279,-1.9279,-1.9279,-1.9279,-1.9279,-1.9279,-1.9279,-1.9279,-1.9279,-1.9279,-1.9279,-1.9279,-1.9279,-1.9279,-1.9279,-1.9279,-1.9279,-1.9279,-1.9264,-1.9294,-1.8981,-1.8372,-1.7633,-1.7456,-1.7563,-1.7563,-1.7445,-1.7298,-1.7312,-1.7297,-1.729,-1.734,-1.7326,-1.7326,-1.7326,-1.7326,-1.7326,-1.7326,-1.7326,-1.7326,-1.7326,-1.7257,-1.7241,-1.6916,-1.675,-1.6499,-1.5994,-1.5672,-1.5431,-1.5431,-1.5431,-1.5431,-1.5431,-1.5257,-1.5274,-1.5591,-1.4877,-1.4451,-1.4989,-1.4272,-1.3726,-1.4046,-1.3113,-1.2813,-1.364,-1.2967,-1.2758,-1.3677,-1.2912,-1.2715,-1.3666,-1.3036,-1.3442,-1.5158,-1.5582,-1.6067,-1.6747,-1.6923,-1.6923,-1.6923,-1.7194,-1.7232,-1.7037,-1.7232,-1.7232,-1.7037,-1.7232,-1.685,-1.6082,-1.6943,-1.6999,-1.6587,-1.7695,-1.8423,-1.8752,-1.9074,-1.903,-1.8825,-1.9192,-1.9066,-1.8844,-1.8869,-1.9089,-1.9279,-1.9279,-1.9279,-1.9279,-1.9279,-1.9279,-1.9279,-1.9279,-1.9279,-1.9279,-1.9279,-1.9279,-1.9279,-1.9279,-1.9279,-1.9279,-1.9279,-1.9279,-1.9279,-1.9279,-1.9279,-1.9279,-1.9279,-1.9279,-1.9279,-1.9279,-1.9279,-1.9279,-1.9279,-1.9279,-1.9279,-1.9264,-1.9294,-1.9231,-1.9048,-1.7839,-1.793,-1.9026,-1.9026,-1.8339,-1.7288,-1.7305,-1.7294,-1.7266,-1.7319,-1.7326,-1.7326,-1.7326,-1.7326,-1.7326,-1.7326,-1.7326,-1.7326,-1.7326,-1.7296,-1.726,-1.7252,-1.6821,-1.6389,-1.5994,-1.5672,-1.5431,-1.5431,-1.5431,-1.5431,-1.5431,-1.4824,-1.4396,-1.4602,-1.4065,-1.3701,-1.4001,-1.3394,-1.2876,-1.2915,-1.2058,-1.1419,-1.1436,-1.1321,-1.1248,-1.1341,-1.1135,-1.0939,-1.1027,-1.1853,-1.2631,-1.2908,-1.4716,-1.5873,-1.6014,-1.6778,-1.7252,-1.7252,-1.7304,-1.685,-1.6082,-1.685,-1.685,-1.6082,-1.6943,-1.7232,-1.7037,-1.7232,-1.7261,-1.7138,-1.7661,-1.8086,-1.8408,-1.8738,-1.8833,-1.8789,-1.9209,-1.913,-1.8891,-1.8525,-1.8745,-1.8942,-1.9001,-1.9162,-1.9279,-1.9279,-1.9279,-1.9279,-1.9279,-1.9279,-1.9279,-1.9279,-1.9279,-1.9279,-1.9279,-1.9279,-1.9279,-1.9279,-1.9279,-1.9279,-1.9279,-1.9279,-1.9279,-1.9279,-1.9279,-1.9279,-1.9279,-1.9279,-1.9279,-1.9279,-1.9279,-1.9279,-1.9272,-1.9347,-1.9308,-1.9261,-1.8687,-1.8723,-1.9275,-1.9275,-1.8914,-1.8303,-1.8091,-1.7858,-1.7683,-1.764,-1.7479,-1.7326,-1.7326,-1.7326,-1.7326,-1.7326,-1.7326,-1.7326,-1.7326,-1.7326,-1.7326,-1.7326,-1.6857,-1.6338,-1.6199,-1.5789,-1.5431,-1.5431,-1.5431,-1.5257,-1.4831,-1.4436,-1.4196,-1.3957,-1.3332,-1.2944,-1.3188,-1.2469,-1.1868,-1.1868,-1.139,-1.1,-1.0905,-1.0792,-1.0683,-1.0681,-1.0667,-1.0575,-1.0575,-1.1223,-1.1538,-1.1585,-1.2637,-1.3826,-1.4816,-1.6476,-1.7326,-1.7326,-1.7326,-1.7044,-1.656,-1.656,-1.6278,-1.5798,-1.5704,-1.5412,-1.4835,-1.5412,-1.5504,-1.5171,-1.5888,-1.6315,-1.6693,-1.6827,-1.6787,-1.6687,-1.7082,-1.7109,-1.6852,-1.8189,-1.8379,-1.8577,-1.8664,-1.8884,-1.9074,-1.9147,-1.9162,-1.9191,-1.9264,-1.9279,-1.9279,-1.9279,-1.9279,-1.9279,-1.9279,-1.9279,-1.9279,-1.9279,-1.9279,-1.9279,-1.9279,-1.9279,-1.9279,-1.9279,-1.9279,-1.9279,-1.9279,-1.9279,-1.9279,-1.9279,-1.9279,-1.9279,-1.9279,-1.9279,-1.9258,-1.9279,-1.9287,-1.9258,-1.9264,-1.9264,-1.9264,-1.9227,-1.8777,-1.8331,-1.8022,-1.7845,-1.7604,-1.7326,-1.7326,-1.7326,-1.7326,-1.7326,-1.7326,-1.7326,-1.7326,-1.7326,-1.7326,-1.7326,-1.6857,-1.6367,-1.6367,-1.5899,-1.5431,-1.5431,-1.5431,-1.5173,-1.4307,-1.4051,-1.3873,-1.3243,-1.2455,-1.2015,-1.2297,-1.1673,-1.1194,-1.1194,-1.1023,-1.0877,-1.0825,-1.0631,-1.0485,-1.0433,-1.0428,-1.0524,-1.062,-1.0668,-1.0673,-1.0697,-1.0934,-1.2057,-1.3972,-1.5685,-1.656,-1.656,-1.656,-1.6466,-1.6177,-1.5697,-1.5317,-1.5032,-1.4555,-1.3884,-1.3113,-1.398,-1.3996,-1.3501,-1.4347,-1.4929,-1.5166,-1.5166,-1.5075,-1.5002,-1.5318,-1.5342,-1.5234,-1.7852,-1.8108,-1.8328,-1.8335,-1.8357,-1.8474,-1.8774,-1.8825,-1.8935,-1.9235,-1.9279,-1.9279,-1.9279,-1.9279,-1.9279,-1.9279,-1.9279,-1.9279,-1.9279,-1.9279,-1.9279,-1.9279,-1.9279,-1.9279,-1.9279,-1.9279,-1.9279,-1.9279,-1.9279,-1.9279,-1.9279,-1.9279,-1.9279,-1.9279,-1.9279,-1.9264,-1.925,-1.9264,-1.9264,-1.9346,-1.9346,-1.9346,-1.9206,-1.876,-1.8318,-1.7992,-1.7821,-1.7604,-1.7326,-1.7326,-1.7326,-1.7326,-1.7326,-1.7326,-1.7326,-1.7326,-1.7326,-1.7326,-1.7326,-1.6857,-1.6367,-1.6367,-1.5899,-1.5431,-1.5431,-1.5431,-1.5173,-1.4307,-1.3379,-1.2689,-1.2122,-1.1313,-1.082,-1.1225,-1.1292,-1.1194,-1.1194,-1.1023,-1.082,-1.0622,-1.0419,-1.0216,-1.0105,-1.0086,-1.0086,-1.0086,-1.0276,-1.0391,-1.0376,-1.0691,-1.1926,-1.4226,-1.4447,-1.4555,-1.4555,-1.4555,-1.3974,-1.3017,-1.398,-1.3884,-1.292,-1.3884,-1.4268,-1.4172,-1.4268,-1.428,-1.422,-1.4472,-1.4835,-1.5077,-1.5077,-1.5209,-1.5409,-1.5451,-1.5451,-1.5475,-1.7516,-1.7611,-1.7765,-1.7962,-1.8057,-1.8262,-1.8723,-1.8789,-1.8906,-1.9235,-1.9279,-1.9279,-1.9279,-1.9279,-1.9279,-1.9279,-1.9089,-1.906,-1.9264,-1.9089,-1.9067,-1.9264,-1.9279,-1.9279,-1.9279,-1.9279,-1.9279,-1.9279,-1.9279,-1.9279,-1.9279,-1.9279,-1.9279,-1.9279,-1.9279,-1.9279,-1.9279,-1.9279,-1.9279,-1.9279,-1.9279,-1.9279,-1.9242,-1.8906,-1.8476,-1.8142,-1.7925,-1.7604,-1.7326,-1.7326,-1.7326,-1.7326,-1.7326,-1.7326,-1.7326,-1.7326,-1.7326,-1.7326,-1.7326,-1.7004,-1.6623,-1.6418,-1.6045,-1.5679,-1.5474,-1.5431,-1.5173,-1.4307,-1.3933,-1.333,-1.1947,-1.1566,-1.1266,-1.0877,-1.0811,-1.0811,-1.0811,-1.0636,-1.048,-1.04,-1.0201,-1.0041,-1.0047,-1.0038,-1.0038,-1.0038,-1.0119,-1.0224,-1.0357,-1.0641,-1.1331,-1.2344,-1.2349,-1.3022,-1.4268,-1.4268,-1.4076,-1.3692,-1.3403,-1.3113,-1.2727,-1.2441,-1.2349,-1.2349,-1.2349,-1.2349,-1.2355,-1.2448,-1.2537,-1.2725,-1.2777,-1.2887,-1.2997,-1.3284,-1.3388,-1.3419,-1.7326,-1.7326,-1.7399,-1.7625,-1.7728,-1.7933,-1.8408,-1.8482,-1.8606,-1.8928,-1.8972,-1.9008,-1.9111,-1.903,-1.9016,-1.9111,-1.8921,-1.8884,-1.9111,-1.9008,-1.9038,-1.9264,-1.9279,-1.9279,-1.9279,-1.9279,-1.9279,-1.9279,-1.9279,-1.9279,-1.9279,-1.9279,-1.9279,-1.9279,-1.9279,-1.9279,-1.9279,-1.9279,-1.9279,-1.9264,-1.9162,-1.9118,-1.9089,-1.876,-1.843,-1.8116,-1.7896,-1.7604,-1.7326,-1.7326,-1.7326,-1.7326,-1.7326,-1.7326,-1.7326,-1.7326,-1.7326,-1.7326,-1.7326,-1.7099,-1.6777,-1.6448,-1.614,-1.5833,-1.5504,-1.5431,-1.5173,-1.4307,-1.4208,-1.3758,-1.1916,-1.1711,-1.1582,-1.0745,-1.0575,-1.0575,-1.0575,-1.04,-1.0272,-1.0272,-1.0083,-1.0038,-1.0038,-1.0038,-1.0038,-1.0038,-1.0038,-1.0162,-1.0543,-1.0801,-1.0986,-1.1189,-1.1194,-1.1868,-1.3307,-1.3307,-1.3307,-1.3312,-1.2538,-1.2252,-1.2252,-1.1482,-1.1194,-1.1194,-1.1194,-1.1194,-1.1198,-1.1269,-1.1335,-1.1406,-1.1553,-1.1694,-1.1836,-1.2058,-1.2181,-1.2252,-1.7326,-1.7326,-1.7326,-1.7326,-1.7326,-1.7435,-1.7765,-1.7816,-1.7933,-1.8255,-1.8299,-1.8423,-1.8752,-1.8496,-1.843,-1.876,-1.8789,-1.8789,-1.8789,-1.9096,-1.9272,-1.9272,-1.9279,-1.9279,-1.9279,-1.9279,-1.9279,-1.9279,-1.9279,-1.9279,-1.9279,-1.9279,-1.9279,-1.9279,-1.9279,-1.9279,-1.9279,-1.9279,-1.9279,-1.925,-1.8921,-1.8789,-1.8752,-1.843,-1.8101,-1.7816,-1.7808,-1.7604,-1.7326,-1.7326,-1.7326,-1.7326,-1.7326,-1.7326,-1.7326,-1.7326,-1.7326,-1.7326,-1.7326,-1.7099,-1.6777,-1.6448,-1.614,-1.5833,-1.5504,-1.5431,-1.5173,-1.4314,-1.4139,-1.3625,-1.1883,-1.1572,-1.1389,-1.0716,-1.057,-1.057,-1.057,-1.0395,-1.0272,-1.0272,-1.0083,-1.0038,-1.0038,-1.0038,-1.0038,-1.0038,-1.0043,-1.0229,-1.0745,-1.0877,-1.099,-1.1189,-1.1194,-1.1194,-1.1194,-1.1194,-1.1194,-1.1194,-1.1194,-1.1194,-1.1194,-1.1194,-1.1194,-1.1198,-1.1194,-1.1194,-1.1217,-1.143,-1.1633,-1.1813,-1.1817,-1.2072,-1.2413,-1.2214,-1.2266,-1.2441,-1.7326,-1.7326,-1.7326,-1.7326,-1.7326,-1.7435,-1.7765,-1.7816,-1.7933,-1.8255,-1.8299,-1.8343,-1.8438,-1.8357,-1.843,-1.876,-1.8577,-1.8547,-1.8774,-1.8877,-1.8935,-1.8935,-1.9155,-1.9279,-1.9279,-1.9279,-1.9279,-1.9279,-1.9279,-1.9279,-1.9279,-1.9279,-1.9279,-1.9279,-1.9279,-1.9279,-1.9279,-1.9279,-1.9279,-1.9264,-1.9169,-1.8994,-1.8752,-1.843,-1.8101,-1.7786,-1.7552,-1.7406,-1.7326,-1.7326,-1.7326,-1.7326,-1.7326,-1.7326,-1.7326,-1.7326,-1.7326,-1.7326,-1.7326,-1.726,-1.7055,-1.6506,-1.614,-1.5833,-1.5504,-1.5431,-1.534,-1.5082,-1.4999,-1.451,-1.2697,-1.2365,-1.1875,-1.0386,-1.014,-1.014,-1.014,-1.0176,-1.005,-1.005,-1.0081,-1.0038,-1.0038,-1.0038,-1.0038,-1.0038,-1.022,-1.0534,-1.0662,-1.0915,-1.1132,-1.1194,-1.1194,-1.1194,-1.1194,-1.1194,-1.1194,-1.1194,-1.1194,-1.1194,-1.1194,-1.1194,-1.1279,-1.1416,-1.126,-1.1283,-1.1416,-1.1326,-1.1416,-1.1619,-1.1761,-1.1987,-1.2238,-1.2318,-1.2389,-1.2441,-1.7326,-1.7326,-1.7326,-1.7326,-1.7326,-1.7391,-1.7589,-1.7625,-1.7691,-1.7889,-1.7918,-1.7962,-1.8094,-1.8108,-1.8189,-1.8386,-1.8225,-1.8247,-1.8577,-1.8599,-1.8599,-1.8599,-1.8789,-1.895,-1.9081,-1.9213,-1.9279,-1.9279,-1.9279,-1.9279,-1.9279,-1.9279,-1.9279,-1.9279,-1.9279,-1.9279,-1.9279,-1.9279,-1.9279,-1.925,-1.8994,-1.8774,-1.8547,-1.8094,-1.7794,-1.7596,-1.7399,-1.7326,-1.7326,-1.7326,-1.7326,-1.7326,-1.7326,-1.7326,-1.7326,-1.7326,-1.7326,-1.7326,-1.7326,-1.7238,-1.7047,-1.666,-1.6323,-1.6009,-1.5694,-1.5526,-1.5431,-1.5431,-1.5431,-1.4824,-1.3014,-1.2674,-1.2083,-1.0294,-1.0038,-1.0038,-1.0038,-1.0038,-1.0038,-1.0038,-1.0038,-1.0038,-1.0038,-1.0038,-0.9984,-0.9976,-1.0386,-1.0608,-1.0697,-1.1014,-1.1194,-1.1194,-1.1194,-1.1194,-1.1194,-1.1194,-1.1194,-1.1194,-1.1194,-1.1194,-1.1194,-1.1194,-1.1269,-1.1383,-1.125,-1.1269,-1.1387,-1.134,-1.1444,-1.1647,-1.177,-1.1997,-1.2266,-1.2304,-1.237,-1.2441,-1.7282,-1.7311,-1.7326,-1.7326,-1.7326,-1.7326,-1.7326,-1.7326,-1.7326,-1.7326,-1.7326,-1.7443,-1.7735,-1.7801,-1.7816,-1.7816,-1.7816,-1.7955,-1.8284,-1.8277,-1.8255,-1.8255,-1.8313,-1.8474,-1.8738,-1.9067,-1.925,-1.9279,-1.9279,-1.9279,-1.9279,-1.9279,-1.9279,-1.9279,-1.9279,-1.9279,-1.9279,-1.9279,-1.9257,-1.9177,-1.8584,-1.8313,-1.8196,-1.7604,-1.7355,-1.7326,-1.7326,-1.7326,-1.7326,-1.7326,-1.7326,-1.7326,-1.7326,-1.7326,-1.7326,-1.7326,-1.7326,-1.7326,-1.7326,-1.7121,-1.6901,-1.6901,-1.6652,-1.6323,-1.5987,-1.5665,-1.5431,-1.5431,-1.5347,-1.4748,-1.3052,-1.2625,-1.2026,-1.0323,-1.0067,-1.0062,-1.0043,-1.0038,-1.0038,-1.0038,-1.0038,-1.0038,-1.0038,-1.0057,-1.006,-0.9975,-1.0379,-1.0688,-1.0786,-1.1085,-1.1194,-1.1194,-1.1194,-1.1194,-1.1194,-1.1194,-1.1194,-1.1194,-1.1194,-1.1194,-1.1194,-1.1194,-1.1203,-1.1222,-1.1203,-1.1203,-1.1236,-1.1416,-1.1609,-1.1789,-1.1789,-1.2035,-1.2361,-1.2176,-1.2238,-1.2413,-1.696,-1.7157,-1.7326,-1.7326,-1.7326,-1.7326,-1.7326,-1.7326,-1.7326,-1.7326,-1.7326,-1.7355,-1.7428,-1.7662,-1.7816,-1.7816,-1.7816,-1.7955,-1.8284,-1.8064,-1.7918,-1.7918,-1.8408,-1.8599,-1.8408,-1.873,-1.9023,-1.9279,-1.9279,-1.9279,-1.9279,-1.9279,-1.9279,-1.9279,-1.9279,-1.9279,-1.9279,-1.9279,-1.9133,-1.8884,-1.8738,-1.8379,-1.7904,-1.7765,-1.7552,-1.7326,-1.7326,-1.7326,-1.7326,-1.7326,-1.7326,-1.7326,-1.7326,-1.7326,-1.7326,-1.7326,-1.7326,-1.7326,-1.7326,-1.7274,-1.7223,-1.7223,-1.6982,-1.6601,-1.6045,-1.5665,-1.5431,-1.5431,-1.4831,-1.4122,-1.3132,-1.2289,-1.1503,-1.0375,-1.0206,-1.0145,-1.0062,-1.0038,-1.0038,-1.0038,-1.0038,-1.0038,-1.0038,-1.0107,-1.0131,-0.9984,-1.052,-1.0844,-1.0791,-1.1085,-1.1194,-1.1194,-1.1194,-1.1194,-1.1194,-1.1194,-1.1194,-1.1194,-1.1194,-1.1194,-1.1194,-1.1194,-1.1288,-1.1439,-1.1269,-1.1293,-1.1439,-1.1316,-1.1392,-1.1581,-1.1581,-1.1732,-1.1945,-1.1902,-1.202,-1.2228,-1.6911,-1.6989,-1.715,-1.7304,-1.7326,-1.7326,-1.7326,-1.7326,-1.7326,-1.7326,-1.7326,-1.7326,-1.7326,-1.7618,-1.7816,-1.7816,-1.7669,-1.7655,-1.783,-1.7823,-1.7743,-1.7589,-1.8211,-1.8474,-1.8306,-1.8621,-1.895,-1.9279,-1.9279,-1.9279,-1.9279,-1.9279,-1.9279,-1.9279,-1.9279,-1.9279,-1.9279,-1.9279,-1.9089,-1.8774,-1.8621,-1.8255,-1.7801,-1.764,-1.7479,-1.7326,-1.7326,-1.7326,-1.7326,-1.7326,-1.6951,-1.656,-1.656,-1.656,-1.656,-1.656,-1.6943,-1.7326,-1.7326,-1.7326,-1.7326,-1.7326,-1.7091,-1.6733,-1.6243,-1.5891,-1.5613,-1.546,-1.4741,-1.3841,-1.304,-1.211,-1.1159,-1.0293,-1.0121,-1.0078,-1.0052,-1.0038,-1.0038,-1.0038,-1.0038,-1.0038,-1.0038,-1.0143,-1.0201,-1.0299,-1.0612,-1.083,-1.1023,-1.1137,-1.1194,-1.1194,-1.1194,-1.1194,-1.1194,-1.1194,-1.1194,-1.1194,-1.1194,-1.1194,-1.1194,-1.1194,-1.1255,-1.1354,-1.1246,-1.126,-1.1364,-1.1354,-1.1416,-1.152,-1.152,-1.1638,-1.1803,-1.1709,-1.1808,-1.2016,-1.6711,-1.6821,-1.6952,-1.7274,-1.7326,-1.7326,-1.7326,-1.7326,-1.7326,-1.7326,-1.7326,-1.7326,-1.7326,-1.7574,-1.7757,-1.7808,-1.7516,-1.7326,-1.7326,-1.7582,-1.764,-1.7421,-1.7933,-1.8247,-1.8299,-1.8621,-1.895,-1.9279,-1.9279,-1.9279,-1.9279,-1.9279,-1.9279,-1.9279,-1.9279,-1.9279,-1.9279,-1.9279,-1.906,-1.8686,-1.8408,-1.8072,-1.7699,-1.7428,-1.7326,-1.7326,-1.7326,-1.7326,-1.7326,-1.7326,-1.6655,-1.5798,-1.5798,-1.5704,-1.5514,-1.5514,-1.6278,-1.7044,-1.7044,-1.7138,-1.7326,-1.7326,-1.7128,-1.685,-1.6528,-1.6213,-1.5921,-1.5643,-1.4725,-1.3769,-1.2985,-1.1956,-1.0912,-1.0187,-1.0095,-1.0081,-1.0043,-1.0038,-1.0038,-1.0038,-1.0038,-1.0038,-1.0038,-1.0012,-1.0197,-1.0449,-1.0636,-1.083,-1.1179,-1.1194,-1.1194,-1.1194,-1.1194,-1.1194,-1.1194,-1.1194,-1.1194,-1.1194,-1.1194,-1.1194,-1.1194,-1.1194,-1.1194,-1.1194,-1.1194,-1.1194,-1.1208,-1.1387,-1.1463,-1.1463,-1.1463,-1.1567,-1.1694,-1.1567,-1.1624,-1.1798,-1.6374,-1.666,-1.6952,-1.7274,-1.7326,-1.7326,-1.7326,-1.7326,-1.7326,-1.7326,-1.7326,-1.7326,-1.7326,-1.7369,-1.7508,-1.7786,-1.7516,-1.7326,-1.7326,-1.7369,-1.7501,-1.7735,-1.7838,-1.8013,-1.8291,-1.8621,-1.895,-1.9279,-1.9279,-1.9279,-1.9279,-1.9279,-1.9279,-1.9279,-1.9279,-1.9279,-1.9279,-1.9279,-1.8921,-1.8364,-1.8321,-1.794,-1.7391,-1.7347,-1.7326,-1.7326,-1.7326,-1.7326,-1.7326,-1.7326,-1.6655,-1.5798,-1.5798,-1.5222,-1.4459,-1.4459,-1.5222,-1.5988,-1.5988,-1.6655,-1.7326,-1.7326,-1.7296,-1.7179,-1.6865,-1.6535,-1.6294,-1.625,-1.481,-1.356,-1.3381,-1.1935,-1.0611,-1.0348,-1.023,-1.0164,-0.9979,-1.0038,-1.0038,-1.0038,-1.0038,-1.0038,-1.0038,-1.0182,-1.0315,-1.008,-1.0705,-1.1137,-1.1194,-1.1194,-1.1194,-1.1194,-1.1194,-1.1194,-1.1194,-1.1194,-1.1194,-1.1194,-1.1194,-1.1194,-1.1194,-1.1194,-1.1194,-1.1194,-1.1194,-1.1194,-1.1198,-1.1227,-1.1241,-1.1241,-1.1241,-1.1255,-1.1298,-1.1458,-1.1534,-1.1586,-1.6272,-1.6484,-1.674,-1.7238,-1.7326,-1.7326,-1.7326,-1.7326,-1.7326,-1.7326,-1.7326,-1.7326,-1.7326,-1.7326,-1.7384,-1.753,-1.7413,-1.7326,-1.7326,-1.7501,-1.7582,-1.7545,-1.7889,-1.8152,-1.8299,-1.8445,-1.8672,-1.9001,-1.9184,-1.9279,-1.9279,-1.9279,-1.9279,-1.9279,-1.9279,-1.9279,-1.9279,-1.9279,-1.9001,-1.8577,-1.8577,-1.8182,-1.7604,-1.7604,-1.7604,-1.7604,-1.7604,-1.7094,-1.6466,-1.6466,-1.5412,-1.407,-1.407,-1.3782,-1.3403,-1.3403,-1.4166,-1.5127,-1.5609,-1.6082,-1.656,-1.7138,-1.7326,-1.7296,-1.715,-1.6536,-1.6148,-1.6351,-1.4834,-1.3483,-1.3483,-1.1839,-1.0376,-1.0286,-1.0173,-1.006,-1.0052,-1.0038,-1.0038,-1.0038,-1.0038,-0.9998,-1.0121,-1.0201,-1.0209,-1.0336,-1.0719,-1.1075,-1.1189,-1.1194,-1.1194,-1.1194,-1.1194,-1.1194,-1.1194,-1.1194,-1.1194,-1.1194,-1.1194,-1.1194,-1.1194,-1.1194,-1.1194,-1.1194,-1.1194,-1.1194,-1.1194,-1.1194,-1.1194,-1.1194,-1.1194,-1.1194,-1.1208,-1.1302,-1.1335,-1.1368]},{"header":{"parameterUnit":"m.s-1","parameterCategory":1,"la1":30.6,"la2":28.766,"lo1":-90.7593,"lo2":-88.6598,"dy":0.0162,"dx":0.0183,"nx":116,"ny":114,"refTime":"2024-06-26T06:00:00:Z","depth":0,"parameterNumber":3,"parameterNumberName":"V-component_of_WINDS"},"data":[0.0,0.0,0.0,0.0,0.0,0.0,0.0,0.0,0.0,0.0,0.0,0.0,0.0,0.0,0.0,0.0,0.0,0.0,0.0,0.0,0.0,0.0,0.0,0.0,0.0,0.0,0.0,0.0,0.0,0.0,0.0,0.0,0.0,0.0,0.0,0.0,0.0,0.0,0.0,0.0,0.0,0.0,0.0,0.0,0.0,0.0,0.0,0.0,0.0,0.0,0.0,0.0,0.0,0.0,0.0,0.0,0.0,0.0,0.0,0.0,0.0,0.0,0.0,0.0,0.0,0.0,0.0,0.0,0.0,0.0,0.0,0.0,0.0,0.0,0.0,0.0,0.0,0.0,0.0,0.0,0.0,0.0,0.0,0.0,0.0,0.0,0.0,0.0,0.0,0.0,0.0,0.0,0.0,0.0,0.0,0.0,0.0,0.0,0.0,0.0,0.0,0.0,0.0,0.0,0.0,0.0,0.0,0.0,0.0,0.0,0.0,0.0,0.0,0.0,0.0,0.0,0.0,0.0,0.0,0.0,0.0,0.0,0.0,0.0,0.0,0.0,0.0,0.0,0.0,0.0,0.0,0.0,0.0,0.0,0.0,0.0,0.0,0.0,0.0,0.0,0.0,0.0,0.0,0.0,0.0,0.0,0.0,0.0,0.0,0.0,0.0,0.0,0.0,0.0,0.0,0.0,0.0,0.0,0.0,0.0,0.0,0.0,0.0,0.0,0.0,0.0,0.0,0.0,0.0,0.0,0.0,0.0,0.0,0.0,0.0,0.0,0.0,0.0,0.0,0.0,0.0,0.0,0.0,0.0,0.0,0.0,0.0,0.0,0.0,0.0,0.0,0.0,0.0,0.0,0.0,0.0,0.0,0.0,0.0,0.0,0.0,0.0,0.0,0.0,0.0,0.0,0.0,0.0,0.0,0.0,0.0,0.0,0.0,0.0,0.0,0.0,0.0,0.0,0.0,0.0,0.0,0.0,0.0,0.0,0.0,0.0,0.0,0.0,0.0,0.0,0.0,0.0,0.0,0.0,0.0,0.0,0.0,0.0,0.0,0.0,0.0,0.0,0.0,0.0,0.0,0.0,0.0,0.0,0.0,0.0,0.0,0.0,0.0,0.0,0.0,0.0,0.0,0.0,0.0,0.0,0.0,0.0,0.0,0.0,0.0,0.0,0.0,0.0,0.0,0.0,0.0,0.0,0.0,0.0,0.0,0.0,0.0,0.0,0.0,0.0,0.0,0.0,0.0,0.0,0.0,0.0,0.0,0.0,0.0,0.0,0.0,0.0,0.0,0.0,0.0,0.0,0.0,0.0,0.0,0.0,0.0,0.0,0.0,0.0,0.0,0.0,0.0,0.0,0.0,0.0,0.0,0.0,0.0,0.0,0.0,0.0,0.0,0.0,0.0,0.0,0.0,0.0,0.0,0.0,0.0,0.0,0.0,0.0,0.0,0.0,0.0,0.0,0.0,0.0,0.0,0.0,0.0,0.0,0.0,0.0,0.0,0.0,0.0,0.0,0.0,0.0,0.0,0.0,0.0,0.0,0.0,0.0,0.0,0.0,0.0,0.0,0.0,0.0,0.0,0.0,0.0,0.0,0.0,0.0,0.0,0.0,0.0,0.0,0.0,0.0,0.0,0.0,0.0,0.0,0.0,0.0,0.0,0.0,0.0,0.0,0.0,0.0,0.0,0.0,0.0,0.0,0.0,0.0,0.0,0.0,0.0,0.0,0.0,0.0,0.0,0.0,0.0,0.0,0.0,0.0,0.0,0.0,0.0,0.0,0.0,0.0,0.0,0.0,0.0,0.0,0.0,0.0,0.0,0.0,0.0,0.0,0.0,0.0,0.0,0.0,0.0,0.0,0.0,0.0,0.0,0.0,0.0,0.0,0.0,0.0,0.0,0.0,0.0,0.0,0.0,0.0,0.0,0.0,0.0,0.0,0.0,0.0,0.0,0.0,0.0,0.0,0.0,0.0,0.0,0.0,0.0,0.0,0.0,0.0,0.0,0.0,0.0,0.0,0.0,0.0,0.0,0.0,0.0,0.0,0.0,0.0,0.0,0.0,0.0,0.0,0.0,0.0,0.0,0.0,0.0,0.0,0.0,0.0,0.0,0.0,0.0,0.0,0.0,0.0,0.0,0.0,0.0,0.0,0.0,0.0,0.0,0.0,0.0,0.0,0.0,0.0,0.0,0.0,0.0,0.0,0.0,0.0,0.0,0.0,0.0,0.0,0.0,0.0,0.0,0.0,0.0,0.0,0.0,0.0,0.0,0.0,0.0,0.0,0.0,0.0,0.0,0.0,0.0,0.0,0.0,0.0,0.0,0.0,0.0,0.0,0.0,0.0,0.0,0.0,0.0,0.0,0.0,0.0,0.0,0.0,0.0,0.0,0.0,0.0,0.0,0.0,0.0,0.0,0.0,0.0,0.0,0.0,0.0,0.0,0.0,0.0,0.0,0.0,0.0,0.0,0.0,0.0,0.0,0.0,0.0,0.0,0.0,0.0,0.0,0.0,0.0,0.0,0.0,0.0,0.0,0.0,0.0,0.0,0.0,0.0,0.0,0.0,0.0,0.0,0.0,0.0,0.0,0.0,0.0,0.0,0.0,0.0,0.0,0.0,0.0,0.0,0.0,0.0,0.0,0.0,0.0,0.0,0.0,0.0,0.0,0.0,0.0,0.0,0.0,0.0,0.0,0.0,0.0,0.0,0.0,0.0,0.0,0.0,0.0,0.0,0.0,0.0,0.0,0.0,0.0,0.0,0.0,0.0,0.0,0.0,0.0,0.0,0.0,0.0,0.0,0.0,0.0,0.0,0.0,0.0,0.0,0.0,0.0,0.0,0.0,0.0,0.0,0.0,0.0,0.0,0.0,0.0,0.0,0.0,0.0,0.0,0.0,0.0,0.0,0.0,0.0,0.0,0.0,0.0,0.0,0.0,0.0,0.0,0.0,0.0,0.0,0.0,0.0,0.0,0.0,0.0,0.0,0.0,0.0,0.0,0.0,0.0,0.0,0.0,0.0,0.0,0.0,0.0,0.0,0.0,0.0,0.0,0.0,0.0,0.0,0.0,0.0,0.0,0.0,0.0,0.0,0.0,0.0,0.0,0.0,0.0,0.0,0.0,0.0,0.0,0.0,0.0,0.0,0.0,0.0,0.0,0.0,0.0,0.0,0.0,0.0,0.0,0.0,0.0,0.0,0.0,0.0,0.0,0.0,0.0,0.0,0.0,0.0,0.0,0.0,0.0,0.0,0.0,0.0,0.0,0.0,0.0,0.0,0.0,0.0,0.0,0.0,0.0,0.0,0.0,0.0,0.0,0.0,0.0,0.0,0.0,0.0,0.0,0.0,0.0,0.0,0.0,0.0,0.0,0.0,0.0,0.0,0.0,0.0,0.0,0.0,0.0,0.0,0.0,0.0,0.0,0.0,0.0,0.0,0.0,0.0,0.0,0.0,0.0,0.0,0.0,0.0,0.0,0.0,0.0,0.0,0.0,0.0,0.0,0.0,0.0,0.0,0.0,0.0,0.0,0.0,0.0,0.0,0.0,0.0,0.0,0.0,0.0,0.0,0.0,0.0,0.0,0.0,0.0,0.0,0.0,0.0,0.0,0.0,0.0,0.0,0.0,0.0,0.0,0.0,0.0,0.0,0.0,0.0,0.0,0.0,0.0,0.0,0.0,0.0,0.0,0.0,0.0,0.0,0.0,0.0,0.0,0.0,0.0,0.0,0.0,0.0,0.0,0.0,0.0,0.0,0.0,0.0,0.0,0.0,0.0,0.0,0.0,0.0,0.0,0.0,0.0,0.0,0.0,0.0,0.0,0.0,0.0,0.0,0.0,0.0,0.0,0.0,0.0,0.0,0.0,0.0,0.0,0.0,0.0,0.0,0.0,0.0,0.0,0.0,0.0,0.0,0.0,0.0,0.0,0.0,0.0,0.0,0.0,0.0,0.0,0.0,0.0,0.0,0.0,0.0,0.0,0.0,0.0,0.0,0.0,0.0,0.0,0.0,0.0,0.0,0.0,0.0,0.0,0.0,0.0,0.0,0.0,0.0,0.0,0.0,0.0,0.0,0.0,0.0,0.0,0.0,0.0,0.0,0.0,0.0,0.0,0.0,0.0,0.0,0.0,0.0,0.0,0.0,0.0,0.0,0.0,0.0,0.0,0.0,0.0,0.0,0.0,0.0,0.0,0.0,0.0,0.0,0.0,0.0,0.0,0.0,0.0,0.0,0.0,0.0,0.0,0.0,0.0,0.0,0.0,0.0,0.0,0.0,0.0,0.0,0.0,0.0,0.0,0.0,0.0,0.0,0.0,0.0,0.0,0.0,0.0,0.0,0.0,0.0,0.0,0.0,0.0,0.0,0.0,0.0,0.0,0.0,0.0,0.0,0.0,0.0,0.0,0.0,0.0,0.0,0.0,0.0,0.0,0.0,0.0,0.0,0.0,0.0,0.0,0.0,0.0,0.0,0.0,0.0,0.0,0.0,0.0,0.0,0.0,0.0,0.0,0.0,0.0,0.0,0.0,0.0,0.0,0.0,0.0,0.0,0.0,0.0,0.0,0.0,0.0,0.0,0.0,0.0,0.0,0.0,0.0,0.0,0.0,0.0,0.0,0.0,0.0,0.0,0.0,0.0,0.0,0.0,0.0,0.0,0.0,0.0,0.0,0.0,0.0,0.0,0.0,0.0,0.0,0.0,0.0,0.0,0.0,0.0,0.0,0.0,0.0,0.0,0.0,0.0,0.0,0.0,0.0,0.0,0.0,0.0,0.0,0.0,0.0,0.0,0.0,0.0,0.0,0.0,0.0,0.0,0.0,0.0,0.0,0.0,0.0,0.0,0.0,0.0,0.0,0.0,0.0,0.0,0.0,0.0,0.0,0.0,0.0,0.0,0.0,0.0,0.0,0.0,0.0,0.0,0.0,0.0,0.0,0.0,0.0,0.0,0.0,0.0,0.0,0.0,0.0,0.0,0.0,0.0,0.0,0.0,0.0,0.0,0.0,0.0,0.0,0.0,0.0,0.0,0.0,0.0,0.0,0.0,0.0,0.0,0.0,0.0,0.0,0.0,0.0,0.0,0.0,0.0,0.0,0.0,0.0,0.0,0.0,0.0,0.0,0.0,0.0,0.0,0.0,0.0,0.0,0.0,0.0,0.0,0.0,0.0,0.0,0.0,0.0,0.0,0.0,0.0,0.0,0.0,0.0,0.0,0.0,0.0,0.0,0.0,0.0,0.0,0.0,0.0,0.0,0.0,0.0,0.0,0.0,0.0,0.0,0.0,0.0,0.0,0.0,0.0,0.0,0.0,0.0,0.0,0.0,0.0,0.0,0.0,0.0,0.0,0.0,0.0,0.0,0.0,0.0,0.0,0.0,0.0,0.0,0.0,0.0,0.0,0.0,0.0,0.0,0.0,0.0,0.0,0.0,0.0,0.0,0.0,0.0,0.0,0.0,0.0,0.0,0.0,0.0,0.0,0.0,0.0,0.0,0.0,0.0,0.0,0.0,0.0,0.0,0.0,0.0,0.0,0.0,0.0,0.0,0.0,0.0,0.0,0.0,0.0,0.0,0.0,0.0,0.0,0.0,0.0,0.0,0.0,0.0,0.0,0.0,0.0,0.0,0.0,0.0,0.0,0.0,0.0,0.0,0.0,0.0,0.0,0.0,0.0,0.0,0.0,0.0,0.0,0.0,0.0,0.0,0.0,0.0,0.0,0.0,0.0,0.0,0.0,0.0,0.0,0.0,0.0,0.0,0.0,0.0,0.0,0.0,0.0,0.0,0.0,0.0,0.0,0.0,0.0,0.0,0.0,0.0,0.0,0.0,0.0,0.0,0.0,0.0,0.0,0.0,0.0,0.0,0.0,0.0,0.0,0.0,0.0,0.0,0.0,0.0,0.0,0.0,0.0,0.0,0.0,0.0,0.0,0.0,0.0,0.0,0.0,0.0,0.0,0.0,0.0,0.0,0.0,0.0,0.0,0.0,0.0,0.0,0.0,0.0,0.0,0.0,0.0,0.0,0.0,0.0,0.0,0.0,0.0,0.0,0.0,0.0,0.0,0.0,0.0,0.0,0.0,0.0,0.0,0.0,-3.2664,-3.2087,0.0,0.0,0.0,0.0,0.0,0.0,0.0,0.0,0.0,0.0,0.0,0.0,0.0,0.0,0.0,0.0,0.0,0.0,0.0,0.0,0.0,0.0,0.0,-2.8193,-2.889,-3.0643,-3.0799,-3.0799,-3.0799,0.0,0.0,0.0,0.0,0.0,-2.8212,-2.7355,-2.6889,-2.6848,-2.587,-2.5293,-2.5099,-2.5076,-2.5057,-2.505,0.0,0.0,0.0,0.0,0.0,0.0,0.0,0.0,0.0,0.0,0.0,0.0,0.0,0.0,0.0,0.0,0.0,0.0,0.0,0.0,0.0,0.0,0.0,0.0,0.0,0.0,0.0,0.0,0.0,0.0,0.0,0.0,0.0,0.0,0.0,0.0,0.0,0.0,0.0,0.0,0.0,0.0,0.0,0.0,0.0,0.0,0.0,0.0,0.0,0.0,0.0,0.0,0.0,0.0,0.0,0.0,0.0,0.0,0.0,0.0,0.0,0.0,0.0,0.0,0.0,0.0,0.0,0.0,0.0,0.0,-3.506,-3.4111,0.0,0.0,0.0,0.0,0.0,0.0,0.0,0.0,0.0,0.0,0.0,0.0,0.0,0.0,0.0,0.0,0.0,0.0,0.0,0.0,0.0,-2.4394,-2.7823,-2.8193,-2.889,-3.0643,-3.0799,-3.0799,-3.0799,-3.0799,0.0,0.0,0.0,-2.9396,-2.868,-2.7803,-2.7342,-2.7326,-2.6146,-2.5378,-2.4999,-2.4991,-2.501,0.0,-2.5143,0.0,0.0,0.0,0.0,0.0,0.0,0.0,0.0,0.0,0.0,0.0,0.0,0.0,0.0,0.0,0.0,0.0,0.0,0.0,0.0,0.0,0.0,0.0,0.0,0.0,0.0,0.0,0.0,0.0,0.0,0.0,0.0,0.0,0.0,0.0,0.0,0.0,0.0,0.0,0.0,0.0,0.0,0.0,0.0,0.0,0.0,0.0,0.0,0.0,0.0,0.0,0.0,0.0,0.0,0.0,0.0,0.0,0.0,0.0,0.0,0.0,0.0,0.0,-3.9731,-3.997,-3.9921,-3.9762,-3.9863,-4.0062,-3.7917,-3.6871,-3.6616,-3.649,0.0,0.0,0.0,0.0,0.0,0.0,0.0,0.0,0.0,0.0,0.0,0.0,0.0,0.0,0.0,0.0,0.0,0.0,0.0,-2.4394,-2.7823,-2.8193,-2.889,-3.0643,-3.0799,-3.0799,-3.0799,-3.0799,0.0,0.0,-3.0624,-3.0565,-3.0468,-2.9591,-2.9094,-2.898,-2.7161,-2.5817,-2.4991,0.0,0.0,0.0,-2.5734,-2.5644,0.0,0.0,0.0,0.0,0.0,0.0,0.0,0.0,0.0,0.0,0.0,0.0,0.0,0.0,0.0,0.0,0.0,0.0,0.0,0.0,0.0,0.0,0.0,0.0,0.0,0.0,0.0,0.0,0.0,0.0,0.0,0.0,0.0,0.0,0.0,0.0,0.0,0.0,0.0,0.0,0.0,0.0,-3.1539,-3.2343,0.0,0.0,0.0,0.0,0.0,0.0,0.0,0.0,0.0,0.0,0.0,0.0,0.0,-3.8776,-3.957,-4.0442,-4.0877,-4.0877,-4.1647,-4.1912,-4.1668,-4.1623,-4.152,-4.133,-4.1642,0.0,-3.984,-3.9188,0.0,0.0,0.0,0.0,0.0,0.0,0.0,0.0,0.0,0.0,0.0,0.0,0.0,0.0,0.0,0.0,0.0,0.0,0.0,0.0,0.0,-2.7472,-2.8173,-2.9922,-2.9611,-2.9747,-3.074,0.0,0.0,-3.0779,-3.0799,-3.0799,-3.0799,-2.9942,-2.8941,-2.7791,-2.6847,-2.5914,0.0,0.0,0.0,0.0,-2.6559,-2.6458,0.0,0.0,0.0,0.0,0.0,0.0,0.0,0.0,0.0,0.0,0.0,0.0,0.0,0.0,0.0,0.0,0.0,0.0,0.0,0.0,0.0,0.0,0.0,0.0,0.0,0.0,0.0,0.0,0.0,0.0,0.0,0.0,0.0,0.0,0.0,0.0,0.0,0.0,0.0,0.0,0.0,-3.1764,-3.2934,-3.3293,-3.3703,-3.3954,0.0,0.0,0.0,0.0,0.0,0.0,0.0,0.0,0.0,-4.0063,-4.01,-4.0498,-4.1313,-4.2185,-4.2621,-4.2621,-4.3417,-4.3748,-4.363,-4.363,-4.3439,-4.3147,-4.3502,-4.3181,-4.2353,-4.1363,-4.051,-3.971,0.0,0.0,0.0,0.0,-3.8971,-3.9079,0.0,0.0,0.0,0.0,0.0,0.0,0.0,0.0,0.0,0.0,0.0,0.0,-2.6712,-2.6907,-2.7511,-2.9026,-2.8777,0.0,0.0,0.0,-3.002,-3.0448,-3.0682,-3.0799,-3.0799,-3.0105,-2.8812,-2.6938,-2.6753,0.0,0.0,0.0,0.0,0.0,0.0,0.0,0.0,0.0,0.0,0.0,0.0,0.0,0.0,0.0,0.0,0.0,0.0,0.0,0.0,0.0,0.0,0.0,0.0,0.0,0.0,0.0,0.0,0.0,0.0,0.0,0.0,0.0,0.0,0.0,0.0,0.0,0.0,0.0,0.0,0.0,0.0,0.0,0.0,0.0,0.0,0.0,0.0,-3.3312,-3.4194,-3.4227,-3.5056,-3.5552,0.0,0.0,0.0,0.0,0.0,0.0,-3.9589,-3.9646,-4.0309,-4.1787,-4.2052,-4.2545,-4.336,-4.4213,-4.4535,-4.4345,-4.4952,-4.5122,-4.4914,-4.5122,-4.5098,-4.485,-4.5076,-4.504,-4.4685,-4.3463,-4.2488,-4.177,-4.1711,-4.1572,-4.1389,-4.1303,-4.1286,-4.1342,0.0,0.0,0.0,0.0,0.0,0.0,0.0,0.0,0.0,0.0,0.0,-2.5036,-2.6712,0.0,-2.7277,-2.8193,-2.8987,-2.9124,0.0,0.0,-3.037,-2.9591,-3.0351,-3.0799,-3.0799,-3.051,0.0,0.0,0.0,0.0,0.0,0.0,0.0,0.0,0.0,0.0,0.0,0.0,0.0,0.0,0.0,0.0,0.0,0.0,0.0,0.0,0.0,0.0,0.0,0.0,0.0,0.0,0.0,0.0,0.0,0.0,0.0,0.0,0.0,0.0,0.0,0.0,0.0,0.0,0.0,0.0,0.0,0.0,0.0,0.0,0.0,0.0,0.0,0.0,0.0,0.0,0.0,0.0,0.0,-3.5107,-3.6407,0.0,0.0,0.0,0.0,-3.9665,-4.0517,-4.137,-4.2185,-4.2223,-4.264,-4.3549,-4.4326,-4.5122,-4.5994,-4.6809,-4.6828,-4.607,-4.6108,-4.5691,-4.4933,-4.5767,-4.6127,-4.614,-4.6916,-4.7238,-4.711,-4.566,-4.4562,-4.3924,-4.4668,-4.4482,-4.3794,-4.3446,-4.3348,-4.3314,0.0,0.0,0.0,-2.0558,-2.05,-2.0792,-2.1669,-2.227,-2.3069,-2.4257,-2.4881,-2.5465,0.0,-2.5621,-2.5855,-2.7238,0.0,0.0,0.0,0.0,-2.924,-2.9494,-3.0331,-3.0799,-3.0799,-3.0587,-2.9621,0.0,0.0,0.0,0.0,0.0,0.0,0.0,0.0,0.0,0.0,0.0,0.0,0.0,0.0,0.0,0.0,0.0,0.0,0.0,0.0,0.0,0.0,0.0,0.0,0.0,0.0,0.0,0.0,0.0,0.0,0.0,0.0,0.0,0.0,0.0,0.0,0.0,0.0,0.0,0.0,0.0,0.0,0.0,0.0,0.0,0.0,0.0,0.0,0.0,0.0,0.0,0.0,-3.7562,-3.8479,0.0,-3.8823,-3.973,-4.0463,-4.077,-4.1544,-4.2583,-4.3947,-4.4023,-4.4649,-4.6032,-4.6354,-4.6657,-4.6961,-4.7264,-4.7264,-4.6961,-4.6961,-4.6809,-4.6525,-4.6828,-4.6961,-4.698,-4.7283,-4.7397,-4.7416,-4.7428,-4.6844,-4.587,-4.5935,-4.5797,-4.5536,-4.5426,-4.536,-4.536,-2.0324,-2.05,0.0,-2.05,-2.05,-2.089,-2.2055,-2.2737,-2.3517,-2.4686,-2.5348,-2.5582,0.0,0.0,0.0,0.0,0.0,0.0,0.0,0.0,-2.8777,-2.9046,-3.0175,-3.0799,-3.0799,-3.0365,0.0,0.0,0.0,0.0,0.0,0.0,0.0,0.0,0.0,0.0,0.0,0.0,0.0,0.0,0.0,0.0,-2.846,0.0,0.0,0.0,0.0,0.0,0.0,0.0,0.0,0.0,0.0,0.0,0.0,0.0,0.0,0.0,0.0,0.0,0.0,0.0,0.0,0.0,0.0,0.0,0.0,0.0,0.0,0.0,0.0,0.0,0.0,0.0,0.0,0.0,0.0,0.0,-3.8537,-3.8955,-4.0078,-4.0758,-4.0615,-4.1478,-4.2189,-4.2522,-4.3232,-4.4289,-4.5672,-4.5748,-4.6241,-4.7359,-4.7681,-4.7832,-4.7832,-4.8098,-4.8098,-4.7832,-4.7832,-4.7681,-4.7397,-4.77,-4.7832,-4.7851,-4.8117,-4.823,-4.8287,-4.8856,-4.8615,-4.7871,-4.7676,-4.7566,-4.7529,-4.7143,-4.7018,-4.7018,-2.0324,-2.05,-2.05,-2.05,-2.0519,-2.1123,-2.2835,-2.3127,-2.3751,-2.5485,-2.5699,-2.5368,0.0,0.0,0.0,0.0,0.0,0.0,0.0,-2.8056,-2.9104,-2.8329,-2.9903,-3.0799,-3.0799,0.0,0.0,0.0,0.0,0.0,0.0,0.0,0.0,0.0,0.0,0.0,0.0,0.0,0.0,0.0,0.0,0.0,-3.0109,0.0,0.0,0.0,0.0,0.0,0.0,0.0,0.0,0.0,0.0,0.0,0.0,0.0,0.0,0.0,0.0,0.0,0.0,0.0,0.0,0.0,0.0,0.0,0.0,0.0,0.0,0.0,0.0,0.0,0.0,0.0,0.0,0.0,-3.8016,-3.9049,-3.9787,-3.9204,-4.1102,-4.2196,-4.1587,-4.2883,-4.4123,-4.4991,-4.5797,-4.6582,-4.7397,-4.7434,-4.7453,-4.7472,-4.8287,-4.8723,-4.8723,-4.95,-4.95,-4.8723,-4.8723,-4.8287,-4.751,-4.8344,-4.8723,-4.8761,-4.9557,-4.9898,-4.9898,-4.9898,-4.9898,-4.9898,-4.9898,-4.9898,-4.9757,-4.8644,-4.8254,-4.8254,-2.0208,-2.05,-2.05,-2.05,-2.1026,-2.1825,-2.2932,-2.3634,-2.4432,-2.5543,-2.5699,0.0,0.0,0.0,0.0,0.0,0.0,-2.4355,-2.5621,-2.7491,-2.9007,-3.0039,-3.0546,0.0,0.0,0.0,0.0,0.0,0.0,0.0,0.0,0.0,0.0,0.0,0.0,0.0,0.0,0.0,0.0,0.0,0.0,0.0,-3.0185,0.0,0.0,0.0,0.0,0.0,0.0,0.0,0.0,0.0,0.0,0.0,0.0,0.0,0.0,0.0,0.0,0.0,0.0,0.0,0.0,0.0,0.0,0.0,0.0,0.0,0.0,0.0,0.0,0.0,0.0,0.0,-3.9174,-4.023,-3.9585,-4.0819,-4.1974,-4.2503,-4.3064,-4.3608,-4.4124,-4.4976,-4.5621,-4.5922,-4.6651,-4.7434,-4.8287,-4.8325,-4.8609,-4.9178,-4.9443,-4.9557,-4.9557,-4.9784,-4.9784,-4.9557,-4.9557,-4.9424,-4.9216,-4.9443,-4.9557,-4.9576,-4.9784,-4.9898,-4.9898,-4.9898,-4.9898,-4.9898,-4.9898,-4.9898,-4.986,-4.9551,-4.9428,-4.9428,-2.0169,-2.05,-2.05,-2.05,-2.1221,-2.2094,-2.2971,-2.3848,-2.4705,-2.5582,-2.5699,0.0,0.0,0.0,0.0,0.0,0.0,-2.4222,-2.5609,-2.7616,-2.9366,0.0,0.0,0.0,0.0,0.0,0.0,0.0,0.0,0.0,0.0,0.0,0.0,0.0,0.0,0.0,0.0,0.0,0.0,0.0,0.0,0.0,-3.0242,-3.0352,-3.0369,-3.0394,-3.0472,-3.051,-3.0491,-3.0472,0.0,0.0,0.0,0.0,0.0,0.0,0.0,0.0,0.0,0.0,0.0,0.0,0.0,0.0,0.0,0.0,0.0,0.0,0.0,0.0,0.0,0.0,0.0,0.0,-4.0919,-4.204,-4.1896,-4.2536,-4.3206,-4.3773,-4.4429,-4.5052,-4.5643,-4.6301,-4.6872,-4.7308,-4.7732,-4.8306,-4.914,-4.9197,-4.9405,-4.9879,-4.9898,-4.9898,-4.9898,-4.9898,-4.9898,-4.9898,-4.9898,-4.9898,-4.9898,-4.9898,-4.9898,-4.9898,-4.9898,-4.9898,-4.9898,-4.9898,-4.9898,-4.9898,0.0,0.0,0.0,0.0,-4.9898,-4.9925,-2.0344,-2.0734,-2.0792,-2.0792,-2.1513,-2.2348,-2.3127,-2.3984,-2.4822,-2.5601,0.0,0.0,0.0,0.0,0.0,0.0,0.0,-2.5005,0.0,0.0,0.0,-3.0765,0.0,0.0,0.0,0.0,0.0,0.0,0.0,0.0,0.0,0.0,0.0,0.0,0.0,0.0,0.0,0.0,0.0,0.0,0.0,0.0,-3.035,-3.0465,-3.0511,-3.0507,-3.0526,-3.0526,-3.0526,-3.0526,0.0,0.0,0.0,0.0,0.0,0.0,0.0,0.0,0.0,0.0,0.0,0.0,0.0,0.0,0.0,0.0,0.0,0.0,0.0,0.0,0.0,0.0,0.0,0.0,-4.2944,-4.4322,-4.4322,-4.4048,-4.3885,-4.3942,-4.5295,-4.6252,-4.6397,-4.7093,-4.7877,-4.8732,-4.8833,-4.914,-4.9841,-4.9898,0.0,0.0,0.0,-4.9898,-4.9898,-4.9898,-4.9898,-4.9898,-4.9898,-4.9898,-4.9898,-4.9898,-4.9898,-4.9898,-4.9898,-4.9898,-4.9898,-4.9898,-4.9898,-4.9898,-4.9898,-4.9898,-4.9898,-4.9898,-4.9898,-4.9898,-2.1357,-2.2114,-2.2601,-2.2601,-2.3322,-2.3945,-2.4121,-2.4881,-2.5504,-2.5679,-2.5699,0.0,0.0,0.0,0.0,0.0,0.0,0.0,0.0,0.0,0.0,0.0,0.0,0.0,0.0,0.0,0.0,0.0,0.0,0.0,0.0,0.0,0.0,0.0,0.0,0.0,0.0,0.0,0.0,0.0,0.0,0.0,-3.0477,-3.0555,-3.0586,-3.0585,-3.0701,-3.074,-3.074,-3.074,-3.074,-3.0701,-3.0546,0.0,0.0,0.0,0.0,0.0,0.0,0.0,0.0,0.0,0.0,0.0,0.0,0.0,0.0,0.0,0.0,0.0,0.0,0.0,0.0,-4.2801,-4.3744,-4.4565,-4.509,-4.4972,-4.4855,-4.4922,-4.568,-4.6252,-4.6397,-4.7625,-4.8541,-4.8712,-4.9318,-4.9728,-4.9879,-4.9898,-4.9898,-4.9898,-4.9898,-4.9898,-4.9898,-4.9898,-4.9898,-4.9898,-4.9898,0.0,-4.9898,-4.9898,-4.9898,-4.9898,-4.9898,-4.9898,-4.9898,-4.9898,-4.9898,-4.9898,-4.9898,-4.9898,-4.9898,-4.9898,-4.9898,-4.9898,-2.301,-2.3108,-2.3108,-2.3108,-2.3828,-2.4549,-2.4978,-2.5757,-2.6459,-2.6887,-2.6576,0.0,0.0,0.0,0.0,0.0,0.0,0.0,0.0,0.0,0.0,0.0,0.0,0.0,0.0,0.0,0.0,0.0,0.0,0.0,0.0,0.0,0.0,0.0,0.0,0.0,0.0,0.0,0.0,0.0,0.0,0.0,-2.9405,-2.9864,-3.0312,-3.0701,-3.0779,-3.0799,-3.0799,-3.0799,-3.0799,-3.0799,-3.0799,-3.1408,-3.209,0.0,0.0,0.0,0.0,0.0,0.0,0.0,0.0,0.0,0.0,0.0,0.0,0.0,0.0,-4.0409,-4.0409,0.0,-4.3727,-4.4098,-4.4722,-4.528,-4.565,-4.5505,-4.5303,-4.517,-4.6202,-4.6915,-4.6958,-4.8409,-4.9345,-4.9292,-4.9652,-4.9898,-4.9898,-4.9898,-4.9898,-4.9898,-4.9898,-4.9898,-4.9898,-4.9898,-4.9898,-4.9898,-4.9898,-4.9898,-4.9898,-4.9898,-4.9898,-4.9898,-4.9898,-4.9898,-4.9898,-4.9898,-4.9898,-4.9898,-4.9898,-4.9898,-4.9898,-4.9898,-4.9898,-4.9898,-2.4627,-2.4082,-2.3614,-2.3614,-2.4199,-2.4939,-2.5796,-2.6478,-2.7219,-2.8095,-2.7589,-2.6907,-2.6264,-2.5563,-2.4923,0.0,0.0,0.0,0.0,0.0,0.0,0.0,0.0,0.0,0.0,0.0,0.0,0.0,0.0,0.0,0.0,0.0,0.0,0.0,0.0,0.0,0.0,0.0,0.0,0.0,0.0,0.0,-2.8045,-2.8747,-2.9557,-3.0312,-3.0487,-3.0546,-3.0565,-3.074,-3.0799,-3.0799,-3.0799,-3.1408,-3.2133,-3.2294,-3.2844,0.0,0.0,0.0,0.0,0.0,0.0,0.0,0.0,0.0,-3.9006,-3.9006,-4.1033,-4.2806,-4.2806,-4.4091,-4.5144,-4.5129,-4.557,-4.5925,-4.5944,-4.5769,-4.5522,-4.5243,-4.6688,-4.7697,-4.7632,-4.9134,-5.0081,-5.0032,-5.0032,-5.0025,-4.9967,-4.9967,-4.994,-4.9879,-4.9898,-4.9898,-4.9898,-4.9898,-4.9898,-4.9898,-4.9898,-4.9898,-4.9898,-4.9898,-4.9898,-4.9898,-4.9898,-4.9898,-4.9898,-4.9898,-4.9898,-4.9898,-4.9898,-4.9898,-4.9898,-4.9898,-4.9898,-4.9898,-2.5407,-2.5485,-2.5407,-2.5407,-2.5485,-2.5835,-2.6634,-2.6848,-2.7219,-2.8095,-2.8115,-2.8017,-2.794,-2.7823,-2.8045,-2.873,0.0,0.0,0.0,0.0,0.0,0.0,0.0,0.0,0.0,0.0,0.0,0.0,0.0,0.0,0.0,0.0,0.0,0.0,0.0,0.0,0.0,0.0,0.0,0.0,0.0,0.0,-2.7133,-2.7237,-2.7771,-2.8588,-2.9372,-2.9645,-2.9762,-3.0546,-3.0799,-3.0799,-3.0799,-3.1408,-3.224,-3.3029,0.0,-3.374,-3.5284,-3.5662,-3.5814,-3.6582,-3.6921,-3.7233,0.0,0.0,-4.0818,-4.0818,-4.2844,-4.4618,-4.4618,-4.5397,-4.6018,-4.5901,-4.5949,-4.5925,-4.5764,-4.5703,-4.5655,-4.5645,-4.7053,-4.806,-4.8114,-4.9563,-5.0528,-5.0528,-5.0528,-5.0452,-5.0275,-5.0252,-5.0155,-4.9925,-4.9898,-4.9898,-4.9898,-4.9898,-4.9898,-4.9898,-4.9898,-4.9898,-4.9898,-4.9898,-4.9898,-4.9898,-4.9898,-4.9898,-4.9898,-4.9898,-4.9898,-4.9898,-4.9898,-4.9898,-4.9898,-4.9898,-4.9898,-4.9898,-2.5621,-2.5699,-2.5699,-2.5699,-2.6089,-2.6673,-2.753,-2.8095,-2.8738,-2.9591,-2.926,-2.8948,-2.8948,-2.8532,-2.8587,-2.9432,-2.923,0.0,0.0,0.0,0.0,0.0,0.0,0.0,0.0,0.0,0.0,0.0,0.0,0.0,0.0,0.0,0.0,0.0,0.0,0.0,0.0,0.0,0.0,0.0,0.0,0.0,-2.7693,-2.7189,-2.753,-2.8368,-2.9191,-2.9829,0.0,0.0,-3.0799,-3.0799,-3.0799,-3.1399,-3.2167,-3.2538,-3.3356,0.0,-3.5615,-3.6651,-3.7379,0.0,-3.7954,-3.8675,-3.8539,-3.9454,-4.0487,-4.0994,-4.2318,-4.3702,-4.4715,-4.5202,-4.5585,0.0,-4.613,-4.6093,-4.5998,-4.5988,-4.5988,-4.5988,-4.7484,-4.8431,-4.8211,-4.9685,-5.0653,-5.06,-5.0565,-5.051,-5.041,-5.0385,-5.0272,-5.0089,-5.0063,-5.0012,-4.9898,-4.9898,-4.9898,-4.9898,-4.9898,-4.9898,-4.9898,-4.9898,-4.9898,-4.9898,-4.9898,-4.9898,-4.9898,-4.9898,-4.9898,-4.9898,-4.9898,-4.9898,-4.9898,-4.9898,-4.9898,-4.9898,-2.564,-2.5699,-2.5699,-2.5699,-2.6361,-2.7102,-2.7745,-2.8582,-2.9455,-3.0331,-3.0098,-2.9864,-2.9864,-2.934,-2.9214,-2.9803,-2.9896,-3.0174,0.0,0.0,0.0,0.0,0.0,0.0,0.0,0.0,0.0,0.0,0.0,0.0,0.0,0.0,0.0,0.0,0.0,0.0,0.0,0.0,0.0,0.0,0.0,0.0,-2.8918,-2.8298,-2.8431,-2.9019,-2.9121,-2.9717,0.0,0.0,-3.0799,-3.0808,-3.0804,-3.123,-3.1836,-3.2324,-3.369,-3.5125,-3.5483,0.0,0.0,-3.7064,-3.8155,-3.9221,-3.8344,-3.9006,-3.9902,-4.0292,-4.1403,-4.2767,-4.4267,-4.4734,-4.526,-4.6371,-4.6352,-4.6274,-4.6527,-4.6352,-4.6293,-4.6527,-4.7891,-4.8768,-4.8697,-5.0007,-5.0845,-5.0797,-5.0735,-5.069,-5.0622,-5.0567,-5.0448,-5.0264,-5.0264,-5.0169,-4.9986,-4.9986,-4.9959,-4.9898,-4.9898,-4.9898,-4.9898,-4.9898,-4.9898,-4.9898,-4.9898,-4.9898,-4.9898,-4.9898,-4.9898,-4.9898,-4.9898,-4.9898,-4.9898,-4.9898,-4.9898,-4.9898,-2.5524,-2.5699,-2.5699,-2.5699,-2.6361,-2.6907,-2.6946,-2.7686,-2.8544,-2.9435,-3.0253,-3.076,-3.076,-3.0735,-3.0728,-3.0758,-3.0768,-3.0777,-3.0801,-3.0801,0.0,0.0,0.0,0.0,0.0,0.0,0.0,0.0,0.0,0.0,0.0,0.0,0.0,0.0,0.0,0.0,0.0,0.0,0.0,0.0,0.0,0.0,-3.0721,-3.0682,-3.0704,-3.0509,-2.8903,0.0,0.0,0.0,-3.0799,-3.0806,-3.0799,-3.0821,0.0,-3.2871,-3.4608,-3.5782,0.0,0.0,-3.7021,-3.6157,-3.7259,-3.8305,-3.7448,-3.8578,-3.9571,-3.8753,-4.0565,-4.2572,-4.3461,-4.4325,-4.5455,-4.717,-4.6741,-4.6507,-4.7345,-4.6722,-4.6507,-4.7365,-4.8241,-4.9099,-4.987,-5.0766,-5.1273,-5.1273,-5.1292,-5.1162,-5.0889,-5.0894,-5.0728,-5.0404,-5.0404,-5.0336,-5.0188,-5.0188,-5.0089,-4.9898,-4.9898,-4.9898,-4.9898,-4.9898,-4.9898,-4.9898,-4.9898,-4.9898,-4.9898,-4.9898,-4.9898,-4.9898,-4.9898,-4.9898,-4.9898,-4.9898,-4.9898,-4.9898,-2.5522,-2.5571,-2.556,-2.5518,-2.5725,-2.5913,-2.5954,-2.7235,-2.8505,-2.9396,-3.0183,0.0,0.0,0.0,0.0,0.0,-3.0807,-3.0796,-3.0801,-3.0801,0.0,0.0,0.0,0.0,0.0,0.0,0.0,0.0,0.0,0.0,0.0,0.0,0.0,0.0,0.0,0.0,0.0,0.0,0.0,0.0,0.0,0.0,-3.3261,-3.2107,-3.1653,-3.1503,0.0,0.0,0.0,0.0,-3.0796,-3.08,-3.0808,0.0,0.0,-3.2887,-3.3824,-3.4339,-3.4626,0.0,-3.6326,-3.5988,-3.6789,-3.7557,-3.7278,-3.7214,-3.7292,-3.7584,-3.8324,-3.9708,-4.2279,-4.2981,-4.3936,-4.6254,-4.6391,-4.6507,-4.7384,-4.7248,-4.7384,-4.8261,-4.9099,-4.9703,-4.9976,-5.0794,0.0,-5.13,-5.1256,-5.1171,-5.1037,-5.0984,-5.0851,-5.0606,-5.0606,-5.0507,-5.0336,-5.0336,-5.0245,-5.0089,-4.9959,-4.9898,-4.9898,-4.9898,-4.9898,-4.9898,-4.9898,-4.9898,-4.9898,-4.9898,-4.9898,-4.9898,-4.9898,-4.9898,-4.9898,-4.9898,-4.9898,-4.9898,-2.5822,-2.5932,-2.6008,-2.6246,-2.6296,0.0,0.0,0.0,0.0,0.0,0.0,0.0,0.0,0.0,0.0,0.0,0.0,-3.0791,-3.0799,0.0,0.0,0.0,0.0,0.0,0.0,0.0,0.0,0.0,0.0,0.0,0.0,0.0,0.0,0.0,0.0,0.0,0.0,0.0,0.0,0.0,0.0,0.0,-3.5037,-3.3922,-3.3296,0.0,0.0,0.0,0.0,0.0,0.0,0.0,0.0,0.0,-3.2343,-3.3161,-3.361,-3.3851,-3.3782,-3.4861,-3.584,-3.5179,-3.6102,-3.7121,-3.6815,-3.6298,-3.6142,-3.7019,-3.7448,-3.8539,-4.1344,-4.2357,-4.3624,-4.6235,-4.6663,-4.7072,-4.8222,-4.8144,-4.828,-4.9138,-4.9683,-5.0112,-5.0424,0.0,0.0,-5.13,-5.1239,-5.1161,-5.1105,-5.1043,-5.0932,-5.0773,-5.0773,-5.0682,-5.0507,-5.0507,-5.0402,-5.0188,-5.0063,-4.9959,-4.9898,-4.9898,-4.9898,-4.9898,-4.9898,-4.9898,-4.9898,-4.9898,-4.9898,-4.9898,-4.9898,-4.9898,-4.9898,-4.9898,-4.9898,-4.9898,-2.6365,-2.6693,-2.6945,0.0,0.0,0.0,0.0,0.0,0.0,0.0,0.0,0.0,0.0,0.0,0.0,0.0,0.0,0.0,0.0,0.0,0.0,0.0,0.0,0.0,-2.9613,-2.9593,0.0,0.0,0.0,0.0,0.0,0.0,0.0,0.0,0.0,0.0,0.0,0.0,0.0,0.0,0.0,0.0,-3.6049,-3.601,0.0,0.0,0.0,0.0,0.0,0.0,0.0,0.0,0.0,0.0,0.0,-3.3649,-3.3941,-3.4217,-3.2597,-3.3978,-3.5488,-3.3863,-3.5313,-3.693,-3.6094,-3.5928,-3.6201,-3.7038,-3.7896,-3.9026,-4.0779,0.0,-4.4442,-4.7014,-4.7501,-4.8144,-4.9761,-4.9333,-4.9157,0.0,0.0,0.0,0.0,0.0,0.0,-5.1292,0.0,-5.1171,-5.1105,-5.1043,-5.0961,-5.0906,-5.0906,-5.0841,-5.072,-5.0701,-5.0545,-5.0212,-5.0188,-5.0089,-4.9898,-4.9898,-4.9898,-4.9898,-4.9898,-4.9898,-4.9898,-4.9898,-4.9898,-4.9898,-4.9898,-4.9898,-4.9898,-4.9898,-4.9898,-4.9898,0.0,0.0,0.0,0.0,0.0,0.0,0.0,0.0,0.0,0.0,0.0,0.0,0.0,0.0,0.0,0.0,0.0,0.0,0.0,0.0,0.0,0.0,0.0,0.0,0.0,0.0,0.0,0.0,0.0,0.0,0.0,0.0,0.0,0.0,0.0,0.0,0.0,0.0,0.0,0.0,0.0,0.0,-3.6891,0.0,0.0,0.0,0.0,0.0,0.0,0.0,0.0,0.0,0.0,0.0,-3.3688,0.0,0.0,-3.2812,-3.3007,-3.3558,-3.4116,-3.4313,-3.5343,-3.6231,-3.5963,-3.6395,-3.6921,-3.7155,-3.7896,-3.9026,-4.0779,-4.2474,0.0,-4.6215,-4.7618,0.0,-4.9859,-4.982,0.0,-5.0872,0.0,-5.1067,-5.1281,-5.13,0.0,0.0,-5.1248,-5.123,-5.1105,-5.1081,-5.1017,-5.0906,-5.0906,-5.089,-5.0858,-5.0756,-5.0586,-5.0358,-5.024,-5.0089,-4.9898,-4.9898,-4.9898,-4.9898,-4.9898,-4.9898,-4.9898,-4.9898,-4.9898,-4.9898,-4.9898,-4.9898,-4.9898,-4.9898,-4.9898,-4.9898,0.0,0.0,0.0,0.0,0.0,0.0,0.0,0.0,0.0,0.0,0.0,0.0,0.0,0.0,0.0,0.0,0.0,0.0,0.0,0.0,0.0,0.0,0.0,0.0,0.0,0.0,0.0,0.0,0.0,0.0,0.0,0.0,0.0,0.0,0.0,0.0,0.0,0.0,0.0,0.0,0.0,0.0,0.0,0.0,0.0,0.0,0.0,0.0,0.0,0.0,0.0,-3.3905,-3.3512,-3.3665,-3.3902,-3.3512,0.0,-3.2211,-3.269,-3.3102,-3.3514,-3.4015,-3.5042,-3.5952,-3.5904,-3.6571,-3.7311,-3.7681,-3.8461,0.0,-4.0857,-4.2786,0.0,0.0,0.0,0.0,-5.0443,-5.0579,-5.0755,0.0,-5.13,0.0,-5.13,-5.13,-5.1265,0.0,-5.1211,-5.1161,-5.1069,-5.103,-5.0976,-5.0906,-5.0906,-5.0906,-5.0906,-5.0825,-5.07,-5.0527,-5.0358,-5.0193,-5.0012,-4.9933,-4.9898,-4.9898,-4.9898,-4.9898,-4.9898,-4.9898,-4.9898,-4.9898,-4.9898,-4.9898,-4.9898,-4.9898,-4.9898,-4.9898,0.0,0.0,0.0,0.0,0.0,0.0,0.0,0.0,0.0,-2.8041,0.0,0.0,0.0,0.0,0.0,0.0,0.0,0.0,0.0,0.0,0.0,0.0,0.0,0.0,0.0,0.0,0.0,0.0,0.0,0.0,0.0,0.0,0.0,0.0,0.0,0.0,0.0,0.0,0.0,0.0,0.0,0.0,0.0,0.0,0.0,0.0,0.0,0.0,0.0,0.0,-3.4805,-3.4566,-3.3802,-3.3922,-3.4215,-3.3456,-3.2617,-3.196,-3.207,-3.2732,-3.3432,-3.3548,-3.4752,-3.5896,-3.5899,-3.6571,-3.7448,-3.8324,0.0,-4.0097,-4.1091,-4.3254,-4.5222,-4.6215,0.0,-5.0307,-5.1183,-5.13,-5.13,-5.13,-5.13,-5.13,-5.13,-5.13,-5.1276,-5.1181,-5.1128,-5.1069,-5.1004,-5.0932,-5.0906,-5.0906,-5.0906,-5.0906,-5.0906,-5.0906,-5.0841,-5.0701,-5.0527,-5.0358,-5.0188,-5.0012,-4.9925,-4.9898,-4.9898,-4.9898,-4.9898,-4.9898,-4.9898,-4.9898,-4.9898,-4.9898,-4.9898,-4.9898,-4.9898,-4.9898,0.0,0.0,0.0,0.0,0.0,0.0,0.0,-2.8,-2.8338,-2.8805,-2.966,-3.0215,-3.0285,0.0,0.0,0.0,0.0,0.0,0.0,0.0,0.0,0.0,0.0,0.0,0.0,0.0,0.0,0.0,0.0,0.0,0.0,0.0,0.0,0.0,0.0,0.0,0.0,0.0,0.0,0.0,0.0,0.0,0.0,0.0,0.0,0.0,0.0,0.0,0.0,0.0,-3.5306,-3.4664,-3.4527,-3.359,-3.2519,-3.2363,-3.1716,-3.1187,-3.1901,-3.273,-3.3563,-3.4287,-3.5185,-3.5896,-3.5899,-3.6571,0.0,0.0,-3.9182,-4.0273,-4.1812,-4.3624,0.0,-4.7014,0.0,0.0,0.0,0.0,-5.13,0.0,0.0,0.0,0.0,-5.13,0.0,0.0,-5.1105,-5.1069,-5.1004,-5.099,-5.0966,-5.0906,-5.0906,-5.0906,-5.0906,-5.0906,-5.0841,-5.0701,-5.0644,-5.0485,-5.0188,-5.0163,-5.0063,-4.9898,-4.9898,-4.9898,-4.9898,-4.9898,-4.9898,-4.9898,-4.9898,-4.9898,-4.9898,-4.9898,-4.9898,-4.9898,0.0,0.0,0.0,0.0,0.0,0.0,0.0,-2.8018,-2.8762,-2.911,-2.9858,-3.0328,-3.0254,-3.04,-3.0528,0.0,0.0,0.0,0.0,0.0,0.0,0.0,0.0,0.0,0.0,0.0,0.0,0.0,0.0,0.0,0.0,0.0,0.0,0.0,0.0,0.0,0.0,0.0,0.0,0.0,0.0,0.0,0.0,0.0,0.0,0.0,0.0,0.0,0.0,0.0,-3.543,-3.4707,-3.4695,-3.3807,-3.2873,-3.3322,-3.2187,-3.1092,-3.2422,-3.3081,-3.3502,-3.393,-3.4963,-3.5895,-3.5894,0.0,0.0,0.0,-3.9552,-4.0857,-4.2065,0.0,0.0,0.0,0.0,0.0,0.0,0.0,0.0,0.0,0.0,0.0,0.0,-5.1276,-5.1211,-5.1105,-5.1069,-5.1017,-5.0947,-5.0952,-5.0917,-5.0906,-5.0906,-5.0906,-5.0906,-5.0906,-5.0874,-5.0808,-5.0738,-5.0567,-5.0291,-5.0236,-5.0089,-4.9898,-4.9898,-4.9898,-4.9898,-4.9898,-4.9898,-4.9898,-4.9898,-4.9898,-4.9898,-4.9898,-4.9898,-4.9898,0.0,0.0,0.0,0.0,0.0,0.0,0.0,-2.7846,-2.8833,-2.9203,-2.9851,-3.0269,-3.0267,-3.0422,-3.0518,0.0,0.0,0.0,0.0,0.0,0.0,0.0,0.0,0.0,0.0,0.0,0.0,0.0,0.0,0.0,0.0,0.0,0.0,0.0,0.0,0.0,0.0,0.0,0.0,0.0,0.0,0.0,0.0,0.0,0.0,0.0,0.0,0.0,0.0,0.0,-3.5538,-3.4986,-3.4961,-3.4232,-3.3539,-3.4215,-3.2967,-3.1658,-3.3025,-3.3541,-3.3687,-3.3662,-3.4798,-3.5908,-3.5908,-3.7097,0.0,0.0,-3.9747,-4.1188,-4.2357,0.0,0.0,0.0,0.0,0.0,0.0,0.0,0.0,0.0,0.0,0.0,0.0,0.0,0.0,-5.1105,-5.103,-5.0966,-5.0906,-5.0906,-5.0906,-5.0906,-5.0906,-5.0906,-5.0906,-5.0906,-5.0906,-5.0906,-5.0791,-5.0606,-5.0404,-5.0291,-5.0114,-4.9898,-4.9898,-4.9898,-4.9898,-4.9898,-4.9898,-4.9898,-4.9898,-4.9898,-4.9898,-4.9898,-4.9898,-4.9898,0.0,0.0,0.0,0.0,0.0,0.0,0.0,-2.6981,-2.7653,-2.9168,-2.9453,-2.9753,-3.0405,-3.0552,-3.0586,0.0,0.0,0.0,0.0,0.0,0.0,0.0,0.0,0.0,0.0,0.0,0.0,0.0,0.0,0.0,0.0,0.0,0.0,0.0,0.0,0.0,0.0,0.0,0.0,0.0,0.0,0.0,0.0,0.0,0.0,0.0,0.0,0.0,0.0,0.0,0.0,-3.5868,-3.581,-3.4682,-3.3426,-3.3492,0.0,0.0,-3.336,-3.3979,-3.4569,-3.45,-3.5207,-3.5908,-3.5908,0.0,0.0,-3.8344,-3.926,-4.0643,-4.3039,-4.3604,-4.452,0.0,0.0,0.0,0.0,0.0,0.0,0.0,0.0,0.0,0.0,0.0,0.0,-5.1105,-5.0976,-5.0906,-5.0906,-5.0906,-5.0906,-5.0906,-5.0906,-5.0906,-5.0906,-5.0906,-5.0906,-5.0906,-5.089,-5.0717,-5.0404,-5.0383,-5.0221,-4.9898,-4.9898,-4.9898,-4.9898,-4.9898,-4.9898,-4.9898,-4.9898,-4.9898,-4.9898,-4.9898,-4.9898,-4.9898,0.0,0.0,0.0,0.0,0.0,0.0,-2.6077,-2.7011,-2.7911,-2.8593,-2.958,-3.0353,-3.0652,-3.0697,-3.0697,-3.062,0.0,0.0,0.0,0.0,0.0,0.0,0.0,0.0,0.0,0.0,0.0,0.0,0.0,0.0,0.0,0.0,0.0,0.0,0.0,0.0,0.0,0.0,0.0,0.0,0.0,0.0,0.0,0.0,0.0,0.0,0.0,0.0,0.0,0.0,0.0,0.0,-3.5899,-3.5444,0.0,0.0,-3.4188,-3.3501,-3.3999,-3.4389,-3.4622,-3.4617,-3.5265,-3.5908,-3.5908,0.0,-3.8071,-3.8422,-3.961,-4.1208,-4.3234,-4.3598,-4.4286,-4.6371,-4.7443,-4.83,0.0,0.0,0.0,0.0,0.0,0.0,0.0,0.0,-5.1093,-5.099,-5.0937,-5.0906,-5.0906,-5.0906,-5.0906,-5.0906,-5.0906,-5.0906,-5.0906,-5.0906,-5.0906,-5.0906,-5.0906,-5.0717,-5.0404,-5.0404,-5.0221,-4.9898,-4.9898,-4.9898,-4.9898,-4.9898,-4.9898,-4.9898,-4.9898,-4.9898,-4.9898,-4.9898,-4.9898,-4.9898,0.0,0.0,0.0,0.0,0.0,-2.595,-2.6046,-2.7277,-2.829,-2.8544,-2.9649,-3.0507,-3.076,-3.0799,-3.0764,-3.0665,-3.0739,0.0,0.0,0.0,0.0,0.0,0.0,0.0,0.0,0.0,0.0,0.0,0.0,0.0,0.0,0.0,0.0,0.0,0.0,0.0,0.0,0.0,0.0,0.0,0.0,0.0,0.0,0.0,0.0,0.0,0.0,0.0,0.0,0.0,0.0,0.0,0.0,0.0,0.0,0.0,-3.5065,-3.4266,-3.4831,-3.4987,-3.4987,-3.4987,-3.546,-3.5967,0.0,-3.7428,-3.8578,-3.8831,-4.0078,-4.1539,-4.2961,-4.3422,-4.4091,0.0,-4.6975,-4.8105,-4.8709,0.0,0.0,0.0,0.0,0.0,0.0,0.0,-5.103,-5.0906,-5.0906,-5.0906,-5.0906,-5.0906,-5.0906,-5.0906,-5.0906,-5.0906,-5.0906,-5.0906,-5.0906,-5.0906,-5.0858,-5.0681,-5.0404,-5.0361,-5.0174,-4.9898,-4.9898,-4.9898,-4.9898,-4.9898,-4.9898,-4.9898,-4.9898,-4.9898,-4.9898,-4.9898,-4.9898,-4.9898,0.0,0.0,0.0,0.0,0.0,0.0,-2.6887,-2.7628,-2.8505,-2.9377,-2.9494,-2.9844,-3.0701,-3.0799,-3.0799,-3.0799,-3.0799,0.0,0.0,0.0,0.0,0.0,0.0,0.0,0.0,0.0,0.0,-3.2094,0.0,0.0,0.0,0.0,0.0,0.0,0.0,0.0,0.0,0.0,0.0,0.0,0.0,0.0,-3.5905,0.0,0.0,0.0,0.0,0.0,0.0,0.0,0.0,0.0,0.0,0.0,0.0,0.0,-3.5889,-3.5889,-3.5889,-3.5889,-3.5889,-3.5889,-3.5889,-3.6123,0.0,-3.7876,-3.8733,-3.961,-4.0487,-4.1344,-4.2163,-4.302,-4.3897,-4.4773,-4.7092,-4.8787,-4.8806,0.0,0.0,0.0,0.0,0.0,0.0,0.0,-5.0961,-5.0906,-5.0906,0.0,-5.0906,-5.0906,-5.0906,-5.0906,-5.0906,-5.0906,-5.0906,-5.0906,-5.0906,-5.0906,-5.0773,-5.0606,-5.0404,-5.0264,-5.0089,-4.9898,-4.9898,-4.9898,-4.9898,-4.9898,-4.9898,-4.9898,-4.9898,-4.9898,-4.9898,-4.9898,-4.9898,-4.9898,0.0,0.0,0.0,0.0,0.0,0.0,0.0,-2.8524,-2.9182,-2.9455,-3.002,-3.0487,-3.076,-3.0799,-3.0799,-3.0799,-3.0799,0.0,0.0,0.0,0.0,0.0,0.0,0.0,0.0,0.0,-3.2094,-3.2094,-3.2698,-3.3414,0.0,0.0,0.0,0.0,0.0,0.0,0.0,0.0,0.0,0.0,0.0,-3.5892,-3.5898,0.0,0.0,0.0,0.0,0.0,0.0,0.0,0.0,0.0,0.0,0.0,0.0,-3.5839,-3.583,0.0,-3.5821,-3.5838,-3.583,-3.5889,-3.6317,-3.6805,-3.7136,-3.8344,-3.9474,-3.9747,-4.0487,-4.1539,-4.2942,-4.3381,-4.4203,-4.6266,-4.7812,0.0,0.0,0.0,0.0,0.0,0.0,0.0,0.0,0.0,-5.0961,-5.0906,-5.0906,-5.0906,-5.0906,-5.0906,-5.0906,-5.0906,-5.0906,-5.0906,-5.0906,-5.0906,-5.0858,-5.0773,-5.072,-5.0546,-5.0264,-5.0212,-5.0089,-4.9898,-4.9898,-4.9898,-4.9898,-4.9898,-4.9898,-4.9898,-4.9898,-4.9898,-4.9898,-4.9898,-4.9898,-4.9898,0.0,0.0,0.0,0.0,0.0,0.0,0.0,-2.9435,-2.9981,-2.9981,-3.0468,-3.0799,-3.0799,-3.0799,-3.0799,-3.0799,-3.0799,0.0,0.0,0.0,0.0,0.0,0.0,0.0,0.0,-3.133,-3.1602,-3.1602,-3.2148,-3.283,-3.3629,-3.281,-3.3044,0.0,0.0,0.0,0.0,0.0,0.0,0.0,-3.518,-3.5717,-3.5698,0.0,0.0,0.0,0.0,0.0,0.0,0.0,0.0,0.0,0.0,0.0,0.0,0.0,-3.5753,-3.5768,0.0,-3.5785,-3.5772,-3.585,-3.6495,-3.7208,-3.7572,-3.8766,-3.9883,-4.0214,-4.0721,-4.152,-4.2864,-4.3315,-4.4139,-4.6093,-4.767,0.0,0.0,0.0,0.0,0.0,0.0,0.0,0.0,0.0,-5.0351,-4.9977,-4.9958,-4.9958,-4.9958,-5.0268,-5.0461,-5.0461,-5.0751,-5.0874,-5.0825,-5.0825,-5.0736,-5.0586,-5.0526,-5.0399,-5.0188,-5.0114,-5.0012,-4.9898,-4.9898,-4.9898,0.0,-4.9898,-4.9898,-4.9898,-4.9898,-4.9898,-4.9898,-4.9898,-4.9898,-4.9898,0.0,0.0,0.0,0.0,0.0,0.0,0.0,-3.0273,-3.0799,-3.0799,-3.0799,-3.0799,-3.0799,-3.0799,-3.0799,-3.0794,0.0,0.0,0.0,0.0,0.0,0.0,0.0,0.0,0.0,-3.0799,-3.0799,-3.0799,-3.0799,-3.1252,-3.2075,-3.1266,-3.1812,-3.339,0.0,0.0,0.0,0.0,0.0,0.0,-3.5071,-3.54,0.0,0.0,0.0,0.0,0.0,0.0,0.0,0.0,0.0,0.0,0.0,0.0,0.0,0.0,0.0,0.0,0.0,-3.5742,-3.5723,-3.5839,-3.6548,-3.7404,-3.8298,-3.9215,0.0,-4.0929,-4.1085,-4.1357,-4.2234,-4.2996,-4.3819,-4.482,-4.696,0.0,0.0,0.0,0.0,0.0,0.0,0.0,0.0,0.0,-4.9266,-4.8454,-4.8396,-4.8396,-4.8396,-4.915,-4.9614,-4.9656,-5.0391,-5.0748,-5.0701,-5.0682,-5.0586,-5.0383,-5.0264,-5.0188,-5.0163,-5.0005,-4.9898,-4.9898,-4.9898,-4.9898,-4.9898,-4.9898,-4.9898,-4.9898,-4.9898,-4.9898,-4.9898,-4.9898,-4.9898,-4.9898,0.0,0.0,0.0,0.0,0.0,0.0,0.0,0.0,0.0,0.0,-3.0799,-3.0799,-3.0799,-3.0799,-3.0764,0.0,0.0,0.0,0.0,0.0,0.0,0.0,0.0,0.0,0.0,-3.0799,-3.0799,-3.0799,-3.0799,-3.1252,-3.209,-3.1793,-3.2564,-3.4171,-3.2361,0.0,0.0,0.0,0.0,0.0,-3.5059,-3.5399,0.0,0.0,0.0,0.0,-3.3338,-3.3057,0.0,0.0,0.0,0.0,0.0,0.0,0.0,0.0,-3.5472,-3.5414,-3.5549,0.0,-3.5858,-3.6563,-3.7381,-3.8258,0.0,-4.0046,0.0,0.0,0.0,-4.1478,-4.2949,-4.3326,-4.4137,-4.6302,-4.7144,0.0,0.0,0.0,0.0,0.0,0.0,0.0,0.0,0.0,-4.8461,-4.8249,-4.8249,-4.8249,-4.8249,-4.8441,-4.8775,-4.9298,-4.949,-4.9952,-5.0701,-5.0547,-5.0402,-5.0259,-5.0212,-5.0114,-4.9959,-4.9906,-4.9898,-4.9898,-4.9898,-4.9898,-4.9898,-4.9898,-4.9898,-4.9898,-4.9898,-4.9898,-4.9898,-4.9898,-4.9898,-4.9898,0.0,0.0,0.0,0.0,0.0,0.0,0.0,0.0,0.0,0.0,0.0,-3.0799,-3.0799,-3.0739,0.0,0.0,0.0,0.0,0.0,0.0,0.0,0.0,0.0,0.0,-3.0799,-3.0799,-3.0799,-3.0799,-3.0739,-3.0942,-3.1409,-3.1317,-3.1975,-3.3236,-3.2629,0.0,0.0,0.0,0.0,-3.4587,-3.5009,0.0,0.0,0.0,0.0,0.0,-3.2355,-3.19,0.0,-3.2135,-3.2902,-3.3751,0.0,0.0,0.0,0.0,-3.5364,-3.5403,-3.584,-3.635,-3.6875,-3.7421,-3.846,-3.9488,-3.9948,0.0,0.0,0.0,0.0,0.0,-4.297,0.0,0.0,0.0,-4.6791,0.0,0.0,0.0,0.0,0.0,0.0,0.0,0.0,0.0,-4.7337,-4.6952,-4.6914,-4.6914,-4.6914,-4.7279,-4.7857,-4.8584,-4.8903,-4.9516,-5.0464,-5.0358,-5.024,-5.0063,-5.0063,-5.0012,-4.9898,-4.9898,-4.9898,-4.9898,-4.9898,-4.9898,-4.9898,-4.9898,-4.9898,-4.9898,-4.9898,-4.9898,-4.9898,-4.9898,-4.9898,-4.9898,0.0,0.0,0.0,0.0,0.0,0.0,0.0,0.0,0.0,0.0,0.0,0.0,0.0,0.0,0.0,0.0,0.0,0.0,0.0,0.0,0.0,0.0,0.0,-3.0769,-3.0769,-3.0769,-3.0769,-3.0769,-3.0652,-3.0579,-3.0571,-3.05,-3.0917,-3.1776,-3.2717,0.0,0.0,0.0,-3.4456,-3.5075,-3.4945,0.0,0.0,0.0,0.0,0.0,0.0,0.0,0.0,-3.0958,-3.1908,-3.2929,-3.3662,0.0,0.0,0.0,0.0,0.0,-3.6255,-3.7386,-3.8331,-3.8344,-3.945,-4.0543,0.0,0.0,0.0,0.0,0.0,0.0,0.0,0.0,0.0,0.0,0.0,0.0,0.0,0.0,0.0,0.0,0.0,0.0,0.0,-4.6473,-4.6167,-4.5419,-4.5361,-4.5361,-4.5361,-4.6071,-4.6836,-4.762,-4.8308,-4.9096,-4.9948,-5.0081,-5.0063,-4.9898,-4.9898,-4.9898,-4.9898,-4.9898,-4.9898,-4.9898,-4.9898,0.0,-4.9898,-4.9898,-4.9898,-4.9898,-4.9898,-4.9898,-4.9898,-4.9898,-4.9898,-4.9898,0.0,0.0,0.0,0.0,0.0,0.0,0.0,0.0,0.0,0.0,0.0,0.0,0.0,0.0,0.0,0.0,0.0,0.0,0.0,0.0,0.0,0.0,-3.1064,-3.0633,-3.0633,-3.0633,-3.0633,-3.0633,-3.0552,-3.0519,-3.05,-3.0392,-3.0739,-3.1536,-3.3012,-3.3783,0.0,-3.456,-3.4887,-3.5001,-3.4927,0.0,0.0,0.0,0.0,0.0,0.0,0.0,0.0,-3.0238,-3.1417,-3.2825,-3.2947,0.0,0.0,0.0,0.0,0.0,-3.616,-3.8099,-3.9718,-3.9103,-3.9655,-4.0342,0.0,0.0,0.0,0.0,0.0,0.0,0.0,0.0,0.0,0.0,0.0,0.0,0.0,0.0,0.0,0.0,0.0,0.0,0.0,-4.5426,-4.5369,-4.5235,-4.5235,-4.5235,-4.5235,-4.535,-4.5742,-4.6434,-4.7226,-4.8055,-4.8908,-4.961,-4.9933,-4.9898,-4.9898,-4.9898,-4.9898,-4.9898,-4.9898,-4.9898,0.0,-4.9898,-4.9898,-4.9898,-4.9898,-4.9898,-4.9898,-4.9898,-4.9898,-4.9898,-4.9898,-4.9898,0.0,0.0,0.0,0.0,0.0,0.0,0.0,0.0,0.0,0.0,0.0,0.0,0.0,0.0,0.0,0.0,0.0,0.0,0.0,0.0,0.0,-3.1648,-3.132,-3.0955,-3.0543,-3.0543,-3.0543,-3.0543,-3.0443,-3.0392,-3.0411,-3.0765,-3.1341,-3.2095,-3.3282,-3.4065,-3.4504,-3.4831,-3.4983,-3.5001,0.0,0.0,0.0,0.0,0.0,0.0,0.0,0.0,0.0,0.0,-3.1153,-3.2584,-3.2579,0.0,0.0,0.0,0.0,0.0,-3.6578,-3.8133,-3.9529,-4.0106,-4.1257,-4.2255,0.0,0.0,0.0,0.0,0.0,0.0,0.0,0.0,0.0,0.0,0.0,0.0,0.0,0.0,0.0,0.0,0.0,0.0,-4.5038,-4.5057,-4.5057,-4.5057,-4.5057,-4.5057,-4.5057,-4.5057,-4.539,-4.6165,-4.698,-4.7813,-4.8685,-4.9481,-4.9898,-4.9898,-4.9898,-4.9898,-4.9898,-4.9898,-4.9898,-4.9898,0.0,-4.9898,-4.9898,-4.9898,-4.9898,-4.9898,-4.9898,-4.9898,-4.9898,-4.9898,-4.9898,-4.9898,0.0,0.0,0.0,0.0,0.0,0.0,0.0,0.0,0.0,0.0,0.0,0.0,0.0,0.0,0.0,0.0,0.0,0.0,0.0,0.0,-3.2153,-3.1522,-3.1539,-3.121,-3.0482,-3.0443,-3.0366,-3.0173,-3.0248,-3.0285,-3.0292,-3.1073,-3.1863,-3.2638,-3.3439,-3.4258,0.0,-3.4945,-3.4945,-3.4982,0.0,0.0,0.0,0.0,0.0,0.0,0.0,0.0,0.0,0.0,0.0,0.0,0.0,0.0,0.0,-3.4908,-3.4908,-3.5268,-3.6939,-3.8038,-3.9104,-4.0797,0.0,0.0,0.0,0.0,0.0,0.0,0.0,0.0,0.0,0.0,0.0,0.0,0.0,0.0,0.0,0.0,0.0,0.0,0.0,0.0,-4.4895,-4.4895,-4.4895,-4.4895,-4.4895,-4.4895,-4.4895,-4.4895,-4.5217,-4.5862,-4.6676,-4.7434,-4.8098,-4.9102,-4.9709,-4.9898,-4.9898,-4.9898,-4.9898,-4.9898,-4.9898,-4.9898,-4.9871,-4.9871,-4.9879,-4.9824,-4.9824,-4.9898,-4.9871,-4.9871,-4.9898,-4.9898,-4.9898,-4.9898,0.0,0.0,0.0,0.0,0.0,0.0,0.0,0.0,0.0,0.0,0.0,0.0,0.0,0.0,0.0,0.0,0.0,0.0,0.0,0.0,-3.156,-3.1503,-3.146,-3.1071,-3.0333,-3.0314,-2.996,-2.9201,-2.9877,-3.0199,-3.0218,-3.0971,-3.1778,-3.2648,0.0,0.0,0.0,-3.5019,-3.5001,-3.5001,-3.4927,0.0,0.0,0.0,0.0,0.0,0.0,0.0,0.0,0.0,0.0,0.0,0.0,0.0,-3.4908,-3.4908,-3.4908,-3.5268,-3.6939,-3.8038,-3.9088,-4.0786,0.0,0.0,0.0,0.0,0.0,0.0,0.0,0.0,0.0,0.0,0.0,0.0,0.0,0.0,0.0,0.0,0.0,0.0,0.0,-4.4895,-4.4895,-4.4895,-4.4895,-4.4895,-4.4895,-4.4895,-4.4895,-4.4895,-4.4933,-4.499,-4.5824,-4.6316,-4.6373,-4.7965,-4.9159,-4.9898,-4.9898,-4.9898,-4.9898,-4.9898,-4.9898,-4.9879,-4.9778,-4.9807,-4.9898,-4.9548,-4.9625,-4.9898,-4.9759,-4.9788,-4.9898,-4.9898,-4.9898,-4.9898,0.0,0.0,0.0,0.0,0.0,0.0,0.0,0.0,0.0,0.0,0.0,0.0,0.0,0.0,0.0,0.0,0.0,0.0,0.0,0.0,-3.1503,-3.1503,-3.1484,-3.1092,-3.0266,-3.0247,-3.0062,-2.971,-2.9999,-3.0424,-3.0958,-3.1783,-3.2607,-3.3446,0.0,0.0,0.0,0.0,-3.5286,-3.5704,-3.5116,-3.5211,0.0,0.0,0.0,0.0,0.0,0.0,0.0,0.0,-3.1722,-3.256,-3.3431,-3.4245,-3.4908,-3.4908,-3.5268,-3.5951,-3.7091,-3.84,0.0,0.0,0.0,0.0,0.0,0.0,0.0,0.0,0.0,0.0,0.0,0.0,0.0,0.0,0.0,0.0,0.0,0.0,0.0,0.0,-4.4895,-4.4895,-4.4895,-4.4895,-4.4895,-4.4895,-4.4895,-4.4895,-4.4895,-4.4895,-4.4895,-4.4895,-4.5748,-4.6158,-4.5999,-4.7276,-4.8261,-4.8975,-4.9606,-4.9898,-4.9898,-4.9816,-4.9778,-4.9778,-4.9585,-4.9537,-4.9596,-4.9585,-4.9644,-4.9759,-4.9721,-4.9644,-4.9596,-4.9596,-4.9655,-4.9778,0.0,0.0,0.0,0.0,0.0,0.0,0.0,0.0,0.0,0.0,0.0,0.0,0.0,0.0,0.0,0.0,0.0,0.0,0.0,-3.1455,-3.1455,-3.1455,-3.1455,-3.1054,-3.0195,-3.0176,-3.0009,-2.9727,-2.9727,-3.0166,-3.1005,-3.2142,-3.2832,0.0,0.0,0.0,0.0,0.0,0.0,-3.5742,-3.5134,-3.5267,0.0,0.0,0.0,0.0,0.0,0.0,0.0,0.0,-3.1936,-3.26,-3.3715,-3.4472,-3.4946,-3.523,-3.5913,-3.6825,-3.7909,-3.9028,-4.0176,0.0,0.0,0.0,0.0,0.0,0.0,0.0,0.0,0.0,0.0,0.0,0.0,0.0,0.0,0.0,0.0,0.0,0.0,0.0,-4.4895,-4.4895,-4.4895,-4.4895,-4.4895,-4.4895,-4.4895,-4.4895,-4.4895,-4.4895,-4.4895,-4.4895,-4.5483,-4.5717,-4.5576,-4.6531,-4.7356,-4.8013,-4.8975,-4.9578,-4.9843,-4.975,-4.9663,-4.9585,-4.9446,-4.9415,-4.9415,-4.9495,-4.9544,-4.9544,-4.9585,-4.9525,-4.9415,-4.9476,-4.9585,-4.9692,0.0,0.0,0.0,0.0,0.0,0.0,0.0,0.0,0.0,0.0,0.0,0.0,0.0,0.0,0.0,0.0,0.0,0.0,0.0,-3.1337,-3.1286,-3.1286,-3.1286,-3.0906,-3.0122,-3.0122,-2.9717,-2.8907,-2.8907,-2.9327,-3.0147,-3.1809,-3.2172,0.0,0.0,0.0,0.0,0.0,0.0,0.0,-3.4875,-3.49,-3.4832,0.0,0.0,0.0,0.0,0.0,0.0,0.0,-3.2411,-3.271,-3.4377,-3.4908,-3.5097,-3.5951,-3.6768,-3.7776,-3.9433,-3.9886,0.0,0.0,0.0,0.0,0.0,0.0,0.0,0.0,0.0,0.0,0.0,0.0,0.0,0.0,0.0,0.0,0.0,0.0,0.0,0.0,-4.4895,-4.4895,-4.4895,-4.4895,-4.4895,-4.4895,-4.4895,-4.4895,-4.4895,-4.4895,-4.4895,-4.4895,-4.4895,-4.4895,-4.4914,-4.5748,-4.6524,-4.7174,-4.8013,-4.8862,-4.9692,-4.9692,-4.9585,-4.9415,-4.9415,-4.9415,-4.9384,-4.9244,-4.9197,-4.9211,-4.9352,-4.9415,-4.9415,-4.9615,-4.9692,-4.9721,0.0,0.0,0.0,0.0,0.0,0.0,0.0,0.0,0.0,0.0,0.0,0.0,0.0,0.0,0.0,0.0,0.0,0.0,0.0,-3.0464,-3.0464,-3.0464,-3.0464,-3.035,-3.0122,-3.0662,-3.0548,-2.9736,-2.9736,-3.0189,-3.1039,-3.1531,0.0,-3.2263,0.0,0.0,0.0,0.0,0.0,0.0,-3.4282,-3.4774,-3.5647,0.0,0.0,0.0,0.0,0.0,0.0,0.0,0.0,0.0,-3.4548,-3.5703,-3.6593,-3.6293,-3.7585,-3.9143,-3.9082,-3.9901,0.0,0.0,0.0,0.0,0.0,0.0,0.0,0.0,0.0,0.0,0.0,0.0,0.0,0.0,0.0,0.0,0.0,0.0,0.0,-4.4895,-4.4895,-4.4895,-4.4895,-4.4895,-4.4895,-4.4895,-4.4895,-4.4895,-4.4895,-4.4895,-4.4895,-4.4895,-4.4815,-4.4693,-4.4632,-4.4957,-4.5432,-4.6004,-4.7052,-4.8239,-4.9495,-4.9402,-4.9371,-4.9384,-4.916,-4.9127,-4.9244,-4.9211,-4.9197,-4.9211,-4.9244,-4.9276,-4.9244,-4.9179,-4.9371,-4.9692,0.0,0.0,0.0,0.0,0.0,0.0,0.0,0.0,0.0,0.0,0.0,0.0,0.0,0.0,0.0,0.0,0.0,0.0,0.0,0.0,-3.0038,-3.0022,-3.0022,-3.0174,-3.0535,-3.0997,-3.1184,-3.1061,-3.0738,-3.0677,-3.0845,0.0,-3.1459,-3.1615,0.0,-3.2067,0.0,0.0,0.0,0.0,-3.3374,-3.3999,-3.5116,0.0,0.0,0.0,0.0,0.0,0.0,0.0,0.0,0.0,-3.5021,-3.6121,-3.701,-3.7505,-3.8972,-4.0456,-4.0658,0.0,0.0,0.0,0.0,0.0,0.0,0.0,0.0,0.0,0.0,0.0,0.0,0.0,0.0,0.0,0.0,0.0,0.0,0.0,0.0,-4.4459,-4.4706,-4.4649,-4.3966,-4.4516,-4.4762,-4.4459,-4.4724,-4.4895,-4.4895,-4.4895,-4.4895,-4.4895,-4.477,-4.4685,-4.4659,-4.4685,-4.5028,-4.5687,-4.6365,-4.7447,-4.8915,-4.919,-4.9289,-4.9289,-4.9027,-4.9012,-4.9179,-4.9113,-4.9079,-4.9079,-4.9179,-4.9197,-4.9179,-4.9211,-4.9434,-4.9692,0.0,0.0,-3.0102,-3.0102,0.0,0.0,0.0,0.0,0.0,0.0,0.0,-3.0113,0.0,0.0,0.0,-3.0094,0.0,0.0,0.0,0.0,-2.9956,-2.9888,-2.9888,-3.0267,-3.1061,-3.1174,-3.1552,-3.2267,-3.1621,-3.0915,0.0,0.0,-3.0803,-3.0132,0.0,-3.1181,0.0,0.0,0.0,-3.2293,-3.2295,-3.2864,-3.3715,-3.3696,0.0,0.0,0.0,0.0,0.0,0.0,0.0,0.0,-3.5679,-3.6385,-3.6934,-3.9131,-4.0509,-4.162,0.0,0.0,0.0,0.0,0.0,0.0,0.0,0.0,0.0,0.0,0.0,0.0,0.0,0.0,0.0,0.0,0.0,0.0,-4.4895,-4.4895,0.0,-4.391,-4.4459,-4.4308,-4.2791,-4.4023,-4.4592,-4.3853,-4.4497,-4.4895,-4.4895,-4.4895,-4.4895,-4.4895,-4.477,-4.4764,-4.487,-4.4745,-4.5044,-4.5752,-4.5854,-4.6619,-4.8025,-4.8858,-4.9214,-4.9146,-4.9012,-4.9012,-4.9146,-4.8978,-4.8909,-4.8909,-4.9113,-4.923,-4.9244,-4.9555,-4.9692,-4.975,0.0,0.0,-3.0102,-3.0102,0.0,0.0,0.0,0.0,0.0,-3.0022,-3.0068,-3.0102,-3.0102,-3.0102,0.0,-3.0038,-3.0019,0.0,0.0,0.0,-2.9924,-2.9888,-2.9888,-2.9983,-3.0173,-3.0852,-3.0966,-3.0454,-3.1013,0.0,0.0,0.0,0.0,-3.0102,0.0,-3.0257,0.0,0.0,0.0,-3.1459,-3.146,-3.2368,-3.3695,-3.3696,-3.3989,0.0,0.0,0.0,0.0,0.0,0.0,0.0,-3.6437,-3.7732,-3.8813,-3.8921,-4.0457,-4.2077,0.0,0.0,0.0,0.0,0.0,0.0,0.0,0.0,0.0,0.0,0.0,0.0,0.0,0.0,0.0,0.0,0.0,0.0,-4.4819,-4.4895,-4.4838,-4.4668,-4.4781,-4.4762,-4.4402,-4.4687,-4.4838,-4.4649,-4.48,-4.4895,-4.4895,-4.4895,-4.4895,-4.4895,-4.477,-4.4693,-4.4745,-4.4693,-4.4734,-4.4805,-4.5536,-4.6081,-4.6449,-4.7653,-4.8478,-4.8978,-4.9079,-4.9079,-4.8978,-4.8909,-4.8909,-4.8909,-4.9113,-4.9276,-4.9352,-4.9446,-4.9625,-4.9843,0.0,0.0,0.0,0.0,0.0,0.0,0.0,0.0,-3.0462,-3.0013,-3.0022,-3.0038,-3.0007,-3.0038,0.0,0.0,-3.0022,-3.0022,0.0,0.0,0.0,0.0,-2.9888,-3.0097,-3.0511,-3.0985,-3.1174,-3.1099,0.0,0.0,0.0,0.0,0.0,-3.0038,0.0,-2.9956,0.0,0.0,-3.0154,-3.0587,-3.0587,-3.1572,-3.3069,-3.2976,-3.3694,-3.4745,-3.4641,0.0,0.0,0.0,0.0,0.0,0.0,0.0,-3.9207,-3.974,-4.0802,-4.1907,0.0,0.0,0.0,0.0,0.0,0.0,0.0,0.0,0.0,0.0,0.0,0.0,0.0,0.0,0.0,0.0,0.0,-4.3985,-4.4781,-4.4895,-4.4762,-4.4364,-4.4668,-4.4573,-4.3777,-4.444,-4.4743,-4.4345,-4.4687,-4.4895,-4.4895,-4.4895,-4.4895,-4.4895,-4.477,-4.4738,-4.4815,-4.4719,-4.4712,-4.4685,-4.5179,-4.5595,-4.5949,-4.7465,-4.8265,-4.8487,-4.8978,-4.9146,-4.9046,-4.9046,-4.9061,-4.916,-4.9371,-4.9464,-4.9555,-4.9625,-4.9741,-4.9898,0.0,0.0,0.0,0.0,0.0,0.0,0.0,0.0,0.0,-3.0,-2.9956,-2.9956,-2.9924,-2.9956,-2.9972,0.0,0.0,0.0,-2.994,0.0,0.0,0.0,-2.9839,-3.0196,-3.0915,-3.0915,-3.1273,0.0,0.0,0.0,0.0,0.0,0.0,-3.0007,0.0,0.0,0.0,0.0,-2.9983,-3.0116,-3.0063,-3.1047,-3.254,-3.237,-3.3337,-3.4751,-3.4652,-3.5052,-3.5713,-3.607,0.0,0.0,0.0,0.0,-3.8961,-4.0409,-4.0927,-4.1348,0.0,0.0,0.0,0.0,0.0,0.0,0.0,0.0,0.0,0.0,0.0,0.0,0.0,0.0,0.0,0.0,0.0,-4.3815,-4.4762,-4.4895,-4.4649,-4.3985,-4.4497,-4.4364,-4.2981,-4.4099,-4.463,-4.3966,-4.4516,-4.4895,-4.4895,-4.4895,-4.4895,-4.4895,-4.4796,-4.4789,-4.4895,-4.477,-4.477,-4.4895,-4.4895,-4.518,-4.5741,-4.7324,-4.802,-4.8084,-4.8757,-4.9132,-4.9244,-4.9244,-4.9308,-4.9384,-4.9615,-4.9692,-4.9663,-4.9843,-4.9898,-4.9898,0.0,0.0,0.0,0.0,0.0,0.0,0.0,0.0,0.0,0.0,-2.9924,-2.9905,-2.9888,-2.9924,-2.9905,-2.9905,-2.9751,-2.9662,0.0,0.0,0.0,0.0,-2.9551,-2.9701,-2.9813,-2.9813,-2.9942,0.0,0.0,0.0,0.0,0.0,0.0,-3.0007,0.0,0.0,0.0,0.0,-3.0324,-3.1006,-3.0772,-3.1692,-3.318,-3.3148,-3.3614,-3.4316,-3.4539,-3.4804,-3.522,-3.5938,-3.6567,0.0,0.0,0.0,-3.8707,-3.9175,-3.9818,0.0,0.0,0.0,0.0,0.0,0.0,0.0,0.0,0.0,0.0,0.0,0.0,0.0,0.0,0.0,0.0,0.0,0.0,-4.3133,-4.4687,-4.4895,-4.4857,-4.4743,-4.4838,-4.4819,-4.4592,-4.4762,-4.4857,-4.4743,-4.4838,-4.4895,-4.4895,-4.4895,-4.4895,-4.4895,-4.487,-4.487,-4.4895,-4.487,-4.487,-4.4895,-4.4895,-4.4896,-4.49,-4.5994,-4.7116,-4.8171,-4.8284,-4.8715,-4.9384,-4.9384,-4.934,-4.9244,-4.9574,-4.9585,-4.9476,-4.9769,-4.9898,-4.9898,0.0,0.0,0.0,0.0,0.0,0.0,0.0,0.0,0.0,0.0,0.0,-2.9734,-2.9734,-2.9626,-2.957,-2.957,-2.9494,0.0,0.0,0.0,0.0,0.0,0.0,-2.9787,-2.9787,-2.9787,0.0,0.0,0.0,0.0,0.0,-3.0831,-3.0924,0.0,0.0,0.0,0.0,0.0,0.0,-3.1858,-3.1731,-3.2694,-3.4109,-3.3374,-3.39,-3.5002,-3.437,-3.4622,-3.5349,-3.615,-3.6915,-3.7669,-3.853,0.0,0.0,0.0,0.0,0.0,0.0,0.0,0.0,0.0,0.0,0.0,0.0,0.0,0.0,0.0,0.0,0.0,0.0,0.0,0.0,0.0,0.0,-4.3,-4.4668,-4.4895,-4.4895,-4.4895,-4.4895,-4.4895,-4.4895,-4.4895,-4.4895,-4.4895,-4.4895,-4.4895,-4.4895,-4.4895,-4.4895,-4.4895,-4.4895,-4.4895,-4.4895,-4.4895,-4.4895,-4.4895,-4.4895,-4.487,-4.4815,-4.5268,-4.5972,-4.6813,-4.7419,-4.8047,-4.8739,-4.881,-4.9093,-4.9495,-4.9731,-4.9759,-4.9712,-4.9871,-4.9898,-4.9898,0.0,0.0,0.0,0.0,0.0,0.0,0.0,0.0,0.0,0.0,0.0,-2.9681,-2.9681,0.0,0.0,0.0,-2.9272,0.0,0.0,0.0,0.0,0.0,0.0,0.0,-2.9681,0.0,0.0,0.0,0.0,0.0,-3.1427,-3.1479,-3.2046,0.0,-3.2596,0.0,0.0,0.0,0.0,-3.2747,-3.2901,-3.379,-3.4934,-3.4147,-3.4711,-3.5795,-3.4833,-3.5063,-3.5938,-3.6601,-3.7304,-3.8042,-3.8615,-3.8818,0.0,0.0,0.0,0.0,0.0,0.0,0.0,0.0,0.0,0.0,0.0,0.0,0.0,0.0,0.0,0.0,0.0,0.0,0.0,0.0,-4.2669,-4.3246,-4.4706,-4.4895,-4.4895,-4.4895,-4.4895,-4.4895,-4.4895,-4.4895,-4.4895,-4.4895,-4.4895,-4.4895,-4.4895,-4.4706,-4.4687,-4.4895,-4.4497,-4.4478,-4.4895,-4.4895,-4.4895,-4.4895,-4.4895,-4.4895,-4.4895,-4.4895,-4.511,-4.5565,-4.6523,-4.7344,-4.8031,-4.8334,-4.8834,-4.939,-4.9721,-4.9843,-4.9843,-4.9843,-4.9871,-4.9898,0.0,0.0,0.0,0.0,0.0,0.0,0.0,0.0,0.0,0.0,0.0,-2.9888,-2.9888,-2.9698,-2.9589,-2.9589,-2.9249,0.0,0.0,0.0,0.0,0.0,0.0,0.0,0.0,0.0,0.0,0.0,0.0,0.0,-3.205,-3.2241,-3.3221,-3.4699,-3.3107,-3.1989,-3.1307,0.0,0.0,-3.3677,-3.4256,-3.4843,-3.5442,-3.6147,-3.6315,-3.6185,-3.6324,0.0,0.0,0.0,-3.7635,-3.8032,-3.8189,-3.8241,-3.8241,0.0,0.0,0.0,0.0,0.0,0.0,0.0,0.0,0.0,0.0,0.0,0.0,0.0,0.0,0.0,0.0,0.0,0.0,0.0,-4.3416,-4.3929,-4.4781,-4.4895,-4.4895,-4.4895,-4.4895,-4.4895,-4.4895,-4.4895,-4.4895,-4.4895,-4.4895,-4.4895,-4.4895,-4.4175,-4.4118,-4.4876,-4.336,-4.3303,-4.4876,-4.4895,-4.4895,-4.4895,-4.4895,-4.4895,-4.4895,-4.4895,-4.4933,-4.4984,-4.5855,-4.6714,-4.7503,-4.8344,-4.8605,-4.856,-4.9372,-4.9721,-4.9721,-4.9721,-4.9788,-4.9898,0.0,0.0,0.0,0.0,0.0,0.0,0.0,0.0,0.0,0.0,0.0,0.0,0.0,-2.9082,-2.8966,-2.8966,-2.8839,0.0,0.0,0.0,0.0,0.0,0.0,0.0,0.0,0.0,0.0,0.0,0.0,-2.9975,-3.108,-3.1336,-3.2015,-3.3128,-3.3734,-3.3847,-3.3638,-3.4472,0.0,0.0,-3.6097,-3.672,-3.7156,-3.6738,-3.674,-3.6879,-3.6152,0.0,0.0,0.0,-3.7174,-3.7362,-3.7413,-3.7413,-3.7413,-3.7413,0.0,0.0,0.0,0.0,0.0,0.0,0.0,0.0,0.0,0.0,0.0,0.0,0.0,0.0,0.0,0.0,0.0,0.0,-4.2978,-4.3399,-4.4444,-4.4584,-4.4655,-4.487,-4.4895,-4.4895,-4.4895,-4.4895,-4.4895,-4.4895,-4.4421,-4.4137,-4.4137,-4.3341,-4.3,-4.3303,-4.2716,-4.2962,-4.4118,-4.4649,-4.4895,-4.4895,-4.4895,-4.4895,-4.4895,-4.4895,-4.4895,-4.4914,-4.5002,-4.5526,-4.6365,-4.7222,-4.7639,-4.7932,-4.9065,-4.9457,-4.9408,-4.9712,-4.9871,-4.9898,0.0,0.0,0.0,-3.395,0.0,-3.1885,-3.1607,-3.0509,-2.9609,-2.933,0.0,0.0,0.0,0.0,-2.8712,-2.8612,-2.8587,-2.8587,-2.8587,0.0,0.0,0.0,0.0,0.0,0.0,0.0,0.0,0.0,0.0,0.0,0.0,0.0,-3.1609,-3.2472,-3.3989,-3.4752,0.0,0.0,0.0,-3.6134,0.0,-3.7457,-3.7515,0.0,-3.7515,-3.7539,0.0,0.0,0.0,0.0,0.0,-3.7311,-3.7344,-3.7196,-3.7011,-3.7011,-3.7558,0.0,0.0,0.0,0.0,0.0,0.0,0.0,0.0,0.0,0.0,0.0,0.0,0.0,0.0,0.0,0.0,0.0,-4.3039,-4.3379,-4.4138,-4.4327,-4.4484,-4.4707,-4.4827,-4.4895,-4.4895,-4.4895,-4.4895,-4.4895,-4.4402,0.0,-4.4099,-4.3303,-4.2583,-4.2014,-4.2261,-4.2564,-4.2867,-4.3947,-4.4497,-4.4497,-4.4762,-4.4895,-4.4895,-4.4895,-4.4895,-4.487,-4.4557,-4.4712,-4.5283,-4.6031,-4.647,-4.6802,-4.8151,-4.866,-4.8725,-4.9337,-4.9646,-4.9741,-3.4751,-3.4588,-3.4335,-3.3574,-3.2903,-3.2232,-3.1444,-3.0854,-3.0234,-2.9439,0.0,0.0,0.0,0.0,0.0,-2.8685,-2.8659,-2.8641,-2.8623,-2.8623,0.0,0.0,0.0,0.0,0.0,0.0,0.0,0.0,0.0,0.0,0.0,0.0,-3.2154,0.0,-3.3807,-3.4439,-3.4908,0.0,-3.5262,-3.5919,0.0,-3.6967,-3.6468,0.0,0.0,0.0,-3.8036,-3.7951,0.0,-3.8834,0.0,-3.7899,-3.7967,-3.7528,-3.7011,-3.7011,-3.7558,-3.8192,0.0,0.0,0.0,0.0,0.0,0.0,0.0,0.0,0.0,0.0,0.0,0.0,0.0,0.0,0.0,0.0,-4.3656,-4.3881,-4.3881,-4.4184,-4.4383,-4.4402,-4.4681,-4.4895,-4.4895,-4.4895,-4.4895,-4.4895,-4.4876,-4.4857,-4.4838,-4.4042,-4.2848,-4.1256,-4.1996,-4.2014,-4.1219,-4.2886,-4.372,-4.3701,-4.4516,-4.4895,-4.4895,-4.4895,-4.4895,-4.487,-4.453,-4.4327,-4.4335,-4.4917,-4.5092,-4.5105,-4.6596,-4.733,-4.7664,-4.8546,-4.908,-4.9427,-3.4534,-3.4135,-3.3846,-3.4208,-3.3161,-3.2219,-3.1983,-3.1336,-3.0761,0.0,0.0,0.0,-3.0531,-3.0472,-3.0412,-3.0333,-3.0333,-3.0079,-2.95,-2.9463,-2.921,-2.8623,-2.9156,-2.9826,0.0,0.0,0.0,0.0,0.0,0.0,0.0,0.0,0.0,0.0,-3.3099,-3.4008,-3.5273,-3.5273,0.0,0.0,-3.7393,-3.7829,0.0,0.0,0.0,0.0,0.0,-3.7934,-3.8025,0.0,-3.8582,-3.7911,-3.7419,-3.716,-3.7011,-3.7011,-3.7558,-3.8192,-3.8192,0.0,0.0,0.0,0.0,0.0,0.0,0.0,0.0,0.0,0.0,0.0,0.0,0.0,0.0,0.0,-4.3124,-4.3266,-4.349,-4.3623,-4.3862,-4.4327,-4.4484,-4.4636,-4.487,-4.4895,-4.4895,0.0,-4.4364,-4.3758,-4.3133,-4.173,-4.1029,-4.12,-4.1996,-4.2014,-4.1219,-4.3436,-4.4289,-4.3701,-4.4516,-4.4895,-4.4895,-4.4895,-4.4895,-4.487,-4.427,-4.3955,-4.3836,-4.4441,-4.4492,-4.4343,-4.5608,-4.6433,-4.6964,-4.7568,-4.824,-4.8847,-3.457,-3.4769,-3.4932,-3.5077,-3.4063,-3.3085,-3.2741,-3.2017,-3.1365,0.0,0.0,0.0,-3.0985,-3.0985,-3.0985,-3.0985,-3.0985,-3.0785,-3.0314,-3.0296,-3.0079,-2.9626,-3.0043,-3.0677,-3.1473,0.0,0.0,0.0,0.0,0.0,0.0,0.0,0.0,0.0,-3.29,-3.364,-3.4576,-3.4576,0.0,0.0,-3.7469,0.0,0.0,-3.8425,-3.8332,0.0,0.0,0.0,-3.7936,-3.8743,-3.8564,-3.7891,-3.7232,-3.7214,-3.7413,-3.712,-3.7794,-3.8627,-3.8282,-3.8192,0.0,0.0,0.0,0.0,-4.1343,-4.1361,0.0,0.0,0.0,0.0,0.0,0.0,0.0,0.0,-4.2882,-4.2957,-4.3178,-4.3301,-4.3557,-4.3924,-4.4125,-4.4327,-4.4655,-4.4681,-4.4751,-4.4895,-4.4478,-4.3834,-4.3,-4.1673,-4.1029,-4.12,-4.1313,-4.1313,-4.12,-4.2981,-4.3796,-4.3701,-4.4516,-4.4895,-4.4895,-4.4895,-4.4802,-4.4629,-4.4095,-4.367,-4.3371,-4.3597,-4.3529,-4.3404,-4.444,-4.5276,-4.6019,-4.6819,-4.7629,-4.8421,0.0,-3.5874,-3.6544,-3.6037,-3.5276,-3.4461,-3.3665,-3.2995,-3.2306,0.0,-3.1401,-3.1365,-3.1274,-3.1256,-3.1292,-3.1383,-3.131,-3.1256,-3.1256,-3.1166,-3.1075,-3.0985,-3.1075,-3.1473,-3.218,-3.1582,0.0,0.0,0.0,0.0,0.0,0.0,0.0,-3.2361,-3.3085,-3.3393,-3.3411,-3.3502,-3.455,-3.6248,-3.7193,-3.7331,0.0,0.0,-3.83,-3.7949,-3.7934,-3.781,-3.7811,-3.8564,-3.8564,-3.8146,-3.7471,-3.7794,-3.8301,-3.7594,-3.8391,-3.9369,-3.8645,-3.8445,-3.8606,-3.9252,-3.9467,0.0,-4.1143,-4.1451,-4.1647,0.0,0.0,0.0,0.0,0.0,0.0,-4.2755,-4.29,-4.2991,-4.29,-4.3214,-4.3499,-4.3534,-4.3878,-4.4228,-4.4505,-4.4533,-4.4651,-4.487,-4.4819,-4.4497,-4.3872,-4.2924,-4.2128,-4.1503,-4.0631,-4.0555,-4.1332,-4.2147,-4.2943,-4.3701,-4.4516,-4.4895,-4.4895,-4.4895,-4.4681,-4.4289,-4.3943,-4.349,-4.2995,-4.2627,-4.2503,-4.2517,-4.3238,-4.4068,-4.5072,-4.6136,-4.7153,-4.8056,-3.6164,-3.5729,-3.5421,-3.6562,-3.6109,-3.5294,-3.4498,-3.4787,-3.4824,-3.4009,-3.39,-3.3647,-3.2995,-3.2922,-3.3194,-3.3846,-3.3302,-3.2922,-3.2922,-3.2325,-3.1673,-3.1021,-3.1618,-3.2035,-3.2198,-3.2629,-3.2943,0.0,0.0,0.0,0.0,0.0,0.0,0.0,-3.3339,-3.3393,-3.3447,-3.4099,-3.4945,-3.5895,-3.6103,0.0,-3.6934,-3.7778,-3.7984,-3.7774,-3.7864,-3.781,-3.7757,-3.806,-3.8941,-3.9824,-3.9135,-3.9441,-4.0021,-3.9876,-4.0039,-4.0256,-4.0093,-4.0057,-3.9967,-3.9514,-3.9852,0.0,-3.9922,-3.9858,-4.0077,0.0,0.0,0.0,0.0,0.0,0.0,-4.194,-4.3027,-4.3625,-4.2973,-4.3502,-4.4052,-4.4307,-4.5001,-4.5389,-4.5367,-4.5368,-4.5245,-4.4927,-4.4308,-4.4156,-4.4649,-4.3227,-4.2659,-4.3208,-4.2375,-4.1996,-4.2166,-4.3019,-4.3531,-4.3701,-4.4516,-4.4895,-4.4895,-4.4895,-4.4707,-4.4374,-4.3974,-4.3523,-4.3051,-4.2649,-4.2445,-4.2346,-4.2624,-4.3537,-4.4729,-4.5186,-4.6206,-4.7457,-3.6164,-3.6399,-3.6508,-3.6924,-3.6327,-3.5548,-3.4733,-3.4606,-3.4606,-3.4606,-3.4606,-3.4461,-3.4045,-3.4009,-3.4317,-3.5131,-3.4842,-3.4443,-3.4027,-3.3628,-3.3049,-3.2234,-3.2567,-3.2755,-3.2755,-3.3046,-3.3412,-3.3808,0.0,0.0,0.0,0.0,0.0,0.0,-3.3851,-3.4086,-3.4483,-3.4898,-3.5295,-3.5692,-3.6121,0.0,-3.7442,-3.7839,-3.7933,-3.7792,-3.7898,-3.7881,-3.7828,-3.7949,-3.8525,0.0,-3.9352,-3.9912,-4.051,-4.051,-4.08,-4.1017,-4.0619,-4.0492,-4.0419,-4.0021,-4.0231,0.0,0.0,-4.0545,-4.0763,-4.1542,-4.1089,0.0,0.0,0.0,0.0,-4.1651,-4.2719,-4.3353,-4.2955,-4.3932,-4.4753,-4.4927,-4.5292,-4.5572,-4.569,-4.5718,-4.5556,-4.5262,-4.4669,-4.4308,-4.4308,-4.3512,-4.3057,-4.3057,-4.264,-4.2621,-4.3038,-4.3474,-4.391,-4.4308,-4.4706,-4.4895,-4.4895,-4.4895,-4.4629,-4.4095,-4.3881,-4.3456,-4.2826,-4.2588,-4.2463,-4.2405,-4.2405,-4.3078,-4.4107,-4.4773,-4.5737,-4.6816,-3.6001,-3.7069,-3.7794,-3.7337,-3.6689,-3.6001,-3.5186,-3.4643,-3.4498,-3.5005,-3.5059,-3.5005,-3.486,-3.4811,-3.5191,-3.6182,-3.6096,-3.5788,-3.5331,-3.5119,-3.4666,-3.3852,-3.3599,-3.3478,-3.3478,-3.3368,-3.3643,-3.4289,0.0,0.0,0.0,-3.3858,-3.3894,-3.4555,0.0,0.0,0.0,0.0,0.0,-3.5828,0.0,-3.7156,-3.7785,-3.7929,-3.7951,-3.7899,-3.7967,-3.7951,-3.7899,-3.802,-3.811,-3.8345,-3.9135,-4.0003,-4.0745,-4.0745,-4.1307,-4.1796,-4.1144,-4.0962,-4.0889,-4.06,-4.0724,-4.0994,0.0,0.0,0.0,-4.2159,-4.1687,0.0,0.0,0.0,0.0,0.0,0.0,0.0,0.0,-4.4277,0.0,-4.5291,-4.5562,-4.583,-4.6012,-4.5845,-4.5712,-4.5592,-4.5153,-4.463,-4.3966,-4.3929,-4.3606,-4.2905,-4.2735,-4.3057,-4.3929,-4.3777,-4.4023,-4.4668,-4.4838,-4.4819,-4.4668,-4.477,-4.443,-4.3818,-4.3721,-4.3301,-4.2609,-4.2526,-4.2503,-4.2503,-4.2346,-4.2787,-4.3607,-4.4588,-4.5504,-4.6356,-3.6707,-3.6997,-3.7323,-3.7938,-3.7975,-3.7649,-3.6834,-3.725,-3.7413,-3.6798,-3.6725,-3.6453,0.0,0.0,0.0,0.0,-3.7184,-3.6988,-3.7739,-3.6988,-3.6197,-3.5385,-3.4587,-3.4195,-3.4195,-3.41,-3.4121,-3.4211,-3.4121,0.0,0.0,-3.5259,-3.5292,-3.54,-3.6167,0.0,0.0,0.0,-3.6186,0.0,-3.6826,-3.6816,0.0,-3.7629,-3.7899,-3.7899,-3.7967,-3.7951,-3.7934,0.0,-3.8542,-3.9014,-3.9334,-4.0401,-4.1578,-4.1578,-4.214,-4.2737,-4.2647,-4.2611,-4.2265,-4.0869,-4.1576,-4.2102,-4.0127,0.0,-4.1359,-4.0077,0.0,0.0,0.0,0.0,0.0,0.0,0.0,0.0,-4.2882,-4.4277,-4.5291,-4.5291,-4.6558,-4.7302,-4.689,-4.609,-4.5619,-4.5612,-4.5153,-4.4857,-4.4762,-4.4762,-4.4724,-4.463,-4.3929,-4.3947,-4.4762,-4.4061,-4.3758,-4.3834,-4.4554,-4.4535,-4.3853,-4.4263,-4.4242,-4.3881,-4.3508,-4.3142,-4.2745,-4.2584,-4.2503,-4.2503,-4.2346,-4.2787,-4.3607,-4.4485,-4.5419,-4.6313,-3.6924,-3.7359,-3.7649,-3.7522,-3.7486,-3.7214,-3.6435,-3.7377,-3.7902,-3.712,-3.7395,0.0,0.0,0.0,0.0,0.0,0.0,-3.8563,0.0,-3.7399,-3.6649,-3.5812,-3.473,-3.4446,-3.5173,-3.4677,-3.4782,-3.5486,-3.5005,0.0,0.0,0.0,-3.584,-3.6753,-3.6714,0.0,-3.6926,0.0,-3.721,0.0,0.0,0.0,0.0,-3.7841,-3.8003,-3.809,-3.8106,-3.8054,-3.7985,0.0,-3.8323,0.0,-3.9714,-4.0492,-4.1198,-4.2122,-4.2629,-4.2882,-4.2882,-4.2882,-4.2627,-4.1483,-4.205,-4.2504,-4.1068,-4.1214,-4.1542,-4.089,0.0,0.0,0.0,0.0,0.0,0.0,-4.147,0.0,0.0,0.0,-4.4947,0.0,0.0,0.0,-4.6691,-4.6102,-4.5712,-4.5712,-4.5019,-4.461,-4.461,-4.4802,-4.4802,-4.461,-4.429,-4.3947,-4.3633,-4.3296,-4.2883,-4.2441,-4.324,-4.3446,-4.3146,-4.381,-4.3943,-4.359,-4.344,-4.3142,-4.2783,-4.2724,-4.2645,-4.2548,-4.249,-4.291,-4.3607,-4.4588,-4.5462,-4.6356,-3.7268,-3.7794,-3.8011,-3.7413,-3.7323,-3.7196,-3.6852,-3.7775,-3.8373,-3.7993,-3.8464,0.0,-3.9641,-3.8941,0.0,0.0,-4.0453,-3.9832,0.0,-3.8104,-3.7536,-3.6685,-3.5335,-3.4995,-3.588,-3.5434,-3.5537,-3.6202,-3.574,-3.6238,0.0,0.0,-3.6523,-3.7685,-3.7416,-3.7522,-3.7934,0.0,-3.7969,-3.7969,-3.7969,-3.802,-3.8036,-3.8036,-3.8122,-3.8192,-3.8192,-3.8122,-3.8018,-3.814,-3.8122,0.0,-3.9461,-4.0021,-4.0437,-4.1596,-4.2067,-4.2285,-4.2502,-4.2556,-4.2393,-4.1593,-4.2141,-4.2592,-4.134,-4.1559,-4.1905,-4.1451,-4.0672,0.0,0.0,0.0,-3.9931,-4.0691,0.0,-4.1958,0.0,-4.3407,0.0,0.0,0.0,0.0,0.0,-4.5751,-4.5462,-4.5462,-4.4742,-4.4299,-4.4402,-4.4557,-4.4557,-4.4383,-4.4299,-4.3743,-4.2716,-4.2716,-4.2307,-4.1508,-4.2326,-4.2716,-4.2723,-4.3447,-4.3623,-4.3406,-4.3301,-4.3087,-4.2822,-4.2822,-4.2745,-4.2649,-4.2609,-4.2992,-4.3716,-4.4671,-4.5378,-4.611,-3.7993,-3.8174,-3.8174,-3.8156,-3.8156,-3.8409,-3.917,-3.9315,-3.9604,-4.0311,-4.0419,0.0,0.0,0.0,0.0,0.0,0.0,-4.0556,-3.9859,-3.9753,-3.9378,-3.8572,-3.6973,-3.6155,-3.619,-3.6551,-3.64,-3.5741,-3.6167,-3.6774,0.0,0.0,0.0,0.0,-3.869,-3.8705,-3.8002,-3.814,-3.8192,-3.8192,-3.8192,-3.8192,-3.8192,0.0,-3.8192,-3.8192,-3.8192,0.0,0.0,-3.814,-3.8122,0.0,0.0,-3.8808,-3.9441,-3.9496,-4.0021,-4.0763,-4.1542,-4.1723,-4.156,-4.0741,-4.1719,-4.232,-3.9998,-4.1229,-4.2411,-4.0872,-4.1125,-4.1379,-4.0619,-4.0402,-4.0636,-4.1412,-4.1574,0.0,0.0,0.0,0.0,0.0,0.0,0.0,0.0,-4.4893,-4.4636,0.0,-4.4202,-4.4065,-4.4383,-4.4095,-4.4065,-4.4383,-4.4095,-4.3503,-4.2716,-4.2716,-4.2296,-4.1516,-4.2296,-4.2705,-4.273,-4.3207,-4.3406,-4.3371,-4.305,-4.292,-4.2882,-4.2822,-4.2802,-4.2783,-4.2649,-4.3095,-4.3904,-4.4695,-4.5101,-4.5454,-3.8934,-3.9387,-3.9568,-3.9079,0.0,-3.9242,-4.0021,-4.0582,-4.1017,0.0,-4.1307,0.0,0.0,-4.1085,-4.0724,0.0,0.0,-4.1311,-4.0469,-4.0103,-4.0012,-4.0201,-3.8012,-3.7391,-3.8625,-3.7877,-3.7387,-3.7229,-3.7365,-3.7775,0.0,0.0,0.0,0.0,0.0,-3.8289,0.0,0.0,0.0,0.0,0.0,-3.8192,-3.8192,0.0,-3.8192,-3.8192,-3.8192,-3.8174,0.0,-3.8174,-3.8174,-3.8231,-3.8808,-3.917,-3.9496,-3.9985,-4.0311,-4.0564,-4.0854,-4.0908,-4.0833,-4.0596,-4.0926,-4.1088,-4.0308,-4.0744,-4.1162,-4.0617,-4.0709,-4.0818,-4.0474,-4.0835,-4.125,-4.1448,-4.1538,-4.1883,0.0,0.0,0.0,0.0,0.0,0.0,0.0,0.0,0.0,-4.5015,-4.4141,0.0,-4.4498,-4.4146,-4.3849,-4.3735,-4.3623,-4.2812,-4.1257,-4.1238,-4.0598,-3.9319,-4.0635,-4.1238,-4.1277,-4.2504,-4.3087,-4.305,-4.2957,-4.2862,-4.286,-4.288,-4.2842,-4.2783,-4.2786,-4.2948,-4.3346,-4.4638,-4.5467,-4.6086,-3.9786,-4.0184,-4.0365,0.0,0.0,-4.0057,-4.0818,-4.1379,-4.1814,0.0,-4.214,0.0,-4.2828,0.0,-4.1374,0.0,-4.2002,-4.1692,-4.0387,-4.0527,-4.0761,-4.091,-3.9289,-3.8989,-4.01,-3.9192,-3.8516,-3.8154,-3.8158,-3.8231,0.0,0.0,0.0,0.0,0.0,-3.8122,-3.821,-3.85,-3.8445,0.0,0.0,-3.8192,0.0,0.0,-3.8192,-3.8192,0.0,-3.8192,-3.8192,-3.8192,-3.8192,-3.8282,-3.8808,-3.8952,-3.9061,-3.955,-3.9677,-3.9749,-4.0039,-4.0113,-4.0095,-4.0111,-4.0312,-4.0436,-4.0167,-4.0545,-4.0907,-4.0923,-4.1159,-4.1324,-4.1268,-4.1607,-4.1893,-4.1821,-4.1857,-4.215,0.0,-4.2864,0.0,0.0,0.0,0.0,0.0,0.0,-4.4132,-4.5218,-4.427,0.0,0.0,-4.4191,-4.3802,-4.3406,-4.3266,-4.2486,-4.0944,-4.0655,-4.0148,-3.9441,-3.9894,-4.0401,-4.0981,-4.1995,-4.2466,-4.2484,-4.2736,-4.2842,-4.2842,-4.288,-4.2842,-4.2842,-4.29,-4.3063,-4.348,-4.4758,-4.5892,-4.6868,-4.0619,-4.0691,0.0,0.0,-4.0691,0.0,0.0,0.0,-4.2031,0.0,-4.2882,-4.2882,-4.2882,-4.2342,-4.1768,-4.1178,-4.2031,-4.1748,-3.9737,-4.108,0.0,-4.0983,-4.0903,-4.0833,-4.0775,-4.0561,-3.9846,-3.8594,-3.8474,-3.8209,-3.7757,0.0,0.0,0.0,-3.814,0.0,-3.8301,-3.9025,-3.8898,-3.8192,-3.8192,-3.8192,-3.8192,-3.8192,-3.8192,-3.8192,-3.8192,-3.8192,-3.8192,-3.8192,-3.8192,-3.8192,-3.8192,-3.8192,-3.8192,-3.8192,-3.8192,-3.8355,-3.9115,-3.9363,-3.9327,-3.9372,-3.9914,-4.022,-3.9545,-4.0531,-4.159,-4.1595,-4.2186,-4.2727,-4.2747,-4.2627,-4.2503,-4.2503,-4.2544,-4.2685,-4.2862,-4.2882,-4.2882,0.0,0.0,0.0,0.0,-4.3335,-4.357,-4.5182,-4.4548,0.0,0.0,-4.4305,-4.3905,-4.3463,-4.3105,-4.2502,-4.1723,-4.0908,-4.089,-4.1578,-4.0093,-4.0184,-4.1614,-4.1668,-4.1704,-4.1777,-4.2497,-4.2842,-4.2882,-4.2822,-4.2842,-4.2882,-4.2882,-4.3407,-4.4258,-4.5055,-4.6341,-4.7663,-4.2176,-4.3244,-4.4077,0.0,-4.3081,-4.2556,0.0,0.0,0.0,0.0,-4.2882,-4.2882,-4.2882,-4.2458,-4.1931,-4.1286,-4.2164,0.0,0.0,0.0,0.0,-4.3243,-4.2172,-4.2038,-4.2991,-4.1801,-4.1147,-4.1006,-3.9776,0.0,-3.8726,0.0,0.0,0.0,0.0,0.0,-3.9061,-3.8663,-3.8373,-3.8192,-3.8192,-3.8192,-3.8192,0.0,-3.8192,-3.8192,-3.8192,-3.8192,-3.8192,-3.8192,-3.8192,-3.8192,-3.8192,-3.8192,-3.8192,-3.8192,-3.8192,-3.8246,-3.8445,-3.8515,-3.8658,-3.9238,-3.9079,-3.89,-3.9306,-3.9696,-4.0003,-4.0,-4.1065,-4.1931,-4.1791,-4.2264,-4.2667,-4.253,-4.2652,-4.2788,-4.2882,-4.2882,-4.2882,-4.2882,0.0,0.0,-4.3172,-4.3009,-4.357,-4.5182,-4.4548,-4.4642,-4.5957,-4.4826,-4.4025,-4.3922,-4.3266,-4.2502,-4.1723,-4.0908,-4.0347,-3.9985,-3.9586,-3.9894,-4.0854,-4.1378,-4.1975,-4.2592,-4.2619,-4.2765,-4.2882,-4.2822,-4.2842,-4.2882,-4.2882,-4.3751,-4.5091,-4.5906,-4.645,-4.6902,-4.3788,-4.4675,0.0,-4.5761,0.0,0.0,-4.4548,-4.3932,0.0,-4.3407,-4.3118,0.0,-4.2882,-4.2997,-4.2655,-4.1674,-4.3127,0.0,-4.1882,0.0,0.0,-4.3765,-4.3014,-4.3098,-4.435,-4.2929,-4.222,-4.2395,-4.0547,0.0,-3.9139,0.0,0.0,0.0,0.0,-3.8645,-3.9369,-3.8916,-3.8717,-3.8681,-3.8337,-3.8192,0.0,-3.8192,-3.8192,-3.8192,-3.8192,-3.8192,-3.8192,-3.8192,-3.8192,-3.8192,-3.8192,-3.8192,-3.8192,-3.8192,-3.8192,-3.8192,-3.8192,-3.8192,-3.8316,-3.8764,-3.8531,-3.8407,-3.9197,-3.9405,-3.95,-3.9806,-4.0546,-4.1107,-4.0966,-4.1651,-4.2304,-4.2555,-4.2747,-4.2806,-4.2882,-4.2882,-4.2882,-4.2882,-4.2882,-4.2882,-4.2882,-4.2882,-4.357,-4.5182,-4.4874,-4.5019,0.0,-4.511,-4.4458,-4.4095,-4.3317,-4.2502,-4.1723,-4.0908,-4.0293,-3.9876,-3.9188,-3.9425,-4.0474,-4.0926,-4.1559,-4.2318,-4.2582,-4.2765,-4.2882,-4.2822,-4.2842,-4.2918,-4.3281,-4.3751,-4.4385,-4.5544,-4.6432,-4.7102,-4.5291,0.0,0.0,0.0,0.0,0.0,0.0,-4.4838,0.0,-4.4114,0.0,-4.3154,-4.3063,-4.3769,-4.3736,-4.2454,-4.4314,-4.4516,-4.2147,-4.3352,-4.3993,-4.3603,-4.3603,-4.4158,-4.5285,-4.4007,-4.3353,-4.3296,-4.1212,-3.9908,-3.9372,0.0,0.0,0.0,0.0,0.0,0.0,-3.9496,-3.9478,-3.9333,-3.8627,-3.8282,-3.8192,-3.8192,-3.8192,-3.8192,-3.8192,-3.8192,-3.8192,-3.8192,-3.8192,-3.8192,-3.8192,-3.8192,-3.8192,-3.8192,-3.8192,-3.8192,-3.8192,-3.8192,-3.8192,-3.8192,-3.8192,-3.837,-3.9088,-3.9249,-3.9413,-4.0078,-4.0224,-4.0249,-4.0238,-4.0823,-4.1554,-4.2474,-4.2657,-4.2678,-4.2737,-4.281,-4.2882,-4.2882,-4.2882,0.0,-4.2882,-4.2882,-4.3516,-4.5037,-4.5146,-4.5182,-4.5291,0.0,-4.482,-4.4114,-4.3317,-4.2502,-4.1723,-4.0908,-4.0456,-4.0347,-3.888,-3.899,-4.0402,-4.0456,-4.0944,-4.1811,-4.2477,-4.2804,-4.2882,-4.2822,-4.2842,-4.2955,-4.3661,-4.357,-4.3226,-4.4747,-4.625,-4.7554,-4.6142,0.0,0.0,0.0,0.0,-4.7283,-4.7283,-4.6033,-4.4838,-4.4186,-4.4548,-4.4621,-4.3951,-4.4603,-4.4841,-4.4203,-4.4474,0.0,0.0,0.0,0.0,-4.4631,-4.4649,-4.526,-4.6548,-4.5709,-4.5142,-4.4913,-4.3201,-4.1649,-4.0257,0.0,0.0,0.0,0.0,0.0,-3.9441,-4.0057,0.0,-3.9387,-3.9242,-3.879,-3.8192,-3.8192,-3.8192,-3.8192,-3.8192,-3.8192,-3.8192,-3.8192,-3.8192,-3.8192,-3.8192,-3.8192,-3.8192,-3.8192,-3.8192,-3.8192,-3.8192,-3.8192,-3.8192,-3.8192,-3.8192,-3.8262,-3.837,-3.8407,-3.8443,-3.8585,-3.9125,-3.954,-3.942,-4.0077,-4.0847,-4.1758,-4.1903,-4.1885,-4.1905,-4.2485,-4.2882,-4.2882,-4.2882,-4.2882,-4.2882,-4.2882,-4.3281,-4.424,-4.4313,-4.4603,-4.5254,0.0,-4.424,0.0,-4.3317,-4.2502,0.0,-4.0908,-4.0202,-3.9568,-3.8645,-3.9007,-4.0492,-4.0438,-4.1215,-4.2663,-4.2655,-4.2747,-4.2882,-4.2822,-4.2842,-4.29,-4.3045,-4.3425,-4.3987,-4.4947,-4.5906,-4.6721,-4.7065,0.0,0.0,0.0,0.0,0.0,0.0,-4.7047,-4.6269,-4.5454,-4.5327,-4.5146,-4.4765,-4.5436,-4.5662,-4.5024,-4.5306,-4.5308,-4.483,-4.4413,-4.4558,-4.5484,-4.5168,-4.5564,-4.689,-4.6123,-4.5574,-4.5291,-4.3679,-4.2285,-4.1126,-4.0347,-3.9767,-3.9405,0.0,-4.0003,0.0,0.0,0.0,-3.9967,-3.9967,-3.9749,-3.9387,-3.9387,-3.9387,-3.9387,-3.9387,-3.9152,-3.8753,-3.8337,-3.8192,-3.8192,-3.8192,-3.8192,-3.8192,-3.8192,-3.8192,-3.8192,-3.8192,-3.8192,-3.8192,-3.8192,-3.8192,-3.8192,-3.8192,-3.8192,-3.8192,-3.8192,-3.8531,-3.8876,-3.9222,-3.9914,-4.0581,-4.1017,-4.1452,-4.1686,-4.1722,-4.2031,-4.2449,-4.2846,-4.2882,-4.2882,-4.2882,-4.2882,-4.3045,0.0,0.0,-4.4258,-4.4657,0.0,-4.4095,0.0,0.0,0.0,-4.1107,0.0,-4.013,-3.9387,-3.8572,-3.9189,-4.1071,-4.0655,-4.1342,-4.2842,-4.2786,-4.2824,-4.29,-4.288,-4.2862,-4.2882,-4.2882,-4.3136,-4.357,-4.4385,-4.5182,-4.5997,0.0,-4.7717,0.0,0.0,-4.7717,-4.7717,-4.7717,-4.7717,-4.7428,-4.6613,-4.6106,-4.5743,-4.5562,-4.6269,-4.6504,-4.587,-4.6232,-4.6302,-4.5907,-4.5147,-4.5195,-4.6153,-4.564,-4.5879,-4.7044,-4.6436,-4.5929,-4.5544,-4.4114,-4.29,-4.1959,-4.1144,-4.0673,-4.0546,-4.118,0.0,0.0,0.0,-4.1343,-4.0782,-4.0782,-4.0655,-4.051,-4.051,-4.051,-4.051,-4.051,-4.013,-3.9514,-3.8717,-3.8337,-3.8192,-3.8192,-3.8192,-3.8192,-3.8192,-3.8192,-3.8192,-3.8192,-3.8192,-3.8192,-3.8192,-3.8192,-3.8156,-3.7975,-3.7954,-3.7884,-3.7739,-3.7814,-3.8176,-3.9009,-3.9625,-4.0131,-4.0438,-4.0908,-4.1324,-4.1631,-4.1705,-4.2014,-4.2792,-4.2882,-4.2882,-4.2882,-4.2882,0.0,0.0,0.0,-4.3824,-4.3824,-4.3824,0.0,0.0,0.0,-4.1959,-4.0528,0.0,-3.9967,-3.9387,-3.8753,-3.9569,-4.1594,-4.1035,-4.1523,-4.2804,-4.2862,-4.2882,-4.2882,-4.2882,-4.2882,-4.2882,-4.2882,-4.2991,-4.3244,-4.4059,-4.4856,-4.5761,0.0,0.0,0.0,0.0,0.0,-4.7717,-4.7717,-4.7717,-4.7428,-4.6613,-4.7083,-4.721,-4.6468,-4.712,-4.7572,-4.7482,-4.6884,-4.6463,-4.6403,-4.5703,-4.559,-4.6434,-4.6398,-4.6741,-4.7597,-4.7542,-4.715,-4.6395,-4.5508,-4.4277,-4.2755,-4.1977,-4.1216,-4.051,-4.06,0.0,0.0,-4.165,-4.1669,-4.1615,-4.1615,-4.1162,-4.051,-4.051,-4.051,-4.051,-4.051,-4.0474,-4.0293,-3.9532,-3.879,-3.8192,-3.8192,-3.8192,-3.8192,-3.8192,-3.8192,-3.8192,-3.8192,-3.8192,-3.8192,-3.8192,-3.8192,-3.7993,-3.7268,-3.7102,-3.692,-3.6176,-3.6594,-3.7368,-3.8174,-3.8373,-3.888,-4.0274,-4.0003,-4.0109,-4.1522,-4.1687,-4.2013,-4.2792,-4.2882,-4.2882,-4.2882,-4.2882,0.0,0.0,-4.2955,-4.3009,-4.3009,-4.3009,-4.3009,-4.3009,-4.223,-4.1397,-4.0528,-3.984,-3.946,-3.9387,-3.9315,-4.013,-4.1686,-4.1614,-4.2067,-4.29,-4.29,-4.2882,-4.2882,-4.2882,-4.2882,-4.2882,-4.2882,-4.3335,-4.4077,-4.4892,-4.5707,-4.6522,0.0,0.0,0.0,0.0,0.0,0.0,0.0,-4.7717,-4.7591,-4.7265,-4.7518,-4.7591,-4.7265,-4.7518,-4.7717,-4.7717,-4.6975,-4.6703,-4.7192,-4.6468,-4.6377,-4.7192,-4.7228,-4.7373,-4.7699,-4.7717,-4.7319,-4.6504,-4.5689,-4.4711,-4.3607,-4.3299,-4.2973,-4.2647,-4.2158,-4.2122,-4.2411,-4.2411,-4.2411,-4.2411,-4.2411,-4.223,-4.194,-4.194,-4.194,-4.194,-4.194,-4.1633,-4.1198,-4.089,-3.9948,-3.8826,-3.8337,-3.8192,-3.8192,-3.8192,-3.8192,-3.8192,-3.8192,-3.8192,-3.8192,-3.8192,-3.8192,-3.7975,-3.716,-3.7011,-3.6761,-3.5987,-3.6425,-3.7109,-3.7413,-3.8264,-3.8952,-3.9097,-3.9659,-4.0292,-4.0871,-4.1379,-4.2014,-4.2792,-4.2882,-4.2882,-4.2882,-4.2882,0.0,0.0,-4.2882,-4.3099,-4.3588,-4.3154,-4.3118,-4.3588,0.0,-4.1325,-4.0528,-3.9767,-3.9387,-3.9387,-3.8898,-3.9749,-4.1705,-4.1216,-4.1687,-4.2882,-4.2882,-4.2882,-4.2882,-4.2882,-4.2882,-4.2882,-4.2882,-4.3371,-4.4186,-4.5001,-4.5725,-4.639,-4.7717,0.0,-4.7717,0.0,-4.7717,-4.7717,-4.7717,-4.7717,-4.7717,-4.7717,-4.7717,-4.7717,-4.7717,-4.7717,-4.7717,-4.7717,-4.7192,-4.7102,-4.7663,-4.7174,-4.712,-4.7681,-4.7717,0.0,-4.7717,-4.7717,-4.7428,-4.6866,-4.6051,-4.5363,-4.4802,-4.4548,-4.4331,-4.4077,-4.3498,-4.3118,-4.2882,-4.2882,-4.2882,-4.2882,-4.2882,-4.2882,-4.2882,-4.2882,-4.2882,-4.2882,-4.2882,-4.252,-4.2031,-4.1796,-4.0999,-3.9894,-3.8862,-3.8536,-3.85,-3.8264,-3.837,-3.8513,-3.828,-3.8192,-3.8192,-3.8192,-3.8192,-3.792,-3.687,-3.6635,-3.6345,-3.5313,-3.591,-3.6635,-3.6635,-3.7957,-3.8934,-3.8608,-3.946,-4.0347,-4.08,-4.1325,-4.2014,-4.2792,-4.2882,-4.2882,-4.2882,-4.2882,0.0,0.0,-4.2882,-4.3136,-4.3715,-4.3208,-4.3154,0.0,0.0,0.0,-4.0528,-3.9532,-3.917,-3.9387,-3.9043,-3.9876,-4.1705,-4.1379,-4.1832,-4.2882,-4.2882,-4.2882,-4.2882,-4.2882,-4.2882,-4.29,-4.3154,-4.3733,-4.4548,-4.5363,-4.6029,-4.668,-4.7717,-4.7717,-4.7717,-4.7717,-4.7717,-4.7717,-4.7717,-4.7717,-4.7717,-4.7717,-4.7717,-4.7717,-4.7717,-4.7717,-4.7717,-4.7717,-4.7699,-4.7699,-4.7717,-4.7699,-4.7699,0.0,0.0,-4.7717,-4.7717,-4.7717,-4.7717,-4.7699,-4.6884,-4.6486,-4.645,-4.5653,-4.4856,-4.4095,-4.4077,-4.3625,-4.2882,-4.2882,-4.2882,-4.2882,-4.2882,-4.2882,-4.2882,-4.2882,-4.2882,-4.2882,-4.2882,-4.2882,-4.2755,-4.1977,-4.1705,-4.1415,-3.9858,-3.9387,-3.9224,-3.8427,-3.8764,-3.9197,-3.8407,-3.8192,-3.8192,-3.8192,-3.8192,-3.7775,-3.6182,-3.582,-3.5367,-3.3755,-3.4715,-3.582,-3.582,-3.7123,-3.8464,-3.926,-3.9387,-3.9948,-4.1488,-4.1668,-4.2013,-4.2792,-4.2882,-4.2882,-4.2882,-4.2882,0.0,0.0,0.0,-4.2882,-4.29,-4.29,-4.2882,-4.29,-4.1361,-4.0528,-4.051,-3.8971,-3.8608,-3.9405,-4.013,-4.0908,-4.1741,-4.2502,-4.2864,-4.2882,-4.2882,-4.2882,-4.2882,-4.2882,-4.2882,-4.2973,-4.3769,-4.4584,-4.5381,-4.6196,-4.6993,-4.7681,-4.7717,-4.7717,-4.7717,-4.7717,-4.7717,-4.7717,-4.7717,-4.7717,-4.7717,-4.7717,-4.7717,-4.7717,-4.7717,-4.7717,-4.7717,0.0,-4.7717,-4.7717,0.0,-4.7717,-4.7717,-4.7717,-4.7717,-4.7717,-4.7717,-4.7717,-4.7717,-4.7717,0.0,0.0,-4.6486,-4.5689,-4.5454,-4.5689,-4.4581,-4.3966,-4.3677,-4.3136,-4.2882,-4.2882,-4.2882,-4.2882,-4.2882,-4.2882,-4.2882,-4.2882,-4.2882,-4.2882,-4.2846,-4.2592,-4.2158,-4.1633,-4.1126,-4.06,-4.0111,-3.984,-3.9583,-3.934,-3.9088,-3.8622,-3.8192,-3.8192,-3.8192,-3.7775,-3.6182,-3.4969,-3.4027,-3.3502,-3.4679,-3.582,-3.582,-3.7123,-3.8264,-3.8536,-3.946,-4.0329,-4.0818,-4.1832,-4.2611,-4.2864,-4.2882,-4.2882,-4.2882,-4.2882,0.0,0.0,0.0,-4.3136,-4.3679,-4.2683,-4.2339,-4.2864,-4.0836,-3.9749,-3.9749,-3.926,-3.9134,-3.9405,-4.0148,-4.0944,-4.1741,-4.252,-4.2882,-4.2882,-4.2882,-4.2882,-4.2882,-4.2882,-4.2882,-4.2973,-4.3788,-4.4584,-4.5381,-4.5992,-4.6843,-4.7717,-4.7717,-4.7717,-4.7717,-4.7717,-4.7717,-4.7717,-4.7717,-4.7717,-4.7717,-4.7717,-4.7717,-4.7717,-4.7717,-4.7717,0.0,-4.7717,-4.7717,-4.7717,-4.7717,-4.7717,-4.7717,-4.7717,-4.7717,-4.7717,-4.7717,-4.7717,0.0,-4.7717,-4.721,-4.6957,-4.6939,-4.645,-4.6305,-4.645,-4.5142,-4.4382,-4.4062,-4.3226,-4.2882,-4.2882,-4.2882,-4.2882,-4.2882,-4.2882,-4.2882,-4.2882,-4.2882,-4.2882,-4.2882,-4.2882,-4.2574,-4.2158,-4.2158,-4.1814,-4.1289,-4.0691,-4.0184,-3.9731,-3.947,-3.8819,-3.8192,-3.8192,-3.8192,-3.7848,-3.6544,-3.524,-3.4298,-3.4298,-3.5349,-3.6254,-3.6254,-3.7305,-3.8282,-3.859,-3.9695,-4.0619,-4.0926,-4.2159,-4.305,-4.292,-4.3014,-4.305,-4.292,-4.3014,-4.305,0.0,0.0,0.0,0.0,0.0,-4.2248,-4.2448,-4.0727,-3.9804,-3.9804,-3.9532,-3.9532,-3.9822,-4.06,-4.1379,-4.2176,-4.2665,-4.2882,-4.2882,-4.2882,-4.2882,-4.29,-4.3226,-4.3335,-4.3444,-4.4566,-4.5309,-4.5834,-4.6463,-4.7114,-4.7717,-4.7717,-4.7717,-4.7717,-4.7717,-4.7717,-4.7717,-4.7717,-4.7717,-4.7717,-4.7717,-4.7717,-4.7717,-4.7717,-4.7717,-4.7717,-4.7717,0.0,0.0,-4.7717,-4.7717,-4.7717,-4.7717,-4.7717,-4.7717,-4.7717,-4.7717,-4.7717,-4.7717,-4.7717,-4.7717,-4.7717,-4.7717,-4.7301,-4.6558,-4.568,-4.4892,-4.4122,-4.3246,-4.2882,-4.2882,-4.2882,-4.2882,-4.2882,-4.2882,-4.2882,-4.2882,-4.2882,-4.2882,-4.2882,-4.2882,-4.2882,-4.2882,-4.2882,-4.2882,-4.2592,-4.1126,-4.0636,-4.0417,-3.9728,-3.8946,-3.8282,-3.8264,-3.8192,-3.7902,-3.7192,-3.6381,-3.582,-3.582,-3.6435,-3.7011,-3.7011,-3.7685,-3.8518,-3.9278,-4.011,-4.089,-4.1651,-4.272,-4.3301,-4.3032,-4.3249,-4.332,-4.3013,-4.3231,-4.3318,-4.2995,0.0,0.0,0.0,0.0,-4.252,-4.1741,-4.0926,-4.051,-4.051,-3.9876,-3.993,-4.0691,-4.1452,-4.2194,-4.2882,-4.2882,-4.2882,-4.2882,-4.2882,-4.2882,-4.2955,-4.3769,-4.4095,-4.4258,-4.587,-4.6504,-4.6613,-4.7409,-4.7717,-4.7717,0.0,0.0,-4.7717,-4.7717,-4.7717,-4.7717,-4.7717,-4.7717,-4.7717,-4.7717,-4.7717,-4.7717,-4.7717,-4.7717,-4.7717,-4.7717,-4.7717,-4.7717,-4.7717,-4.7717,-4.7717,-4.7717,-4.7717,-4.7717,-4.7717,-4.7717,-4.7717,-4.7717,-4.7717,-4.7717,-4.7717,-4.7717,-4.7609,-4.7373,-4.5936,-4.5201,-4.4914,-4.348,-4.2882,-4.2882,-4.2882,-4.2882,-4.2882,-4.2882,-4.2882,-4.2882,-4.2882,-4.2882,-4.2882,-4.2882,-4.2882,-4.2882,-4.2882,-4.2882,-4.281,-4.2429,-4.192,-4.1394,-4.1198,-4.0183,-3.9117,-3.9115,-3.8174,-3.7214,-3.7033,-3.6381,-3.582,-3.582,-3.6435,-3.7011,-3.7011,-3.8156,-3.917,-3.9369,-4.0737,-4.1873,-4.204,-4.3041,-4.3754,-4.3689,-4.3719,-4.3763,-4.366,-4.373,-4.3744,-4.3652,-4.3498,-4.3371,-4.3266,-4.305,-4.252,-4.1741,-4.0926,-4.051,-4.051,-4.0944,-4.156,-4.2321,-4.252,-4.2719,-4.2882,-4.2882,-4.2882,-4.2882,-4.2882,-4.2882,-4.2955,-4.3769,-4.4095,-4.4258,-4.587,-4.6504,-4.6613,-4.7409,-4.7717,-4.7717,-4.7717,-4.7717,-4.7717,-4.7717,-4.7717,-4.7717,-4.7717,-4.7717,-4.7717,-4.7717,-4.7717,-4.7717,-4.7717,-4.7717,-4.7717,-4.7717,-4.7717,-4.7717,-4.7717,-4.7717,-4.7717,-4.7717,-4.7717,-4.7717,-4.7717,-4.7717,-4.7717,-4.7717,-4.7717,-4.7717,-4.7717,-4.7717,-4.7717,-4.7663,-4.6386,-4.5653,-4.5236,-4.4375,-4.3795,-4.3429,-4.3429,-4.3429,-4.3411,-4.3047,-4.2882,-4.2882,-4.2882,-4.2882,-4.2882,-4.2882,-4.2882,-4.2882,-4.2882,-4.2882,-4.2882,-4.2882,-4.2318,-4.172,-4.1687,-4.0836,-3.9823,-3.9496,-3.8464,-3.754,-3.754,-3.7214,-3.6906,-3.6906,-3.7232,-3.7649,-3.8011,-3.8888,-3.9823,-4.0571,-4.1658,-4.2567,-4.2936,-4.3646,-4.4065,-4.3912,-4.4036,-4.4061,-4.3902,-4.4058,-4.4073,-4.3927,-4.3869,-4.3703,-4.3406,-4.3249,-4.2687,-4.1741,-4.1289,-4.1071,-4.1071,-4.185,-4.2466,-4.2882,-4.2882,-4.2882,-4.2882,-4.2882,-4.2976,-4.3105,-4.2957,-4.3194,-4.3725,-4.4372,-4.4874,-4.5327,-4.6558,-4.683,-4.6613,-4.7409,-4.7723,-4.7728,-4.7518,-4.7627,-4.7717,-4.7717,-4.7717,-4.7717,-4.7717,-4.7717,-4.7717,-4.7717,-4.7717,-4.7717,-4.7717,-4.7717,-4.7717,-4.7717,-4.7717,-4.7717,-4.7717,-4.7717,-4.7717,-4.7717,-4.7717,-4.7717,-4.7717,-4.7717,-4.7717,-4.7717,-4.7717,-4.7717,-4.7717,-4.7717,-4.7717,-4.7681,-4.6868,-4.6109,-4.5472,-4.5344,-4.4889,-4.4302,-4.4302,-4.4286,-4.4196,-4.3393,-4.3083,-4.3065,-4.2918,-4.2882,-4.2882,-4.2882,-4.2882,-4.2882,-4.2882,-4.2882,-4.2882,-4.2882,-4.2446,-4.1883,-4.1868,-4.1198,-4.033,-3.9586,-3.879,-3.8192,-3.8192,-3.8192,-3.8192,-3.8192,-3.8241,-3.8528,-3.9327,-3.979,-4.0528,-4.2036,-4.2656,-4.3204,-4.3881,-4.427,-4.4318,-4.3927,-4.413,-4.413,-4.3711,-4.3943,-4.398,-4.3674,-4.4008,-4.3968,-4.3406,-4.3401,-4.2973,-4.1978,-4.1886,-4.1886,-4.1886,-4.2556,-4.292,-4.2976,-4.292,-4.292,-4.2976,-4.292,-4.305,-4.3301,-4.3014,-4.3432,-4.4364,-4.4922,-4.5599,-4.6413,-4.721,-4.7102,-4.6595,-4.7205,-4.7487,-4.7534,-4.6703,-4.7246,-4.7717,-4.7717,-4.7717,-4.7717,-4.7717,-4.7717,-4.7717,-4.7717,-4.7717,-4.7717,-4.7717,-4.7717,-4.7717,-4.7717,-4.7717,-4.7717,-4.7717,-4.7717,-4.7717,-4.7717,-4.7717,-4.7717,-4.7717,-4.7717,-4.7717,-4.7717,-4.7717,-4.7717,-4.7717,-4.7717,-4.7717,-4.7681,-4.6868,-4.6428,-4.6272,-4.5579,-4.5228,-4.5096,-4.5096,-4.5106,-4.5038,-4.4214,-4.3904,-4.3831,-4.3137,-4.2882,-4.2882,-4.2882,-4.2882,-4.2882,-4.2882,-4.2882,-4.2882,-4.2882,-4.281,-4.2719,-4.2701,-4.1633,-4.0311,-3.9586,-3.879,-3.8192,-3.8192,-3.8192,-3.8192,-3.8192,-3.8368,-3.8761,-3.958,-4.056,-4.1549,-4.2458,-4.3471,-4.4177,-4.4308,-4.461,-4.4556,-4.3825,-4.3775,-4.3491,-4.2699,-4.2673,-4.2683,-4.264,-4.3107,-4.3333,-4.3231,-4.3352,-4.3316,-4.3118,-4.2869,-4.2701,-4.2701,-4.2828,-4.305,-4.3301,-4.305,-4.305,-4.3301,-4.3014,-4.292,-4.2976,-4.292,-4.2992,-4.3231,-4.3989,-4.4765,-4.5562,-4.6377,-4.6613,-4.6504,-4.6374,-4.647,-4.6757,-4.5852,-4.6395,-4.6884,-4.7029,-4.7428,-4.7717,-4.7717,-4.7717,-4.7717,-4.7717,-4.7717,-4.7717,-4.7717,-4.7717,-4.7717,-4.7717,-4.7717,-4.7717,-4.7717,-4.7717,-4.7717,-4.7717,-4.7717,-4.7717,-4.7717,-4.7717,-4.7717,-4.7717,-4.7717,-4.7717,-4.7717,-4.7717,-4.7717,-4.7699,-4.7289,-4.6904,-4.6501,-4.6545,-4.6341,-4.5966,-4.5966,-4.5947,-4.5878,-4.5059,-4.4479,-4.4044,-4.3661,-4.3262,-4.2882,-4.2882,-4.2882,-4.2882,-4.2882,-4.2882,-4.2882,-4.2882,-4.2882,-4.2882,-4.2882,-4.1723,-4.0437,-4.0093,-3.9079,-3.8192,-3.8192,-3.8192,-3.8241,-3.8387,-3.887,-3.954,-4.0535,-4.1649,-4.267,-4.3473,-4.4213,-4.4681,-4.4681,-4.4442,-4.4118,-4.3739,-4.3284,-4.2848,-4.2446,-4.2389,-4.2412,-4.2412,-4.2629,-4.2687,-4.2492,-4.3006,-4.3193,-4.3028,-4.2923,-4.2882,-4.2882,-4.2882,-4.2995,-4.3142,-4.3142,-4.3249,-4.3406,-4.344,-4.3523,-4.3703,-4.3523,-4.3781,-4.4373,-4.4557,-4.513,-4.5865,-4.6232,-4.6122,-4.5847,-4.6617,-4.669,-4.6618,-4.5019,-4.549,-4.5979,-4.6196,-4.6739,-4.721,-4.7391,-4.7428,-4.75,-4.7681,-4.7717,-4.7717,-4.7717,-4.7717,-4.7717,-4.7717,-4.7717,-4.7717,-4.7717,-4.7717,-4.7717,-4.7717,-4.7717,-4.7717,-4.7717,-4.7717,-4.7717,-4.7717,-4.7717,-4.7717,-4.7717,-4.7717,-4.7717,-4.7717,-4.7717,-4.7368,-4.6832,-4.744,-4.7368,-4.6795,-4.6795,-4.6795,-4.6705,-4.5897,-4.5088,-4.4328,-4.4168,-4.357,-4.2882,-4.2882,-4.2882,-4.2882,-4.2882,-4.2882,-4.2882,-4.2882,-4.2882,-4.2882,-4.2882,-4.1723,-4.051,-4.051,-3.9351,-3.8192,-3.8192,-3.8192,-3.8274,-3.8523,-3.9136,-4.0007,-4.137,-4.2388,-4.3326,-4.4342,-4.4732,-4.4895,-4.4895,-4.4213,-4.3625,-4.3417,-4.264,-4.2052,-4.1844,-4.1825,-4.1821,-4.1817,-4.2006,-4.2025,-4.1737,-4.2664,-4.3111,-4.3002,-4.3094,-4.3142,-4.3142,-4.3142,-4.3178,-4.3266,-4.3422,-4.3557,-4.3656,-4.3818,-4.4035,-4.427,-4.4004,-4.4389,-4.5215,-4.5158,-4.5607,-4.6331,-4.6331,-4.6052,-4.583,-4.7144,-4.7218,-4.6884,-4.4186,-4.482,-4.5363,-4.5381,-4.5436,-4.5725,-4.6468,-4.6595,-4.6866,-4.7609,-4.7717,-4.7717,-4.7717,-4.7717,-4.7717,-4.7717,-4.7717,-4.7717,-4.7717,-4.7717,-4.7717,-4.7717,-4.7717,-4.7717,-4.7717,-4.7717,-4.7717,-4.7717,-4.7717,-4.7717,-4.7717,-4.7717,-4.7717,-4.7717,-4.7717,-4.7681,-4.7645,-4.7681,-4.7681,-4.7585,-4.7585,-4.7585,-4.7536,-4.6726,-4.5914,-4.5098,-4.4388,-4.357,-4.2882,-4.2882,-4.2882,-4.2882,-4.2882,-4.2882,-4.2882,-4.2882,-4.2882,-4.2882,-4.2882,-4.1723,-4.051,-4.051,-3.9351,-3.8192,-3.8192,-3.8192,-3.8274,-3.8523,-3.8855,-3.964,-4.159,-4.2221,-4.2995,-4.4605,-4.487,-4.4895,-4.4895,-4.4213,-4.3398,-4.2602,-4.1787,-4.0972,-4.0154,-4.0079,-4.0079,-4.0079,-4.0836,-4.1291,-4.1234,-4.2484,-4.3371,-4.3782,-4.3812,-4.3818,-4.3818,-4.3818,-4.3986,-4.4299,-4.4004,-4.4035,-4.4327,-4.4035,-4.3912,-4.3943,-4.3912,-4.3949,-4.4092,-4.4872,-4.5658,-4.6401,-4.6401,-4.681,-4.7423,-4.7553,-4.7553,-4.7627,-4.3353,-4.3588,-4.3969,-4.4458,-4.4693,-4.52,-4.6341,-4.6504,-4.6794,-4.7609,-4.7717,-4.7717,-4.7717,-4.7717,-4.7717,-4.7717,-4.7246,-4.7174,-4.7681,-4.7246,-4.7192,-4.7681,-4.7717,-4.7717,-4.7717,-4.7717,-4.7717,-4.7717,-4.7717,-4.7717,-4.7717,-4.7717,-4.7717,-4.7717,-4.7717,-4.7717,-4.7717,-4.7717,-4.7717,-4.7717,-4.7717,-4.7717,-4.7627,-4.6794,-4.6019,-4.5185,-4.4367,-4.357,-4.2882,-4.2882,-4.2882,-4.2882,-4.2882,-4.2882,-4.2882,-4.2882,-4.2882,-4.2882,-4.2882,-4.2085,-4.1144,-4.0637,-3.9713,-3.8808,-3.8301,-3.8192,-3.8274,-3.8523,-3.9074,-3.9841,-4.099,-4.1707,-4.2416,-4.3223,-4.336,-4.336,-4.336,-4.2659,-4.2033,-4.1711,-4.0915,-4.0271,-3.9927,-3.9889,-3.9889,-3.9889,-4.0211,-4.0628,-4.1158,-4.2678,-4.3812,-4.4511,-4.453,-4.4318,-4.3912,-4.3912,-4.3974,-4.4095,-4.4184,-4.427,-4.4383,-4.4484,-4.453,-4.453,-4.453,-4.453,-4.4549,-4.4888,-4.5208,-4.55,-4.6073,-4.6469,-4.6864,-4.7899,-4.8276,-4.8388,-4.2882,-4.2882,-4.3063,-4.3625,-4.3878,-4.4385,-4.5562,-4.5743,-4.6051,-4.6848,-4.6957,-4.7047,-4.7301,-4.7102,-4.7065,-4.7301,-4.683,-4.6739,-4.7301,-4.7047,-4.712,-4.7681,-4.7717,-4.7717,-4.7717,-4.7717,-4.7717,-4.7717,-4.7717,-4.7717,-4.7717,-4.7717,-4.7717,-4.7717,-4.7717,-4.7717,-4.7717,-4.7717,-4.7717,-4.7681,-4.7428,-4.7319,-4.7246,-4.6432,-4.5617,-4.4838,-4.4295,-4.357,-4.2882,-4.2882,-4.2882,-4.2882,-4.2882,-4.2882,-4.2882,-4.2882,-4.2882,-4.2882,-4.2882,-4.2321,-4.1524,-4.0709,-3.9948,-3.9188,-3.8373,-3.8192,-3.8274,-3.8523,-3.9038,-3.9674,-4.0551,-4.118,-4.1763,-4.2309,-4.2412,-4.2412,-4.2412,-4.1711,-4.12,-4.12,-4.0442,-3.9889,-3.9889,-3.9889,-3.9889,-3.9889,-3.9889,-4.0382,-4.1514,-4.292,-4.4061,-4.4876,-4.4895,-4.4681,-4.4213,-4.4213,-4.4213,-4.4231,-4.4457,-4.4557,-4.4557,-4.4802,-4.4895,-4.4895,-4.4895,-4.4895,-4.4914,-4.5198,-4.5464,-4.5748,-4.6335,-4.6904,-4.7472,-4.8363,-4.8856,-4.914,-4.2882,-4.2882,-4.2882,-4.2882,-4.2882,-4.3154,-4.3969,-4.4095,-4.4385,-4.5182,-4.5291,-4.5599,-4.6413,-4.578,-4.5617,-4.6432,-4.6504,-4.6504,-4.6504,-4.7265,-4.7699,-4.7699,-4.7717,-4.7717,-4.7717,-4.7717,-4.7717,-4.7717,-4.7717,-4.7717,-4.7717,-4.7717,-4.7717,-4.7717,-4.7717,-4.7717,-4.7717,-4.7717,-4.7717,-4.7645,-4.683,-4.6504,-4.6413,-4.5617,-4.4802,-4.4095,-4.4077,-4.357,-4.2882,-4.2882,-4.2882,-4.2882,-4.2882,-4.2882,-4.2882,-4.2882,-4.2882,-4.2882,-4.2882,-4.2321,-4.1524,-4.0709,-3.9948,-3.9188,-3.8373,-3.8192,-3.8274,-3.8541,-3.8585,-3.9017,-4.0439,-4.0691,-4.1067,-4.2196,-4.2393,-4.2393,-4.2393,-4.1692,-4.12,-4.12,-4.0442,-3.9889,-3.9889,-3.9889,-3.9889,-3.9889,-3.9908,-4.0647,-4.2309,-4.3223,-4.408,-4.4876,-4.4895,-4.4895,-4.4895,-4.4895,-4.4895,-4.4895,-4.4895,-4.4895,-4.4895,-4.4895,-4.4895,-4.4914,-4.4895,-4.4895,-4.499,-4.5843,-4.6657,-4.7378,-4.7397,-4.842,-4.9784,-4.8988,-4.9197,-4.9898,-4.2882,-4.2882,-4.2882,-4.2882,-4.2882,-4.3154,-4.3969,-4.4095,-4.4385,-4.5182,-4.5291,-4.5399,-4.5635,-4.5436,-4.5617,-4.6432,-4.5979,-4.5906,-4.6468,-4.6721,-4.6866,-4.6866,-4.7409,-4.7717,-4.7717,-4.7717,-4.7717,-4.7717,-4.7717,-4.7717,-4.7717,-4.7717,-4.7717,-4.7717,-4.7717,-4.7717,-4.7717,-4.7717,-4.7717,-4.7681,-4.7446,-4.7011,-4.6413,-4.5617,-4.4802,-4.4023,-4.3444,-4.3081,-4.2882,-4.2882,-4.2882,-4.2882,-4.2882,-4.2882,-4.2882,-4.2882,-4.2882,-4.2882,-4.2882,-4.2719,-4.2212,-4.0854,-3.9948,-3.9188,-3.8373,-3.8192,-3.8207,-3.8289,-3.8322,-3.8551,-3.937,-3.9517,-3.9769,-4.0526,-4.0669,-4.0669,-4.0669,-4.0438,-4.0309,-4.0309,-4.006,-3.9889,-3.9889,-3.9889,-3.9889,-3.9889,-4.0991,-4.1859,-4.237,-4.3777,-4.4649,-4.4895,-4.4895,-4.4895,-4.4895,-4.4895,-4.4895,-4.4895,-4.4895,-4.4895,-4.4895,-4.4895,-4.5236,-4.5786,-4.516,-4.5255,-4.5786,-4.5426,-4.5786,-4.6601,-4.7169,-4.8079,-4.9083,-4.9405,-4.969,-4.9898,-4.2882,-4.2882,-4.2882,-4.2882,-4.2882,-4.3045,-4.3534,-4.3625,-4.3788,-4.4277,-4.4349,-4.4458,-4.4784,-4.482,-4.5019,-4.5508,-4.511,-4.5164,-4.5979,-4.6033,-4.6033,-4.6033,-4.6504,-4.6902,-4.7228,-4.7554,-4.7717,-4.7717,-4.7717,-4.7717,-4.7717,-4.7717,-4.7717,-4.7717,-4.7717,-4.7717,-4.7717,-4.7717,-4.7717,-4.7645,-4.7011,-4.6468,-4.5906,-4.4784,-4.4041,-4.3552,-4.3063,-4.2882,-4.2882,-4.2882,-4.2882,-4.2882,-4.2882,-4.2882,-4.2882,-4.2882,-4.2882,-4.2882,-4.2882,-4.2665,-4.2194,-4.1234,-4.0401,-3.9623,-3.8844,-3.8427,-3.8192,-3.8192,-3.8192,-3.8368,-3.8896,-3.9008,-3.9216,-3.9804,-3.9889,-3.9889,-3.9889,-3.9889,-3.9889,-3.9889,-3.9889,-3.9889,-3.9889,-3.9889,-4.0044,-4.0388,-4.1654,-4.2545,-4.2905,-4.4175,-4.4895,-4.4895,-4.4895,-4.4895,-4.4895,-4.4895,-4.4895,-4.4895,-4.4895,-4.4895,-4.4895,-4.4895,-4.5198,-4.5653,-4.5122,-4.5198,-4.5672,-4.5483,-4.5899,-4.6714,-4.7207,-4.8117,-4.9197,-4.9349,-4.9614,-4.9898,-4.2774,-4.2846,-4.2882,-4.2882,-4.2882,-4.2882,-4.2882,-4.2882,-4.2882,-4.2882,-4.2882,-4.3172,-4.3896,-4.4059,-4.4095,-4.4095,-4.4095,-4.444,-4.5254,-4.5236,-4.5182,-4.5182,-4.5327,-4.5725,-4.6377,-4.7192,-4.7645,-4.7717,-4.7717,-4.7717,-4.7717,-4.7717,-4.7717,-4.7717,-4.7717,-4.7717,-4.7717,-4.7717,-4.7663,-4.7464,-4.5997,-4.5327,-4.5037,-4.357,-4.2955,-4.2882,-4.2882,-4.2882,-4.2882,-4.2882,-4.2882,-4.2882,-4.2882,-4.2882,-4.2882,-4.2882,-4.2882,-4.2882,-4.2882,-4.2375,-4.1832,-4.1832,-4.1216,-4.0401,-3.9568,-3.8771,-3.8192,-3.8192,-3.8225,-3.8419,-3.9007,-3.9147,-3.9335,-3.9917,-4.0003,-3.9984,-3.9908,-3.9889,-3.9889,-3.9889,-3.9889,-3.9889,-3.9889,-3.9965,-4.0347,-4.1152,-4.2018,-4.2867,-4.3668,-4.4459,-4.4895,-4.4895,-4.4895,-4.4895,-4.4895,-4.4895,-4.4895,-4.4895,-4.4895,-4.4895,-4.4895,-4.4895,-4.4933,-4.5009,-4.4933,-4.4933,-4.5066,-4.5786,-4.6563,-4.7283,-4.7283,-4.8268,-4.9576,-4.8837,-4.9083,-4.9784,-4.1977,-4.2466,-4.2882,-4.2882,-4.2882,-4.2882,-4.2882,-4.2882,-4.2882,-4.2882,-4.2882,-4.2955,-4.3136,-4.3715,-4.4095,-4.4095,-4.4095,-4.444,-4.5254,-4.4711,-4.4349,-4.4349,-4.5562,-4.6033,-4.5562,-4.6359,-4.7083,-4.7717,-4.7717,-4.7717,-4.7717,-4.7717,-4.7717,-4.7717,-4.7717,-4.7717,-4.7717,-4.7717,-4.7355,-4.6739,-4.6377,-4.549,-4.4313,-4.3969,-4.3444,-4.2882,-4.2882,-4.2882,-4.2882,-4.2882,-4.2882,-4.2882,-4.2882,-4.2882,-4.2882,-4.2882,-4.2882,-4.2882,-4.2882,-4.2755,-4.2629,-4.2629,-4.2031,-4.1089,-3.9713,-3.8771,-3.8192,-3.8192,-3.8387,-3.8799,-3.9824,-4.0195,-4.0447,-4.0851,-4.0934,-4.0688,-3.9984,-3.9889,-3.9889,-3.9889,-3.9889,-3.9889,-3.9889,-4.0536,-4.1013,-4.119,-4.2587,-4.3493,-4.3687,-4.4459,-4.4895,-4.4895,-4.4895,-4.4895,-4.4895,-4.4895,-4.4895,-4.4895,-4.4895,-4.4895,-4.4895,-4.4895,-4.5274,-4.588,-4.5198,-4.5293,-4.588,-4.5388,-4.5691,-4.6449,-4.6449,-4.7055,-4.7908,-4.7738,-4.8211,-4.9045,-4.1596,-4.2049,-4.2448,-4.2828,-4.2882,-4.2882,-4.2882,-4.2882,-4.2882,-4.2882,-4.2882,-4.2882,-4.2882,-4.3607,-4.4095,-4.4095,-4.3733,-4.3697,-4.4132,-4.4114,-4.3914,-4.3534,-4.5073,-4.5725,-4.5309,-4.6087,-4.6902,-4.7717,-4.7717,-4.7717,-4.7717,-4.7717,-4.7717,-4.7717,-4.7717,-4.7717,-4.7717,-4.7717,-4.7246,-4.6468,-4.6087,-4.5182,-4.4059,-4.3661,-4.3262,-4.2882,-4.2882,-4.2882,-4.2882,-4.2882,-4.3032,-4.3142,-4.3142,-4.3142,-4.3142,-4.3142,-4.3014,-4.2882,-4.2882,-4.2882,-4.2882,-4.2882,-4.2303,-4.1415,-4.0202,-3.9333,-3.8645,-3.8264,-3.8401,-3.8817,-3.9546,-3.9922,-4.0239,-4.053,-4.0593,-4.0423,-3.9946,-3.9889,-3.9889,-3.9889,-3.9889,-3.9889,-3.9889,-4.0306,-4.0915,-4.1696,-4.2564,-4.3436,-4.4213,-4.4668,-4.4895,-4.4895,-4.4895,-4.4895,-4.4895,-4.4895,-4.4895,-4.4895,-4.4895,-4.4895,-4.4895,-4.4895,-4.5141,-4.5539,-4.5103,-4.516,-4.5577,-4.5539,-4.5786,-4.6203,-4.6203,-4.6676,-4.734,-4.6961,-4.7359,-4.8193,-4.1361,-4.1633,-4.1959,-4.2755,-4.2882,-4.2882,-4.2882,-4.2882,-4.2882,-4.2882,-4.2882,-4.2882,-4.2882,-4.3498,-4.3951,-4.4077,-4.3353,-4.2882,-4.2882,-4.3516,-4.3661,-4.3118,-4.4385,-4.5164,-4.5291,-4.6087,-4.6902,-4.7717,-4.7717,-4.7717,-4.7717,-4.7717,-4.7717,-4.7717,-4.7717,-4.7717,-4.7717,-4.7717,-4.7174,-4.625,-4.5562,-4.4729,-4.3806,-4.3136,-4.2882,-4.2882,-4.2882,-4.2882,-4.2882,-4.2882,-4.3105,-4.3406,-4.3406,-4.344,-4.3508,-4.3508,-4.3249,-4.2995,-4.2995,-4.2957,-4.2882,-4.2882,-4.2393,-4.1705,-4.0908,-4.013,-3.9405,-3.8717,-3.8866,-3.9153,-3.9379,-3.9724,-4.0024,-4.0113,-4.0116,-4.006,-3.9908,-3.9889,-3.9889,-3.9889,-3.9889,-3.9889,-3.9889,-4.0157,-4.0896,-4.2303,-4.2659,-4.3436,-4.4838,-4.4895,-4.4895,-4.4895,-4.4895,-4.4895,-4.4895,-4.4895,-4.4895,-4.4895,-4.4895,-4.4895,-4.4895,-4.4895,-4.4895,-4.4895,-4.4895,-4.4895,-4.4952,-4.5672,-4.5975,-4.5975,-4.5975,-4.6392,-4.6904,-4.6392,-4.662,-4.7321,-4.0528,-4.1234,-4.1959,-4.2755,-4.2882,-4.2882,-4.2882,-4.2882,-4.2882,-4.2882,-4.2882,-4.2882,-4.2882,-4.2991,-4.3335,-4.4023,-4.3353,-4.2882,-4.2882,-4.2991,-4.3317,-4.3896,-4.415,-4.4584,-4.5273,-4.6087,-4.6902,-4.7717,-4.7717,-4.7717,-4.7717,-4.7717,-4.7717,-4.7717,-4.7717,-4.7717,-4.7717,-4.7717,-4.683,-4.5454,-4.5345,-4.4403,-4.3045,-4.2936,-4.2882,-4.2882,-4.2882,-4.2882,-4.2882,-4.2882,-4.3105,-4.3406,-4.3406,-4.359,-4.3849,-4.3849,-4.359,-4.3336,-4.3336,-4.3105,-4.2882,-4.2882,-4.281,-4.252,-4.1741,-4.0926,-4.0329,-4.022,-4.0689,-4.1123,-4.1181,-4.1623,-4.1779,-4.112,-4.1029,-4.0764,-4.0025,-3.9889,-3.9889,-3.9889,-3.9889,-3.9889,-3.9889,-4.1222,-4.2155,-4.2392,-4.3748,-4.4668,-4.4895,-4.4895,-4.4895,-4.4895,-4.4895,-4.4895,-4.4895,-4.4895,-4.4895,-4.4895,-4.4895,-4.4895,-4.4895,-4.4895,-4.4895,-4.4895,-4.4895,-4.4895,-4.4914,-4.5028,-4.5085,-4.5085,-4.5085,-4.5141,-4.5312,-4.5956,-4.6259,-4.6468,-4.0274,-4.08,-4.1433,-4.2665,-4.2882,-4.2882,-4.2882,-4.2882,-4.2882,-4.2882,-4.2882,-4.2882,-4.2882,-4.2882,-4.3027,-4.3389,-4.3099,-4.2882,-4.2882,-4.3317,-4.3516,-4.3425,-4.4277,-4.4928,-4.5291,-4.5653,-4.6214,-4.7029,-4.7482,-4.7717,-4.7717,-4.7717,-4.7717,-4.7717,-4.7717,-4.7717,-4.7717,-4.7717,-4.7029,-4.5979,-4.5979,-4.5001,-4.357,-4.357,-4.357,-4.357,-4.357,-4.3395,-4.3178,-4.3178,-4.3523,-4.3955,-4.3955,-4.4046,-4.4184,-4.4184,-4.3924,-4.3623,-4.3474,-4.3301,-4.3142,-4.2957,-4.2882,-4.281,-4.2448,-4.225,-4.1794,-4.0727,-4.1034,-4.1497,-4.1497,-4.163,-4.1616,-4.1256,-4.0802,-4.0347,-3.9946,-3.9889,-3.9889,-3.9889,-3.9889,-4.01,-4.0593,-4.1298,-4.212,-4.3054,-4.3805,-4.4421,-4.4876,-4.4895,-4.4895,-4.4895,-4.4895,-4.4895,-4.4895,-4.4895,-4.4895,-4.4895,-4.4895,-4.4895,-4.4895,-4.4895,-4.4895,-4.4895,-4.4895,-4.4895,-4.4895,-4.4895,-4.4895,-4.4895,-4.4895,-4.4895,-4.4952,-4.5331,-4.5464,-4.5596]}]]